<?xml version="1.0" encoding="UTF-8" standalone="no" ?>
<gpx xmlns="http://www.topografix.com/GPX/1/1" xmlns:xsi="http://www.w3.org/2001/XMLSchema-instance" xsi:schemaLocation="http://www.topografix.com/GPX/1/1 http://www.topografix.com/GPX/1/1/gpx.xsd" version="1.1" creator="VisuGPX - https://www.visugpx.com">
  <metadata>
    <name>RANDO LES HAUTS DE BURDIGNES 23 KM</name>
    <desc><![CDATA[RANDO LES HAUTS DE BURDIGNES 23 KM.DEPART ARRIVEE BURDIGNES.VIREUIL LE HAUT.LA CARTARA.SUC DES ANES.ROCHE DU LOUP.BLACHE PECOU.SUC DES TROIS CHIENS.MONTCHOVET..MONTCHAL.MONTPENAN]]></desc>
  </metadata>
  <trk>
    <name><![CDATA[11-JUIL-20 16:19:36]]></name>
    <extensions>
      <line xmlns="http://www.topografix.com/GPX/gpx_style/0/2">
        <color>0000FF</color>
        <width>4</width>
      </line>
    </extensions>
    <trkseg>
      <trkpt lat="45.27031" lon="4.56613">
        <ele>895.61</ele>
        <time>2020-07-11T07:38:36Z</time>
      </trkpt>
      <trkpt lat="45.27023" lon="4.56599">
        <ele>888.88</ele>
        <time>2020-07-11T07:38:52Z</time>
      </trkpt>
      <trkpt lat="45.2702" lon="4.56592">
        <ele>889.36</ele>
        <time>2020-07-11T07:38:58Z</time>
      </trkpt>
      <trkpt lat="45.2701" lon="4.56571">
        <ele>888.88</ele>
        <time>2020-07-11T07:39:17Z</time>
      </trkpt>
      <trkpt lat="45.27001" lon="4.56553">
        <ele>889.36</ele>
        <time>2020-07-11T07:39:32Z</time>
      </trkpt>
      <trkpt lat="45.26987" lon="4.56534">
        <ele>890.8</ele>
        <time>2020-07-11T07:39:49Z</time>
      </trkpt>
      <trkpt lat="45.26979" lon="4.56528">
        <ele>890.8</ele>
        <time>2020-07-11T07:40:00Z</time>
      </trkpt>
      <trkpt lat="45.26966" lon="4.5652">
        <ele>891.28</ele>
        <time>2020-07-11T07:40:15Z</time>
      </trkpt>
      <trkpt lat="45.26951" lon="4.56508">
        <ele>891.28</ele>
        <time>2020-07-11T07:40:31Z</time>
      </trkpt>
      <trkpt lat="45.26934" lon="4.56494">
        <ele>889.84</ele>
        <time>2020-07-11T07:40:47Z</time>
      </trkpt>
      <trkpt lat="45.26915" lon="4.5648">
        <ele>890.32</ele>
        <time>2020-07-11T07:41:03Z</time>
      </trkpt>
      <trkpt lat="45.26892" lon="4.56454">
        <ele>890.32</ele>
        <time>2020-07-11T07:41:23Z</time>
      </trkpt>
      <trkpt lat="45.26877" lon="4.56423">
        <ele>888.4</ele>
        <time>2020-07-11T07:41:40Z</time>
      </trkpt>
      <trkpt lat="45.26877" lon="4.56379">
        <ele>887.91</ele>
        <time>2020-07-11T07:42:02Z</time>
      </trkpt>
      <trkpt lat="45.26882" lon="4.56343">
        <ele>887.91</ele>
        <time>2020-07-11T07:42:20Z</time>
      </trkpt>
      <trkpt lat="45.26885" lon="4.56327">
        <ele>887.91</ele>
        <time>2020-07-11T07:42:27Z</time>
      </trkpt>
      <trkpt lat="45.26888" lon="4.56308">
        <ele>888.4</ele>
        <time>2020-07-11T07:42:37Z</time>
      </trkpt>
      <trkpt lat="45.26894" lon="4.56278">
        <ele>888.88</ele>
        <time>2020-07-11T07:42:54Z</time>
      </trkpt>
      <trkpt lat="45.26899" lon="4.5625">
        <ele>885.51</ele>
        <time>2020-07-11T07:43:11Z</time>
      </trkpt>
      <trkpt lat="45.26905" lon="4.56216">
        <ele>884.55</ele>
        <time>2020-07-11T07:43:29Z</time>
      </trkpt>
      <trkpt lat="45.26908" lon="4.56194">
        <ele>884.07</ele>
        <time>2020-07-11T07:43:41Z</time>
      </trkpt>
      <trkpt lat="45.26909" lon="4.56177">
        <ele>884.07</ele>
        <time>2020-07-11T07:43:51Z</time>
      </trkpt>
      <trkpt lat="45.26911" lon="4.56149">
        <ele>882.63</ele>
        <time>2020-07-11T07:44:06Z</time>
      </trkpt>
      <trkpt lat="45.26911" lon="4.56116">
        <ele>881.67</ele>
        <time>2020-07-11T07:44:23Z</time>
      </trkpt>
      <trkpt lat="45.26899" lon="4.56093">
        <ele>880.71</ele>
        <time>2020-07-11T07:44:39Z</time>
      </trkpt>
      <trkpt lat="45.26879" lon="4.56094">
        <ele>880.22</ele>
        <time>2020-07-11T07:44:54Z</time>
      </trkpt>
      <trkpt lat="45.26867" lon="4.56113">
        <ele>882.15</ele>
        <time>2020-07-11T07:45:08Z</time>
      </trkpt>
      <trkpt lat="45.2685" lon="4.5614">
        <ele>885.51</ele>
        <time>2020-07-11T07:45:26Z</time>
      </trkpt>
      <trkpt lat="45.26831" lon="4.56138">
        <ele>885.51</ele>
        <time>2020-07-11T07:45:42Z</time>
      </trkpt>
      <trkpt lat="45.26811" lon="4.56129">
        <ele>886.95</ele>
        <time>2020-07-11T07:45:59Z</time>
      </trkpt>
      <trkpt lat="45.26793" lon="4.56116">
        <ele>887.91</ele>
        <time>2020-07-11T07:46:16Z</time>
      </trkpt>
      <trkpt lat="45.26774" lon="4.56099">
        <ele>890.32</ele>
        <time>2020-07-11T07:46:35Z</time>
      </trkpt>
      <trkpt lat="45.26755" lon="4.56086">
        <ele>891.28</ele>
        <time>2020-07-11T07:46:54Z</time>
      </trkpt>
      <trkpt lat="45.26737" lon="4.56074">
        <ele>892.24</ele>
        <time>2020-07-11T07:47:11Z</time>
      </trkpt>
      <trkpt lat="45.26719" lon="4.56058">
        <ele>894.64</ele>
        <time>2020-07-11T07:47:28Z</time>
      </trkpt>
      <trkpt lat="45.26702" lon="4.56044">
        <ele>897.05</ele>
        <time>2020-07-11T07:47:45Z</time>
      </trkpt>
      <trkpt lat="45.26687" lon="4.56032">
        <ele>898.97</ele>
        <time>2020-07-11T07:47:59Z</time>
      </trkpt>
      <trkpt lat="45.26668" lon="4.56017">
        <ele>901.37</ele>
        <time>2020-07-11T07:48:18Z</time>
      </trkpt>
      <trkpt lat="45.2665" lon="4.56008">
        <ele>905.22</ele>
        <time>2020-07-11T07:48:34Z</time>
      </trkpt>
      <trkpt lat="45.26633" lon="4.56002">
        <ele>908.1</ele>
        <time>2020-07-11T07:48:45Z</time>
      </trkpt>
      <trkpt lat="45.26615" lon="4.55996">
        <ele>910.03</ele>
        <time>2020-07-11T07:49:00Z</time>
      </trkpt>
      <trkpt lat="45.26597" lon="4.55989">
        <ele>913.39</ele>
        <time>2020-07-11T07:49:17Z</time>
      </trkpt>
      <trkpt lat="45.2658" lon="4.55983">
        <ele>915.31</ele>
        <time>2020-07-11T07:49:32Z</time>
      </trkpt>
      <trkpt lat="45.26565" lon="4.55976">
        <ele>917.24</ele>
        <time>2020-07-11T07:49:42Z</time>
      </trkpt>
      <trkpt lat="45.26552" lon="4.55974">
        <ele>920.12</ele>
        <time>2020-07-11T07:49:52Z</time>
      </trkpt>
      <trkpt lat="45.26531" lon="4.55966">
        <ele>923.96</ele>
        <time>2020-07-11T07:50:08Z</time>
      </trkpt>
      <trkpt lat="45.26506" lon="4.55959">
        <ele>925.89</ele>
        <time>2020-07-11T07:50:28Z</time>
      </trkpt>
      <trkpt lat="45.26483" lon="4.55954">
        <ele>927.33</ele>
        <time>2020-07-11T07:50:46Z</time>
      </trkpt>
      <trkpt lat="45.26462" lon="4.55949">
        <ele>928.29</ele>
        <time>2020-07-11T07:51:04Z</time>
      </trkpt>
      <trkpt lat="45.26446" lon="4.55941">
        <ele>929.25</ele>
        <time>2020-07-11T07:51:18Z</time>
      </trkpt>
      <trkpt lat="45.26428" lon="4.55928">
        <ele>929.73</ele>
        <time>2020-07-11T07:51:33Z</time>
      </trkpt>
      <trkpt lat="45.26413" lon="4.55919">
        <ele>929.25</ele>
        <time>2020-07-11T07:51:47Z</time>
      </trkpt>
      <trkpt lat="45.26387" lon="4.5592">
        <ele>930.21</ele>
        <time>2020-07-11T07:52:08Z</time>
      </trkpt>
      <trkpt lat="45.26364" lon="4.55924">
        <ele>931.65</ele>
        <time>2020-07-11T07:52:26Z</time>
      </trkpt>
      <trkpt lat="45.26342" lon="4.55928">
        <ele>932.14</ele>
        <time>2020-07-11T07:52:42Z</time>
      </trkpt>
      <trkpt lat="45.26316" lon="4.55932">
        <ele>932.62</ele>
        <time>2020-07-11T07:53:02Z</time>
      </trkpt>
      <trkpt lat="45.26292" lon="4.55934">
        <ele>933.1</ele>
        <time>2020-07-11T07:53:20Z</time>
      </trkpt>
      <trkpt lat="45.26266" lon="4.55933">
        <ele>933.58</ele>
        <time>2020-07-11T07:53:39Z</time>
      </trkpt>
      <trkpt lat="45.26244" lon="4.55924">
        <ele>933.58</ele>
        <time>2020-07-11T07:53:56Z</time>
      </trkpt>
      <trkpt lat="45.26221" lon="4.55922">
        <ele>932.62</ele>
        <time>2020-07-11T07:54:12Z</time>
      </trkpt>
      <trkpt lat="45.26193" lon="4.55913">
        <ele>931.17</ele>
        <time>2020-07-11T07:54:32Z</time>
      </trkpt>
      <trkpt lat="45.26184" lon="4.55906">
        <ele>930.21</ele>
        <time>2020-07-11T07:54:39Z</time>
      </trkpt>
      <trkpt lat="45.2617" lon="4.55884">
        <ele>932.14</ele>
        <time>2020-07-11T07:54:53Z</time>
      </trkpt>
      <trkpt lat="45.26143" lon="4.55872">
        <ele>933.1</ele>
        <time>2020-07-11T07:55:14Z</time>
      </trkpt>
      <trkpt lat="45.26119" lon="4.55875">
        <ele>933.1</ele>
        <time>2020-07-11T07:55:32Z</time>
      </trkpt>
      <trkpt lat="45.26095" lon="4.55883">
        <ele>933.1</ele>
        <time>2020-07-11T07:55:51Z</time>
      </trkpt>
      <trkpt lat="45.26075" lon="4.55893">
        <ele>933.1</ele>
        <time>2020-07-11T07:56:09Z</time>
      </trkpt>
      <trkpt lat="45.26053" lon="4.55908">
        <ele>932.62</ele>
        <time>2020-07-11T07:56:28Z</time>
      </trkpt>
      <trkpt lat="45.26051" lon="4.55908">
        <ele>932.62</ele>
        <time>2020-07-11T07:56:30Z</time>
      </trkpt>
      <trkpt lat="45.26046" lon="4.5591">
        <ele>932.62</ele>
        <time>2020-07-11T07:56:40Z</time>
      </trkpt>
      <trkpt lat="45.26046" lon="4.5591">
        <ele>932.62</ele>
        <time>2020-07-11T07:56:43Z</time>
      </trkpt>
      <trkpt lat="45.26044" lon="4.55908">
        <ele>932.62</ele>
        <time>2020-07-11T07:56:56Z</time>
      </trkpt>
      <trkpt lat="45.26043" lon="4.55907">
        <ele>932.62</ele>
        <time>2020-07-11T07:57:16Z</time>
      </trkpt>
      <trkpt lat="45.26043" lon="4.55906">
        <ele>931.65</ele>
        <time>2020-07-11T07:57:34Z</time>
      </trkpt>
      <trkpt lat="45.26041" lon="4.55902">
        <ele>931.17</ele>
        <time>2020-07-11T07:57:44Z</time>
      </trkpt>
      <trkpt lat="45.26033" lon="4.55872">
        <ele>932.14</ele>
        <time>2020-07-11T07:58:03Z</time>
      </trkpt>
      <trkpt lat="45.26035" lon="4.55849">
        <ele>933.1</ele>
        <time>2020-07-11T07:58:18Z</time>
      </trkpt>
      <trkpt lat="45.26035" lon="4.55839">
        <ele>934.54</ele>
        <time>2020-07-11T07:58:26Z</time>
      </trkpt>
      <trkpt lat="45.26032" lon="4.55831">
        <ele>935.02</ele>
        <time>2020-07-11T07:58:31Z</time>
      </trkpt>
      <trkpt lat="45.26029" lon="4.55824">
        <ele>935.98</ele>
        <time>2020-07-11T07:58:36Z</time>
      </trkpt>
      <trkpt lat="45.26033" lon="4.55814">
        <ele>938.38</ele>
        <time>2020-07-11T07:58:44Z</time>
      </trkpt>
      <trkpt lat="45.26044" lon="4.55803">
        <ele>938.86</ele>
        <time>2020-07-11T07:58:57Z</time>
      </trkpt>
      <trkpt lat="45.26048" lon="4.55778">
        <ele>938.86</ele>
        <time>2020-07-11T07:59:10Z</time>
      </trkpt>
      <trkpt lat="45.26054" lon="4.55744">
        <ele>938.86</ele>
        <time>2020-07-11T07:59:28Z</time>
      </trkpt>
      <trkpt lat="45.2606" lon="4.55716">
        <ele>940.31</ele>
        <time>2020-07-11T07:59:44Z</time>
      </trkpt>
      <trkpt lat="45.26068" lon="4.55682">
        <ele>941.75</ele>
        <time>2020-07-11T08:00:03Z</time>
      </trkpt>
      <trkpt lat="45.26075" lon="4.55654">
        <ele>944.63</ele>
        <time>2020-07-11T08:00:20Z</time>
      </trkpt>
      <trkpt lat="45.26079" lon="4.55629">
        <ele>948</ele>
        <time>2020-07-11T08:00:36Z</time>
      </trkpt>
      <trkpt lat="45.26079" lon="4.55627">
        <ele>948</ele>
        <time>2020-07-11T08:00:37Z</time>
      </trkpt>
      <trkpt lat="45.26083" lon="4.55606">
        <ele>951.84</ele>
        <time>2020-07-11T08:00:52Z</time>
      </trkpt>
      <trkpt lat="45.26078" lon="4.55582">
        <ele>954.25</ele>
        <time>2020-07-11T08:01:07Z</time>
      </trkpt>
      <trkpt lat="45.26069" lon="4.55564">
        <ele>957.13</ele>
        <time>2020-07-11T08:01:21Z</time>
      </trkpt>
      <trkpt lat="45.26063" lon="4.55542">
        <ele>958.57</ele>
        <time>2020-07-11T08:01:36Z</time>
      </trkpt>
      <trkpt lat="45.26056" lon="4.55519">
        <ele>960.49</ele>
        <time>2020-07-11T08:01:51Z</time>
      </trkpt>
      <trkpt lat="45.26052" lon="4.55511">
        <ele>960.98</ele>
        <time>2020-07-11T08:01:57Z</time>
      </trkpt>
      <trkpt lat="45.26044" lon="4.55488">
        <ele>962.42</ele>
        <time>2020-07-11T08:02:13Z</time>
      </trkpt>
      <trkpt lat="45.26037" lon="4.55465">
        <ele>963.38</ele>
        <time>2020-07-11T08:02:28Z</time>
      </trkpt>
      <trkpt lat="45.26035" lon="4.55457">
        <ele>964.34</ele>
        <time>2020-07-11T08:02:34Z</time>
      </trkpt>
      <trkpt lat="45.26031" lon="4.55434">
        <ele>966.26</ele>
        <time>2020-07-11T08:02:51Z</time>
      </trkpt>
      <trkpt lat="45.26025" lon="4.55415">
        <ele>969.15</ele>
        <time>2020-07-11T08:03:05Z</time>
      </trkpt>
      <trkpt lat="45.26019" lon="4.55401">
        <ele>970.11</ele>
        <time>2020-07-11T08:03:18Z</time>
      </trkpt>
      <trkpt lat="45.26018" lon="4.55399">
        <ele>970.11</ele>
        <time>2020-07-11T08:03:19Z</time>
      </trkpt>
      <trkpt lat="45.26015" lon="4.55386">
        <ele>972.03</ele>
        <time>2020-07-11T08:03:28Z</time>
      </trkpt>
      <trkpt lat="45.2601" lon="4.55374">
        <ele>974.43</ele>
        <time>2020-07-11T08:03:37Z</time>
      </trkpt>
      <trkpt lat="45.26006" lon="4.55364">
        <ele>976.36</ele>
        <time>2020-07-11T08:03:44Z</time>
      </trkpt>
      <trkpt lat="45.26001" lon="4.55347">
        <ele>979.72</ele>
        <time>2020-07-11T08:03:57Z</time>
      </trkpt>
      <trkpt lat="45.25998" lon="4.55335">
        <ele>981.16</ele>
        <time>2020-07-11T08:04:05Z</time>
      </trkpt>
      <trkpt lat="45.25992" lon="4.55315">
        <ele>984.05</ele>
        <time>2020-07-11T08:04:20Z</time>
      </trkpt>
      <trkpt lat="45.25985" lon="4.553">
        <ele>986.93</ele>
        <time>2020-07-11T08:04:32Z</time>
      </trkpt>
      <trkpt lat="45.25983" lon="4.55295">
        <ele>987.41</ele>
        <time>2020-07-11T08:04:35Z</time>
      </trkpt>
      <trkpt lat="45.25975" lon="4.55268">
        <ele>989.81</ele>
        <time>2020-07-11T08:04:52Z</time>
      </trkpt>
      <trkpt lat="45.25973" lon="4.55255">
        <ele>991.74</ele>
        <time>2020-07-11T08:04:59Z</time>
      </trkpt>
      <trkpt lat="45.25967" lon="4.55234">
        <ele>993.18</ele>
        <time>2020-07-11T08:05:13Z</time>
      </trkpt>
      <trkpt lat="45.25966" lon="4.55226">
        <ele>992.22</ele>
        <time>2020-07-11T08:05:18Z</time>
      </trkpt>
      <trkpt lat="45.25964" lon="4.55202">
        <ele>992.22</ele>
        <time>2020-07-11T08:05:34Z</time>
      </trkpt>
      <trkpt lat="45.25965" lon="4.55187">
        <ele>992.7</ele>
        <time>2020-07-11T08:05:43Z</time>
      </trkpt>
      <trkpt lat="45.25971" lon="4.55166">
        <ele>993.66</ele>
        <time>2020-07-11T08:05:58Z</time>
      </trkpt>
      <trkpt lat="45.25975" lon="4.55148">
        <ele>997.02</ele>
        <time>2020-07-11T08:06:13Z</time>
      </trkpt>
      <trkpt lat="45.25978" lon="4.55126">
        <ele>1003.27</ele>
        <time>2020-07-11T08:06:28Z</time>
      </trkpt>
      <trkpt lat="45.25983" lon="4.55102">
        <ele>1005.68</ele>
        <time>2020-07-11T08:06:42Z</time>
      </trkpt>
      <trkpt lat="45.25985" lon="4.55087">
        <ele>1007.12</ele>
        <time>2020-07-11T08:06:51Z</time>
      </trkpt>
      <trkpt lat="45.25988" lon="4.55076">
        <ele>1005.68</ele>
        <time>2020-07-11T08:07:06Z</time>
      </trkpt>
      <trkpt lat="45.25988" lon="4.55075">
        <ele>1005.68</ele>
        <time>2020-07-11T08:07:25Z</time>
      </trkpt>
      <trkpt lat="45.25988" lon="4.55074">
        <ele>1005.2</ele>
        <time>2020-07-11T08:07:39Z</time>
      </trkpt>
      <trkpt lat="45.25988" lon="4.55074">
        <ele>1005.2</ele>
        <time>2020-07-11T08:07:58Z</time>
      </trkpt>
      <trkpt lat="45.25987" lon="4.55069">
        <ele>1005.68</ele>
        <time>2020-07-11T08:08:08Z</time>
      </trkpt>
      <trkpt lat="45.25985" lon="4.55035">
        <ele>1007.12</ele>
        <time>2020-07-11T08:08:27Z</time>
      </trkpt>
      <trkpt lat="45.25987" lon="4.55">
        <ele>1009.04</ele>
        <time>2020-07-11T08:08:47Z</time>
      </trkpt>
      <trkpt lat="45.25991" lon="4.54969">
        <ele>1010.96</ele>
        <time>2020-07-11T08:09:05Z</time>
      </trkpt>
      <trkpt lat="45.25996" lon="4.54938">
        <ele>1012.41</ele>
        <time>2020-07-11T08:09:23Z</time>
      </trkpt>
      <trkpt lat="45.26009" lon="4.54918">
        <ele>1013.85</ele>
        <time>2020-07-11T08:09:39Z</time>
      </trkpt>
      <trkpt lat="45.26022" lon="4.54902">
        <ele>1014.81</ele>
        <time>2020-07-11T08:09:54Z</time>
      </trkpt>
      <trkpt lat="45.26025" lon="4.54898">
        <ele>1010.48</ele>
        <time>2020-07-11T08:10:04Z</time>
      </trkpt>
      <trkpt lat="45.26028" lon="4.54908">
        <ele>1010</ele>
        <time>2020-07-11T08:10:18Z</time>
      </trkpt>
      <trkpt lat="45.26026" lon="4.54918">
        <ele>1010.48</ele>
        <time>2020-07-11T08:10:30Z</time>
      </trkpt>
      <trkpt lat="45.26022" lon="4.54921">
        <ele>1010.48</ele>
        <time>2020-07-11T08:10:35Z</time>
      </trkpt>
      <trkpt lat="45.2602" lon="4.54938">
        <ele>1012.89</ele>
        <time>2020-07-11T08:10:48Z</time>
      </trkpt>
      <trkpt lat="45.26022" lon="4.54945">
        <ele>1013.37</ele>
        <time>2020-07-11T08:11:02Z</time>
      </trkpt>
      <trkpt lat="45.26024" lon="4.54948">
        <ele>1013.37</ele>
        <time>2020-07-11T08:11:15Z</time>
      </trkpt>
      <trkpt lat="45.26024" lon="4.54948">
        <ele>1013.37</ele>
        <time>2020-07-11T08:11:30Z</time>
      </trkpt>
      <trkpt lat="45.26024" lon="4.54949">
        <ele>1013.37</ele>
        <time>2020-07-11T08:11:43Z</time>
      </trkpt>
      <trkpt lat="45.26024" lon="4.5495">
        <ele>1014.33</ele>
        <time>2020-07-11T08:12:02Z</time>
      </trkpt>
      <trkpt lat="45.26024" lon="4.5495">
        <ele>1014.81</ele>
        <time>2020-07-11T08:12:17Z</time>
      </trkpt>
      <trkpt lat="45.26024" lon="4.54949">
        <ele>1014.33</ele>
        <time>2020-07-11T08:12:31Z</time>
      </trkpt>
      <trkpt lat="45.26022" lon="4.54942">
        <ele>1013.37</ele>
        <time>2020-07-11T08:12:43Z</time>
      </trkpt>
      <trkpt lat="45.26022" lon="4.54923">
        <ele>1014.33</ele>
        <time>2020-07-11T08:12:57Z</time>
      </trkpt>
      <trkpt lat="45.26026" lon="4.54911">
        <ele>1014.33</ele>
        <time>2020-07-11T08:13:11Z</time>
      </trkpt>
      <trkpt lat="45.26025" lon="4.54899">
        <ele>1014.33</ele>
        <time>2020-07-11T08:13:24Z</time>
      </trkpt>
      <trkpt lat="45.26024" lon="4.54896">
        <ele>1013.85</ele>
        <time>2020-07-11T08:13:26Z</time>
      </trkpt>
      <trkpt lat="45.26027" lon="4.54887">
        <ele>1012.89</ele>
        <time>2020-07-11T08:13:32Z</time>
      </trkpt>
      <trkpt lat="45.26033" lon="4.54857">
        <ele>1011.44</ele>
        <time>2020-07-11T08:13:51Z</time>
      </trkpt>
      <trkpt lat="45.26033" lon="4.54827">
        <ele>1010.48</ele>
        <time>2020-07-11T08:14:09Z</time>
      </trkpt>
      <trkpt lat="45.26033" lon="4.54821">
        <ele>1010.48</ele>
        <time>2020-07-11T08:14:13Z</time>
      </trkpt>
      <trkpt lat="45.26035" lon="4.54787">
        <ele>1009.52</ele>
        <time>2020-07-11T08:14:32Z</time>
      </trkpt>
      <trkpt lat="45.26038" lon="4.54745">
        <ele>1010</ele>
        <time>2020-07-11T08:14:54Z</time>
      </trkpt>
      <trkpt lat="45.26039" lon="4.54708">
        <ele>1010</ele>
        <time>2020-07-11T08:15:13Z</time>
      </trkpt>
      <trkpt lat="45.26041" lon="4.54676">
        <ele>1009.04</ele>
        <time>2020-07-11T08:15:29Z</time>
      </trkpt>
      <trkpt lat="45.26044" lon="4.54643">
        <ele>1010</ele>
        <time>2020-07-11T08:15:47Z</time>
      </trkpt>
      <trkpt lat="45.26055" lon="4.54609">
        <ele>1010.48</ele>
        <time>2020-07-11T08:16:07Z</time>
      </trkpt>
      <trkpt lat="45.26057" lon="4.5458">
        <ele>1011.44</ele>
        <time>2020-07-11T08:16:25Z</time>
      </trkpt>
      <trkpt lat="45.26052" lon="4.5455">
        <ele>1011.93</ele>
        <time>2020-07-11T08:16:43Z</time>
      </trkpt>
      <trkpt lat="45.26047" lon="4.54511">
        <ele>1014.81</ele>
        <time>2020-07-11T08:17:04Z</time>
      </trkpt>
      <trkpt lat="45.26045" lon="4.5448">
        <ele>1018.65</ele>
        <time>2020-07-11T08:17:21Z</time>
      </trkpt>
      <trkpt lat="45.26044" lon="4.54464">
        <ele>1019.62</ele>
        <time>2020-07-11T08:17:37Z</time>
      </trkpt>
      <trkpt lat="45.26044" lon="4.54463">
        <ele>1019.62</ele>
        <time>2020-07-11T08:17:56Z</time>
      </trkpt>
      <trkpt lat="45.26044" lon="4.54462">
        <ele>1019.62</ele>
        <time>2020-07-11T08:18:14Z</time>
      </trkpt>
      <trkpt lat="45.26044" lon="4.54462">
        <ele>1019.62</ele>
        <time>2020-07-11T08:18:33Z</time>
      </trkpt>
      <trkpt lat="45.26043" lon="4.54454">
        <ele>1020.1</ele>
        <time>2020-07-11T08:18:48Z</time>
      </trkpt>
      <trkpt lat="45.26039" lon="4.54428">
        <ele>1022.02</ele>
        <time>2020-07-11T08:19:06Z</time>
      </trkpt>
      <trkpt lat="45.26022" lon="4.54404">
        <ele>1023.46</ele>
        <time>2020-07-11T08:19:25Z</time>
      </trkpt>
      <trkpt lat="45.26002" lon="4.54382">
        <ele>1024.9</ele>
        <time>2020-07-11T08:19:44Z</time>
      </trkpt>
      <trkpt lat="45.25981" lon="4.54359">
        <ele>1026.34</ele>
        <time>2020-07-11T08:20:04Z</time>
      </trkpt>
      <trkpt lat="45.25961" lon="4.54337">
        <ele>1027.31</ele>
        <time>2020-07-11T08:20:23Z</time>
      </trkpt>
      <trkpt lat="45.25942" lon="4.54317">
        <ele>1028.75</ele>
        <time>2020-07-11T08:20:42Z</time>
      </trkpt>
      <trkpt lat="45.25923" lon="4.54297">
        <ele>1029.23</ele>
        <time>2020-07-11T08:21:00Z</time>
      </trkpt>
      <trkpt lat="45.25908" lon="4.54274">
        <ele>1029.71</ele>
        <time>2020-07-11T08:21:16Z</time>
      </trkpt>
      <trkpt lat="45.25892" lon="4.54242">
        <ele>1029.71</ele>
        <time>2020-07-11T08:21:36Z</time>
      </trkpt>
      <trkpt lat="45.25883" lon="4.54217">
        <ele>1030.19</ele>
        <time>2020-07-11T08:21:51Z</time>
      </trkpt>
      <trkpt lat="45.25871" lon="4.54189">
        <ele>1034.52</ele>
        <time>2020-07-11T08:22:10Z</time>
      </trkpt>
      <trkpt lat="45.25862" lon="4.54166">
        <ele>1038.84</ele>
        <time>2020-07-11T08:22:26Z</time>
      </trkpt>
      <trkpt lat="45.25856" lon="4.54138">
        <ele>1043.65</ele>
        <time>2020-07-11T08:22:40Z</time>
      </trkpt>
      <trkpt lat="45.25842" lon="4.54109">
        <ele>1043.17</ele>
        <time>2020-07-11T08:22:58Z</time>
      </trkpt>
      <trkpt lat="45.25834" lon="4.54081">
        <ele>1042.69</ele>
        <time>2020-07-11T08:23:13Z</time>
      </trkpt>
      <trkpt lat="45.25823" lon="4.54044">
        <ele>1039.8</ele>
        <time>2020-07-11T08:23:31Z</time>
      </trkpt>
      <trkpt lat="45.25812" lon="4.5401">
        <ele>1036.44</ele>
        <time>2020-07-11T08:23:49Z</time>
      </trkpt>
      <trkpt lat="45.25804" lon="4.53987">
        <ele>1035.96</ele>
        <time>2020-07-11T08:24:03Z</time>
      </trkpt>
      <trkpt lat="45.25794" lon="4.5396">
        <ele>1037.88</ele>
        <time>2020-07-11T08:24:19Z</time>
      </trkpt>
      <trkpt lat="45.25783" lon="4.53929">
        <ele>1037.88</ele>
        <time>2020-07-11T08:24:37Z</time>
      </trkpt>
      <trkpt lat="45.25771" lon="4.53895">
        <ele>1038.36</ele>
        <time>2020-07-11T08:24:56Z</time>
      </trkpt>
      <trkpt lat="45.25765" lon="4.53867">
        <ele>1040.76</ele>
        <time>2020-07-11T08:25:12Z</time>
      </trkpt>
      <trkpt lat="45.25765" lon="4.53837">
        <ele>1040.76</ele>
        <time>2020-07-11T08:25:31Z</time>
      </trkpt>
      <trkpt lat="45.25773" lon="4.5381">
        <ele>1038.36</ele>
        <time>2020-07-11T08:25:49Z</time>
      </trkpt>
      <trkpt lat="45.25779" lon="4.53778">
        <ele>1035</ele>
        <time>2020-07-11T08:26:07Z</time>
      </trkpt>
      <trkpt lat="45.25779" lon="4.53748">
        <ele>1032.11</ele>
        <time>2020-07-11T08:26:23Z</time>
      </trkpt>
      <trkpt lat="45.25778" lon="4.53742">
        <ele>1030.67</ele>
        <time>2020-07-11T08:26:28Z</time>
      </trkpt>
      <trkpt lat="45.25777" lon="4.5374">
        <ele>1030.67</ele>
        <time>2020-07-11T08:26:30Z</time>
      </trkpt>
      <trkpt lat="45.2577" lon="4.53729">
        <ele>1029.71</ele>
        <time>2020-07-11T08:26:39Z</time>
      </trkpt>
      <trkpt lat="45.25765" lon="4.53713">
        <ele>1026.34</ele>
        <time>2020-07-11T08:26:52Z</time>
      </trkpt>
      <trkpt lat="45.25753" lon="4.53696">
        <ele>1023.46</ele>
        <time>2020-07-11T08:27:06Z</time>
      </trkpt>
      <trkpt lat="45.25751" lon="4.5369">
        <ele>1022.98</ele>
        <time>2020-07-11T08:27:10Z</time>
      </trkpt>
      <trkpt lat="45.25734" lon="4.53663">
        <ele>1025.38</ele>
        <time>2020-07-11T08:27:26Z</time>
      </trkpt>
      <trkpt lat="45.25733" lon="4.5366">
        <ele>1025.38</ele>
        <time>2020-07-11T08:27:28Z</time>
      </trkpt>
      <trkpt lat="45.25724" lon="4.53638">
        <ele>1026.83</ele>
        <time>2020-07-11T08:27:44Z</time>
      </trkpt>
      <trkpt lat="45.25715" lon="4.5361">
        <ele>1036.44</ele>
        <time>2020-07-11T08:27:59Z</time>
      </trkpt>
      <trkpt lat="45.25712" lon="4.53589">
        <ele>1043.65</ele>
        <time>2020-07-11T08:28:10Z</time>
      </trkpt>
      <trkpt lat="45.25702" lon="4.53559">
        <ele>1049.42</ele>
        <time>2020-07-11T08:28:25Z</time>
      </trkpt>
      <trkpt lat="45.25701" lon="4.53556">
        <ele>1049.9</ele>
        <time>2020-07-11T08:28:27Z</time>
      </trkpt>
      <trkpt lat="45.25693" lon="4.53529">
        <ele>1052.78</ele>
        <time>2020-07-11T08:28:41Z</time>
      </trkpt>
      <trkpt lat="45.25692" lon="4.53527">
        <ele>1052.3</ele>
        <time>2020-07-11T08:28:42Z</time>
      </trkpt>
      <trkpt lat="45.25686" lon="4.535">
        <ele>1048.94</ele>
        <time>2020-07-11T08:28:57Z</time>
      </trkpt>
      <trkpt lat="45.25679" lon="4.5347">
        <ele>1051.82</ele>
        <time>2020-07-11T08:29:14Z</time>
      </trkpt>
      <trkpt lat="45.25675" lon="4.53461">
        <ele>1053.74</ele>
        <time>2020-07-11T08:29:18Z</time>
      </trkpt>
      <trkpt lat="45.25663" lon="4.53438">
        <ele>1060.95</ele>
        <time>2020-07-11T08:29:32Z</time>
      </trkpt>
      <trkpt lat="45.25652" lon="4.53411">
        <ele>1071.05</ele>
        <time>2020-07-11T08:29:50Z</time>
      </trkpt>
      <trkpt lat="45.25645" lon="4.53398">
        <ele>1071.53</ele>
        <time>2020-07-11T08:30:01Z</time>
      </trkpt>
      <trkpt lat="45.25633" lon="4.53385">
        <ele>1067.2</ele>
        <time>2020-07-11T08:30:15Z</time>
      </trkpt>
      <trkpt lat="45.25631" lon="4.53362">
        <ele>1047.49</ele>
        <time>2020-07-11T08:30:32Z</time>
      </trkpt>
      <trkpt lat="45.2563" lon="4.53335">
        <ele>1046.53</ele>
        <time>2020-07-11T08:30:47Z</time>
      </trkpt>
      <trkpt lat="45.2563" lon="4.5331">
        <ele>1049.42</ele>
        <time>2020-07-11T08:31:02Z</time>
      </trkpt>
      <trkpt lat="45.25628" lon="4.53295">
        <ele>1049.9</ele>
        <time>2020-07-11T08:31:18Z</time>
      </trkpt>
      <trkpt lat="45.25629" lon="4.53268">
        <ele>1049.9</ele>
        <time>2020-07-11T08:31:34Z</time>
      </trkpt>
      <trkpt lat="45.25623" lon="4.53245">
        <ele>1049.42</ele>
        <time>2020-07-11T08:31:49Z</time>
      </trkpt>
      <trkpt lat="45.2562" lon="4.53226">
        <ele>1054.22</ele>
        <time>2020-07-11T08:32:04Z</time>
      </trkpt>
      <trkpt lat="45.25618" lon="4.53202">
        <ele>1054.7</ele>
        <time>2020-07-11T08:32:20Z</time>
      </trkpt>
      <trkpt lat="45.2562" lon="4.53174">
        <ele>1050.86</ele>
        <time>2020-07-11T08:32:38Z</time>
      </trkpt>
      <trkpt lat="45.25619" lon="4.5316">
        <ele>1051.34</ele>
        <time>2020-07-11T08:32:56Z</time>
      </trkpt>
      <trkpt lat="45.2562" lon="4.53141">
        <ele>1055.18</ele>
        <time>2020-07-11T08:33:12Z</time>
      </trkpt>
      <trkpt lat="45.25622" lon="4.53124">
        <ele>1054.22</ele>
        <time>2020-07-11T08:33:28Z</time>
      </trkpt>
      <trkpt lat="45.25622" lon="4.53114">
        <ele>1048.45</ele>
        <time>2020-07-11T08:33:47Z</time>
      </trkpt>
      <trkpt lat="45.25621" lon="4.5311">
        <ele>1047.01</ele>
        <time>2020-07-11T08:34:09Z</time>
      </trkpt>
      <trkpt lat="45.25634" lon="4.53105">
        <ele>1046.53</ele>
        <time>2020-07-11T08:34:25Z</time>
      </trkpt>
      <trkpt lat="45.25647" lon="4.5311">
        <ele>1042.69</ele>
        <time>2020-07-11T08:34:41Z</time>
      </trkpt>
      <trkpt lat="45.25663" lon="4.53112">
        <ele>1033.07</ele>
        <time>2020-07-11T08:34:56Z</time>
      </trkpt>
      <trkpt lat="45.25675" lon="4.53101">
        <ele>1025.38</ele>
        <time>2020-07-11T08:35:12Z</time>
      </trkpt>
      <trkpt lat="45.25686" lon="4.53088">
        <ele>1022.02</ele>
        <time>2020-07-11T08:35:31Z</time>
      </trkpt>
      <trkpt lat="45.257" lon="4.53083">
        <ele>1022.98</ele>
        <time>2020-07-11T08:35:46Z</time>
      </trkpt>
      <trkpt lat="45.25719" lon="4.53073">
        <ele>1024.42</ele>
        <time>2020-07-11T08:36:05Z</time>
      </trkpt>
      <trkpt lat="45.2573" lon="4.53056">
        <ele>1023.46</ele>
        <time>2020-07-11T08:36:24Z</time>
      </trkpt>
      <trkpt lat="45.25736" lon="4.53045">
        <ele>1024.9</ele>
        <time>2020-07-11T08:36:40Z</time>
      </trkpt>
      <trkpt lat="45.25749" lon="4.53028">
        <ele>1026.83</ele>
        <time>2020-07-11T08:36:57Z</time>
      </trkpt>
      <trkpt lat="45.25764" lon="4.53018">
        <ele>1029.23</ele>
        <time>2020-07-11T08:37:16Z</time>
      </trkpt>
      <trkpt lat="45.25764" lon="4.53007">
        <ele>1032.11</ele>
        <time>2020-07-11T08:37:33Z</time>
      </trkpt>
      <trkpt lat="45.25762" lon="4.52992">
        <ele>1033.07</ele>
        <time>2020-07-11T08:37:51Z</time>
      </trkpt>
      <trkpt lat="45.2577" lon="4.52974">
        <ele>1034.52</ele>
        <time>2020-07-11T08:38:09Z</time>
      </trkpt>
      <trkpt lat="45.2578" lon="4.52962">
        <ele>1035</ele>
        <time>2020-07-11T08:38:27Z</time>
      </trkpt>
      <trkpt lat="45.25803" lon="4.52948">
        <ele>1035.48</ele>
        <time>2020-07-11T08:38:47Z</time>
      </trkpt>
      <trkpt lat="45.25813" lon="4.52951">
        <ele>1040.76</ele>
        <time>2020-07-11T08:38:59Z</time>
      </trkpt>
      <trkpt lat="45.25823" lon="4.52948">
        <ele>1045.57</ele>
        <time>2020-07-11T08:39:14Z</time>
      </trkpt>
      <trkpt lat="45.25842" lon="4.52945">
        <ele>1050.86</ele>
        <time>2020-07-11T08:39:30Z</time>
      </trkpt>
      <trkpt lat="45.25859" lon="4.52941">
        <ele>1054.22</ele>
        <time>2020-07-11T08:39:48Z</time>
      </trkpt>
      <trkpt lat="45.25879" lon="4.52937">
        <ele>1058.55</ele>
        <time>2020-07-11T08:40:04Z</time>
      </trkpt>
      <trkpt lat="45.25905" lon="4.52928">
        <ele>1059.03</ele>
        <time>2020-07-11T08:40:22Z</time>
      </trkpt>
      <trkpt lat="45.25928" lon="4.52926">
        <ele>1059.03</ele>
        <time>2020-07-11T08:40:41Z</time>
      </trkpt>
      <trkpt lat="45.25929" lon="4.52925">
        <ele>1059.03</ele>
        <time>2020-07-11T08:40:43Z</time>
      </trkpt>
      <trkpt lat="45.25954" lon="4.5292">
        <ele>1058.55</ele>
        <time>2020-07-11T08:41:02Z</time>
      </trkpt>
      <trkpt lat="45.25973" lon="4.5291">
        <ele>1058.07</ele>
        <time>2020-07-11T08:41:19Z</time>
      </trkpt>
      <trkpt lat="45.25994" lon="4.52899">
        <ele>1058.55</ele>
        <time>2020-07-11T08:41:36Z</time>
      </trkpt>
      <trkpt lat="45.26013" lon="4.52885">
        <ele>1057.11</ele>
        <time>2020-07-11T08:41:54Z</time>
      </trkpt>
      <trkpt lat="45.26033" lon="4.5287">
        <ele>1055.18</ele>
        <time>2020-07-11T08:42:10Z</time>
      </trkpt>
      <trkpt lat="45.26049" lon="4.52858">
        <ele>1053.26</ele>
        <time>2020-07-11T08:42:28Z</time>
      </trkpt>
      <trkpt lat="45.26061" lon="4.52848">
        <ele>1055.18</ele>
        <time>2020-07-11T08:42:37Z</time>
      </trkpt>
      <trkpt lat="45.2608" lon="4.52839">
        <ele>1051.82</ele>
        <time>2020-07-11T08:42:53Z</time>
      </trkpt>
      <trkpt lat="45.26097" lon="4.52822">
        <ele>1051.34</ele>
        <time>2020-07-11T08:43:07Z</time>
      </trkpt>
      <trkpt lat="45.26108" lon="4.52804">
        <ele>1046.05</ele>
        <time>2020-07-11T08:43:22Z</time>
      </trkpt>
      <trkpt lat="45.26118" lon="4.5278">
        <ele>1037.4</ele>
        <time>2020-07-11T08:43:40Z</time>
      </trkpt>
      <trkpt lat="45.26125" lon="4.52765">
        <ele>1034.52</ele>
        <time>2020-07-11T08:43:53Z</time>
      </trkpt>
      <trkpt lat="45.26136" lon="4.52747">
        <ele>1041.25</ele>
        <time>2020-07-11T08:44:09Z</time>
      </trkpt>
      <trkpt lat="45.26157" lon="4.52725">
        <ele>1046.53</ele>
        <time>2020-07-11T08:44:25Z</time>
      </trkpt>
      <trkpt lat="45.2616" lon="4.52722">
        <ele>1048.45</ele>
        <time>2020-07-11T08:44:35Z</time>
      </trkpt>
      <trkpt lat="45.26166" lon="4.52703">
        <ele>1053.26</ele>
        <time>2020-07-11T08:44:49Z</time>
      </trkpt>
      <trkpt lat="45.26174" lon="4.52677">
        <ele>1053.26</ele>
        <time>2020-07-11T08:45:04Z</time>
      </trkpt>
      <trkpt lat="45.26177" lon="4.52672">
        <ele>1056.15</ele>
        <time>2020-07-11T08:45:09Z</time>
      </trkpt>
      <trkpt lat="45.26186" lon="4.52652">
        <ele>1060.47</ele>
        <time>2020-07-11T08:45:20Z</time>
      </trkpt>
      <trkpt lat="45.26194" lon="4.52629">
        <ele>1059.99</ele>
        <time>2020-07-11T08:45:33Z</time>
      </trkpt>
      <trkpt lat="45.26195" lon="4.52624">
        <ele>1057.59</ele>
        <time>2020-07-11T08:45:36Z</time>
      </trkpt>
      <trkpt lat="45.26196" lon="4.52621">
        <ele>1052.3</ele>
        <time>2020-07-11T08:45:39Z</time>
      </trkpt>
      <trkpt lat="45.26196" lon="4.5261">
        <ele>1043.65</ele>
        <time>2020-07-11T08:45:45Z</time>
      </trkpt>
      <trkpt lat="45.26202" lon="4.52584">
        <ele>1026.34</ele>
        <time>2020-07-11T08:46:02Z</time>
      </trkpt>
      <trkpt lat="45.26211" lon="4.52563">
        <ele>1018.65</ele>
        <time>2020-07-11T08:46:18Z</time>
      </trkpt>
      <trkpt lat="45.26216" lon="4.52557">
        <ele>1014.81</ele>
        <time>2020-07-11T08:46:24Z</time>
      </trkpt>
      <trkpt lat="45.26228" lon="4.5254">
        <ele>1011.44</ele>
        <time>2020-07-11T08:46:39Z</time>
      </trkpt>
      <trkpt lat="45.26241" lon="4.52512">
        <ele>1007.12</ele>
        <time>2020-07-11T08:46:59Z</time>
      </trkpt>
      <trkpt lat="45.26242" lon="4.52502">
        <ele>1006.64</ele>
        <time>2020-07-11T08:47:13Z</time>
      </trkpt>
      <trkpt lat="45.26242" lon="4.52498">
        <ele>1002.79</ele>
        <time>2020-07-11T08:47:30Z</time>
      </trkpt>
      <trkpt lat="45.26243" lon="4.52496">
        <ele>1001.35</ele>
        <time>2020-07-11T08:47:45Z</time>
      </trkpt>
      <trkpt lat="45.26243" lon="4.52489">
        <ele>1001.35</ele>
        <time>2020-07-11T08:47:56Z</time>
      </trkpt>
      <trkpt lat="45.26243" lon="4.52489">
        <ele>1001.83</ele>
        <time>2020-07-11T08:48:15Z</time>
      </trkpt>
      <trkpt lat="45.26234" lon="4.52489">
        <ele>1003.27</ele>
        <time>2020-07-11T08:48:27Z</time>
      </trkpt>
      <trkpt lat="45.26212" lon="4.52487">
        <ele>1007.6</ele>
        <time>2020-07-11T08:48:46Z</time>
      </trkpt>
      <trkpt lat="45.26197" lon="4.52482">
        <ele>1010.48</ele>
        <time>2020-07-11T08:49:03Z</time>
      </trkpt>
      <trkpt lat="45.26184" lon="4.52474">
        <ele>1015.29</ele>
        <time>2020-07-11T08:49:17Z</time>
      </trkpt>
      <trkpt lat="45.26177" lon="4.52465">
        <ele>1017.21</ele>
        <time>2020-07-11T08:49:26Z</time>
      </trkpt>
      <trkpt lat="45.2617" lon="4.52446">
        <ele>1025.86</ele>
        <time>2020-07-11T08:49:42Z</time>
      </trkpt>
      <trkpt lat="45.26166" lon="4.52439">
        <ele>1028.27</ele>
        <time>2020-07-11T08:49:47Z</time>
      </trkpt>
      <trkpt lat="45.26161" lon="4.52412">
        <ele>1038.84</ele>
        <time>2020-07-11T08:50:04Z</time>
      </trkpt>
      <trkpt lat="45.26158" lon="4.52396">
        <ele>1043.17</ele>
        <time>2020-07-11T08:50:14Z</time>
      </trkpt>
      <trkpt lat="45.26155" lon="4.52374">
        <ele>1050.86</ele>
        <time>2020-07-11T08:50:29Z</time>
      </trkpt>
      <trkpt lat="45.26152" lon="4.52361">
        <ele>1056.15</ele>
        <time>2020-07-11T08:50:39Z</time>
      </trkpt>
      <trkpt lat="45.26148" lon="4.5235">
        <ele>1059.99</ele>
        <time>2020-07-11T08:50:46Z</time>
      </trkpt>
      <trkpt lat="45.26143" lon="4.52332">
        <ele>1067.2</ele>
        <time>2020-07-11T08:50:59Z</time>
      </trkpt>
      <trkpt lat="45.26139" lon="4.52317">
        <ele>1071.53</ele>
        <time>2020-07-11T08:51:09Z</time>
      </trkpt>
      <trkpt lat="45.26141" lon="4.52292">
        <ele>1080.66</ele>
        <time>2020-07-11T08:51:25Z</time>
      </trkpt>
      <trkpt lat="45.26144" lon="4.52281">
        <ele>1088.35</ele>
        <time>2020-07-11T08:51:35Z</time>
      </trkpt>
      <trkpt lat="45.26148" lon="4.52271">
        <ele>1096.52</ele>
        <time>2020-07-11T08:51:43Z</time>
      </trkpt>
      <trkpt lat="45.26153" lon="4.52217">
        <ele>1084.02</ele>
        <time>2020-07-11T08:52:00Z</time>
      </trkpt>
      <trkpt lat="45.26153" lon="4.52208">
        <ele>1084.99</ele>
        <time>2020-07-11T08:52:04Z</time>
      </trkpt>
      <trkpt lat="45.26151" lon="4.52192">
        <ele>1087.39</ele>
        <time>2020-07-11T08:52:14Z</time>
      </trkpt>
      <trkpt lat="45.26149" lon="4.52185">
        <ele>1087.39</ele>
        <time>2020-07-11T08:52:18Z</time>
      </trkpt>
      <trkpt lat="45.26138" lon="4.52157">
        <ele>1072.97</ele>
        <time>2020-07-11T08:52:33Z</time>
      </trkpt>
      <trkpt lat="45.26138" lon="4.52137">
        <ele>1074.41</ele>
        <time>2020-07-11T08:52:49Z</time>
      </trkpt>
      <trkpt lat="45.26146" lon="4.521">
        <ele>1081.14</ele>
        <time>2020-07-11T08:53:06Z</time>
      </trkpt>
      <trkpt lat="45.26146" lon="4.52081">
        <ele>1084.99</ele>
        <time>2020-07-11T08:53:18Z</time>
      </trkpt>
      <trkpt lat="45.26147" lon="4.52057">
        <ele>1084.5</ele>
        <time>2020-07-11T08:53:34Z</time>
      </trkpt>
      <trkpt lat="45.26141" lon="4.5205">
        <ele>1084.5</ele>
        <time>2020-07-11T08:53:51Z</time>
      </trkpt>
      <trkpt lat="45.26127" lon="4.52034">
        <ele>1083.06</ele>
        <time>2020-07-11T08:54:07Z</time>
      </trkpt>
      <trkpt lat="45.26116" lon="4.52018">
        <ele>1076.33</ele>
        <time>2020-07-11T08:54:23Z</time>
      </trkpt>
      <trkpt lat="45.26099" lon="4.52002">
        <ele>1063.36</ele>
        <time>2020-07-11T08:54:35Z</time>
      </trkpt>
      <trkpt lat="45.26089" lon="4.51988">
        <ele>1059.51</ele>
        <time>2020-07-11T08:54:51Z</time>
      </trkpt>
      <trkpt lat="45.26082" lon="4.51975">
        <ele>1063.84</ele>
        <time>2020-07-11T08:55:04Z</time>
      </trkpt>
      <trkpt lat="45.2607" lon="4.51949">
        <ele>1065.28</ele>
        <time>2020-07-11T08:55:26Z</time>
      </trkpt>
      <trkpt lat="45.26052" lon="4.51927">
        <ele>1064.32</ele>
        <time>2020-07-11T08:55:43Z</time>
      </trkpt>
      <trkpt lat="45.26042" lon="4.51918">
        <ele>1070.08</ele>
        <time>2020-07-11T08:56:00Z</time>
      </trkpt>
      <trkpt lat="45.26031" lon="4.51912">
        <ele>1078.26</ele>
        <time>2020-07-11T08:56:15Z</time>
      </trkpt>
      <trkpt lat="45.26016" lon="4.51898">
        <ele>1084.02</ele>
        <time>2020-07-11T08:56:32Z</time>
      </trkpt>
      <trkpt lat="45.26012" lon="4.51893">
        <ele>1086.43</ele>
        <time>2020-07-11T08:56:48Z</time>
      </trkpt>
      <trkpt lat="45.2601" lon="4.5189">
        <ele>1088.35</ele>
        <time>2020-07-11T08:57:05Z</time>
      </trkpt>
      <trkpt lat="45.26005" lon="4.51885">
        <ele>1091.23</ele>
        <time>2020-07-11T08:57:21Z</time>
      </trkpt>
      <trkpt lat="45.25996" lon="4.51874">
        <ele>1096.04</ele>
        <time>2020-07-11T08:57:41Z</time>
      </trkpt>
      <trkpt lat="45.25966" lon="4.51861">
        <ele>1099.89</ele>
        <time>2020-07-11T08:57:58Z</time>
      </trkpt>
      <trkpt lat="45.2593" lon="4.51843">
        <ele>1097</ele>
        <time>2020-07-11T08:58:16Z</time>
      </trkpt>
      <trkpt lat="45.25928" lon="4.51839">
        <ele>1096.52</ele>
        <time>2020-07-11T08:58:36Z</time>
      </trkpt>
      <trkpt lat="45.25925" lon="4.51836">
        <ele>1097.96</ele>
        <time>2020-07-11T08:58:55Z</time>
      </trkpt>
      <trkpt lat="45.25899" lon="4.51828">
        <ele>1104.21</ele>
        <time>2020-07-11T08:59:13Z</time>
      </trkpt>
      <trkpt lat="45.25884" lon="4.51823">
        <ele>1107.58</ele>
        <time>2020-07-11T08:59:34Z</time>
      </trkpt>
      <trkpt lat="45.25839" lon="4.51805">
        <ele>1103.73</ele>
        <time>2020-07-11T08:59:52Z</time>
      </trkpt>
      <trkpt lat="45.25827" lon="4.51791">
        <ele>1111.9</ele>
        <time>2020-07-11T09:00:07Z</time>
      </trkpt>
      <trkpt lat="45.25818" lon="4.51775">
        <ele>1117.67</ele>
        <time>2020-07-11T09:00:24Z</time>
      </trkpt>
      <trkpt lat="45.25809" lon="4.51757">
        <ele>1124.88</ele>
        <time>2020-07-11T09:00:41Z</time>
      </trkpt>
      <trkpt lat="45.25804" lon="4.51745">
        <ele>1128.24</ele>
        <time>2020-07-11T09:00:55Z</time>
      </trkpt>
      <trkpt lat="45.25803" lon="4.5174">
        <ele>1130.65</ele>
        <time>2020-07-11T09:01:08Z</time>
      </trkpt>
      <trkpt lat="45.25803" lon="4.51724">
        <ele>1139.3</ele>
        <time>2020-07-11T09:01:22Z</time>
      </trkpt>
      <trkpt lat="45.25805" lon="4.51708">
        <ele>1149.39</ele>
        <time>2020-07-11T09:01:34Z</time>
      </trkpt>
      <trkpt lat="45.25803" lon="4.51684">
        <ele>1155.64</ele>
        <time>2020-07-11T09:01:50Z</time>
      </trkpt>
      <trkpt lat="45.25801" lon="4.51673">
        <ele>1157.56</ele>
        <time>2020-07-11T09:02:04Z</time>
      </trkpt>
      <trkpt lat="45.25804" lon="4.5165">
        <ele>1162.85</ele>
        <time>2020-07-11T09:02:19Z</time>
      </trkpt>
      <trkpt lat="45.25806" lon="4.5163">
        <ele>1161.89</ele>
        <time>2020-07-11T09:02:26Z</time>
      </trkpt>
      <trkpt lat="45.25796" lon="4.51598">
        <ele>1149.39</ele>
        <time>2020-07-11T09:02:42Z</time>
      </trkpt>
      <trkpt lat="45.25791" lon="4.51569">
        <ele>1141.7</ele>
        <time>2020-07-11T09:02:59Z</time>
      </trkpt>
      <trkpt lat="45.25797" lon="4.51553">
        <ele>1146.03</ele>
        <time>2020-07-11T09:03:14Z</time>
      </trkpt>
      <trkpt lat="45.25798" lon="4.51539">
        <ele>1149.39</ele>
        <time>2020-07-11T09:03:24Z</time>
      </trkpt>
      <trkpt lat="45.25806" lon="4.51527">
        <ele>1156.6</ele>
        <time>2020-07-11T09:03:39Z</time>
      </trkpt>
      <trkpt lat="45.25811" lon="4.51518">
        <ele>1163.33</ele>
        <time>2020-07-11T09:03:52Z</time>
      </trkpt>
      <trkpt lat="45.25814" lon="4.51492">
        <ele>1161.89</ele>
        <time>2020-07-11T09:04:06Z</time>
      </trkpt>
      <trkpt lat="45.25812" lon="4.51477">
        <ele>1158.05</ele>
        <time>2020-07-11T09:04:13Z</time>
      </trkpt>
      <trkpt lat="45.25802" lon="4.51441">
        <ele>1143.63</ele>
        <time>2020-07-11T09:04:30Z</time>
      </trkpt>
      <trkpt lat="45.25806" lon="4.51419">
        <ele>1140.26</ele>
        <time>2020-07-11T09:04:45Z</time>
      </trkpt>
      <trkpt lat="45.2581" lon="4.51394">
        <ele>1140.74</ele>
        <time>2020-07-11T09:05:03Z</time>
      </trkpt>
      <trkpt lat="45.25816" lon="4.51367">
        <ele>1143.63</ele>
        <time>2020-07-11T09:05:21Z</time>
      </trkpt>
      <trkpt lat="45.25816" lon="4.51349">
        <ele>1150.35</ele>
        <time>2020-07-11T09:05:39Z</time>
      </trkpt>
      <trkpt lat="45.25814" lon="4.51324">
        <ele>1152.76</ele>
        <time>2020-07-11T09:05:54Z</time>
      </trkpt>
      <trkpt lat="45.2581" lon="4.51313">
        <ele>1152.76</ele>
        <time>2020-07-11T09:06:10Z</time>
      </trkpt>
      <trkpt lat="45.25806" lon="4.51304">
        <ele>1153.72</ele>
        <time>2020-07-11T09:06:26Z</time>
      </trkpt>
      <trkpt lat="45.25803" lon="4.5129">
        <ele>1163.81</ele>
        <time>2020-07-11T09:06:41Z</time>
      </trkpt>
      <trkpt lat="45.25795" lon="4.51269">
        <ele>1172.95</ele>
        <time>2020-07-11T09:07:00Z</time>
      </trkpt>
      <trkpt lat="45.25788" lon="4.51259">
        <ele>1178.23</ele>
        <time>2020-07-11T09:07:14Z</time>
      </trkpt>
      <trkpt lat="45.25784" lon="4.51245">
        <ele>1184</ele>
        <time>2020-07-11T09:07:29Z</time>
      </trkpt>
      <trkpt lat="45.25774" lon="4.5123">
        <ele>1185.44</ele>
        <time>2020-07-11T09:07:47Z</time>
      </trkpt>
      <trkpt lat="45.25766" lon="4.51218">
        <ele>1188.33</ele>
        <time>2020-07-11T09:08:00Z</time>
      </trkpt>
      <trkpt lat="45.25758" lon="4.51205">
        <ele>1187.37</ele>
        <time>2020-07-11T09:08:14Z</time>
      </trkpt>
      <trkpt lat="45.25738" lon="4.51196">
        <ele>1181.12</ele>
        <time>2020-07-11T09:08:29Z</time>
      </trkpt>
      <trkpt lat="45.25719" lon="4.5119">
        <ele>1172.95</ele>
        <time>2020-07-11T09:08:47Z</time>
      </trkpt>
      <trkpt lat="45.25687" lon="4.51192">
        <ele>1163.33</ele>
        <time>2020-07-11T09:09:08Z</time>
      </trkpt>
      <trkpt lat="45.25673" lon="4.512">
        <ele>1162.85</ele>
        <time>2020-07-11T09:09:28Z</time>
      </trkpt>
      <trkpt lat="45.25662" lon="4.51209">
        <ele>1166.7</ele>
        <time>2020-07-11T09:09:41Z</time>
      </trkpt>
      <trkpt lat="45.25644" lon="4.51226">
        <ele>1171.02</ele>
        <time>2020-07-11T09:10:01Z</time>
      </trkpt>
      <trkpt lat="45.25635" lon="4.5124">
        <ele>1173.43</ele>
        <time>2020-07-11T09:10:19Z</time>
      </trkpt>
      <trkpt lat="45.2563" lon="4.51249">
        <ele>1175.35</ele>
        <time>2020-07-11T09:10:37Z</time>
      </trkpt>
      <trkpt lat="45.2564" lon="4.51268">
        <ele>1179.19</ele>
        <time>2020-07-11T09:10:56Z</time>
      </trkpt>
      <trkpt lat="45.25644" lon="4.51297">
        <ele>1176.31</ele>
        <time>2020-07-11T09:11:15Z</time>
      </trkpt>
      <trkpt lat="45.25641" lon="4.51312">
        <ele>1177.75</ele>
        <time>2020-07-11T09:11:30Z</time>
      </trkpt>
      <trkpt lat="45.25628" lon="4.51326">
        <ele>1179.67</ele>
        <time>2020-07-11T09:11:48Z</time>
      </trkpt>
      <trkpt lat="45.25618" lon="4.51343">
        <ele>1184.48</ele>
        <time>2020-07-11T09:12:07Z</time>
      </trkpt>
      <trkpt lat="45.2561" lon="4.51372">
        <ele>1190.25</ele>
        <time>2020-07-11T09:12:28Z</time>
      </trkpt>
      <trkpt lat="45.25607" lon="4.51384">
        <ele>1193.61</ele>
        <time>2020-07-11T09:12:42Z</time>
      </trkpt>
      <trkpt lat="45.25604" lon="4.51397">
        <ele>1196.5</ele>
        <time>2020-07-11T09:12:57Z</time>
      </trkpt>
      <trkpt lat="45.25602" lon="4.51398">
        <ele>1196.5</ele>
        <time>2020-07-11T09:13:20Z</time>
      </trkpt>
      <trkpt lat="45.25601" lon="4.514">
        <ele>1196.02</ele>
        <time>2020-07-11T09:13:46Z</time>
      </trkpt>
      <trkpt lat="45.25601" lon="4.51402">
        <ele>1196.02</ele>
        <time>2020-07-11T09:14:07Z</time>
      </trkpt>
      <trkpt lat="45.25601" lon="4.51402">
        <ele>1196.02</ele>
        <time>2020-07-11T09:14:31Z</time>
      </trkpt>
      <trkpt lat="45.256" lon="4.514">
        <ele>1195.54</ele>
        <time>2020-07-11T09:14:53Z</time>
      </trkpt>
      <trkpt lat="45.25599" lon="4.51399">
        <ele>1195.54</ele>
        <time>2020-07-11T09:15:15Z</time>
      </trkpt>
      <trkpt lat="45.25598" lon="4.51399">
        <ele>1196.02</ele>
        <time>2020-07-11T09:15:36Z</time>
      </trkpt>
      <trkpt lat="45.25599" lon="4.51402">
        <ele>1195.54</ele>
        <time>2020-07-11T09:15:51Z</time>
      </trkpt>
      <trkpt lat="45.25596" lon="4.51413">
        <ele>1196.5</ele>
        <time>2020-07-11T09:15:59Z</time>
      </trkpt>
      <trkpt lat="45.25589" lon="4.51428">
        <ele>1201.3</ele>
        <time>2020-07-11T09:16:15Z</time>
      </trkpt>
      <trkpt lat="45.25581" lon="4.51441">
        <ele>1201.3</ele>
        <time>2020-07-11T09:16:29Z</time>
      </trkpt>
      <trkpt lat="45.25563" lon="4.51458">
        <ele>1206.59</ele>
        <time>2020-07-11T09:16:46Z</time>
      </trkpt>
      <trkpt lat="45.25548" lon="4.51461">
        <ele>1209</ele>
        <time>2020-07-11T09:17:02Z</time>
      </trkpt>
      <trkpt lat="45.25542" lon="4.51447">
        <ele>1208.51</ele>
        <time>2020-07-11T09:17:17Z</time>
      </trkpt>
      <trkpt lat="45.25542" lon="4.51438">
        <ele>1209.48</ele>
        <time>2020-07-11T09:17:25Z</time>
      </trkpt>
      <trkpt lat="45.25547" lon="4.51421">
        <ele>1212.84</ele>
        <time>2020-07-11T09:17:41Z</time>
      </trkpt>
      <trkpt lat="45.25548" lon="4.51421">
        <ele>1213.32</ele>
        <time>2020-07-11T09:17:46Z</time>
      </trkpt>
      <trkpt lat="45.25544" lon="4.51401">
        <ele>1220.53</ele>
        <time>2020-07-11T09:18:00Z</time>
      </trkpt>
      <trkpt lat="45.25533" lon="4.51378">
        <ele>1229.18</ele>
        <time>2020-07-11T09:18:17Z</time>
      </trkpt>
      <trkpt lat="45.25518" lon="4.51347">
        <ele>1234.47</ele>
        <time>2020-07-11T09:18:34Z</time>
      </trkpt>
      <trkpt lat="45.25514" lon="4.51329">
        <ele>1238.32</ele>
        <time>2020-07-11T09:18:47Z</time>
      </trkpt>
      <trkpt lat="45.25514" lon="4.5131">
        <ele>1248.41</ele>
        <time>2020-07-11T09:19:04Z</time>
      </trkpt>
      <trkpt lat="45.2552" lon="4.51295">
        <ele>1263.79</ele>
        <time>2020-07-11T09:19:21Z</time>
      </trkpt>
      <trkpt lat="45.25517" lon="4.51287">
        <ele>1264.27</ele>
        <time>2020-07-11T09:19:33Z</time>
      </trkpt>
      <trkpt lat="45.25499" lon="4.51265">
        <ele>1262.83</ele>
        <time>2020-07-11T09:19:46Z</time>
      </trkpt>
      <trkpt lat="45.25479" lon="4.51237">
        <ele>1265.71</ele>
        <time>2020-07-11T09:20:03Z</time>
      </trkpt>
      <trkpt lat="45.25463" lon="4.51217">
        <ele>1266.67</ele>
        <time>2020-07-11T09:20:18Z</time>
      </trkpt>
      <trkpt lat="45.25451" lon="4.51198">
        <ele>1267.16</ele>
        <time>2020-07-11T09:20:29Z</time>
      </trkpt>
      <trkpt lat="45.25437" lon="4.51175">
        <ele>1266.19</ele>
        <time>2020-07-11T09:20:45Z</time>
      </trkpt>
      <trkpt lat="45.25424" lon="4.51158">
        <ele>1266.19</ele>
        <time>2020-07-11T09:20:57Z</time>
      </trkpt>
      <trkpt lat="45.25422" lon="4.51149">
        <ele>1266.19</ele>
        <time>2020-07-11T09:21:03Z</time>
      </trkpt>
      <trkpt lat="45.25416" lon="4.51119">
        <ele>1266.67</ele>
        <time>2020-07-11T09:21:18Z</time>
      </trkpt>
      <trkpt lat="45.25406" lon="4.51095">
        <ele>1264.27</ele>
        <time>2020-07-11T09:21:33Z</time>
      </trkpt>
      <trkpt lat="45.25406" lon="4.51094">
        <ele>1264.27</ele>
        <time>2020-07-11T09:21:34Z</time>
      </trkpt>
      <trkpt lat="45.254" lon="4.51073">
        <ele>1264.27</ele>
        <time>2020-07-11T09:21:48Z</time>
      </trkpt>
      <trkpt lat="45.25399" lon="4.51064">
        <ele>1264.27</ele>
        <time>2020-07-11T09:21:55Z</time>
      </trkpt>
      <trkpt lat="45.25391" lon="4.51036">
        <ele>1264.27</ele>
        <time>2020-07-11T09:22:12Z</time>
      </trkpt>
      <trkpt lat="45.25385" lon="4.51016">
        <ele>1264.75</ele>
        <time>2020-07-11T09:22:24Z</time>
      </trkpt>
      <trkpt lat="45.2538" lon="4.50986">
        <ele>1264.27</ele>
        <time>2020-07-11T09:22:40Z</time>
      </trkpt>
      <trkpt lat="45.25371" lon="4.50968">
        <ele>1264.27</ele>
        <time>2020-07-11T09:22:53Z</time>
      </trkpt>
      <trkpt lat="45.25371" lon="4.50967">
        <ele>1264.27</ele>
        <time>2020-07-11T09:22:54Z</time>
      </trkpt>
      <trkpt lat="45.25361" lon="4.50944">
        <ele>1265.23</ele>
        <time>2020-07-11T09:23:08Z</time>
      </trkpt>
      <trkpt lat="45.25361" lon="4.50931">
        <ele>1265.23</ele>
        <time>2020-07-11T09:23:14Z</time>
      </trkpt>
      <trkpt lat="45.25366" lon="4.50914">
        <ele>1264.75</ele>
        <time>2020-07-11T09:23:21Z</time>
      </trkpt>
      <trkpt lat="45.25309" lon="4.50868">
        <ele>1219.57</ele>
        <time>2020-07-11T09:23:37Z</time>
      </trkpt>
      <trkpt lat="45.2532" lon="4.50841">
        <ele>1214.76</ele>
        <time>2020-07-11T09:23:51Z</time>
      </trkpt>
      <trkpt lat="45.25334" lon="4.50816">
        <ele>1211.4</ele>
        <time>2020-07-11T09:24:09Z</time>
      </trkpt>
      <trkpt lat="45.25346" lon="4.50797">
        <ele>1208.03</ele>
        <time>2020-07-11T09:24:23Z</time>
      </trkpt>
      <trkpt lat="45.25361" lon="4.50776">
        <ele>1209.48</ele>
        <time>2020-07-11T09:24:37Z</time>
      </trkpt>
      <trkpt lat="45.25376" lon="4.50759">
        <ele>1209.48</ele>
        <time>2020-07-11T09:24:51Z</time>
      </trkpt>
      <trkpt lat="45.25392" lon="4.50743">
        <ele>1211.88</ele>
        <time>2020-07-11T09:25:09Z</time>
      </trkpt>
      <trkpt lat="45.25409" lon="4.50715">
        <ele>1209</ele>
        <time>2020-07-11T09:25:24Z</time>
      </trkpt>
      <trkpt lat="45.25422" lon="4.50692">
        <ele>1210.92</ele>
        <time>2020-07-11T09:25:40Z</time>
      </trkpt>
      <trkpt lat="45.25431" lon="4.50669">
        <ele>1208.03</ele>
        <time>2020-07-11T09:25:54Z</time>
      </trkpt>
      <trkpt lat="45.25438" lon="4.50646">
        <ele>1204.67</ele>
        <time>2020-07-11T09:26:09Z</time>
      </trkpt>
      <trkpt lat="45.25438" lon="4.50645">
        <ele>1204.67</ele>
        <time>2020-07-11T09:26:10Z</time>
      </trkpt>
      <trkpt lat="45.2544" lon="4.50626">
        <ele>1205.15</ele>
        <time>2020-07-11T09:26:19Z</time>
      </trkpt>
      <trkpt lat="45.25444" lon="4.50607">
        <ele>1205.15</ele>
        <time>2020-07-11T09:26:28Z</time>
      </trkpt>
      <trkpt lat="45.25447" lon="4.50579">
        <ele>1202.75</ele>
        <time>2020-07-11T09:26:44Z</time>
      </trkpt>
      <trkpt lat="45.25444" lon="4.50563">
        <ele>1200.34</ele>
        <time>2020-07-11T09:27:01Z</time>
      </trkpt>
      <trkpt lat="45.25433" lon="4.50549">
        <ele>1197.46</ele>
        <time>2020-07-11T09:27:14Z</time>
      </trkpt>
      <trkpt lat="45.25422" lon="4.50541">
        <ele>1195.54</ele>
        <time>2020-07-11T09:27:25Z</time>
      </trkpt>
      <trkpt lat="45.25417" lon="4.50539">
        <ele>1195.06</ele>
        <time>2020-07-11T09:27:32Z</time>
      </trkpt>
      <trkpt lat="45.25406" lon="4.50521">
        <ele>1196.98</ele>
        <time>2020-07-11T09:27:49Z</time>
      </trkpt>
      <trkpt lat="45.25388" lon="4.50502">
        <ele>1196.02</ele>
        <time>2020-07-11T09:28:06Z</time>
      </trkpt>
      <trkpt lat="45.25369" lon="4.50491">
        <ele>1195.06</ele>
        <time>2020-07-11T09:28:23Z</time>
      </trkpt>
      <trkpt lat="45.2535" lon="4.50479">
        <ele>1197.46</ele>
        <time>2020-07-11T09:28:40Z</time>
      </trkpt>
      <trkpt lat="45.25333" lon="4.50469">
        <ele>1201.3</ele>
        <time>2020-07-11T09:28:57Z</time>
      </trkpt>
      <trkpt lat="45.25331" lon="4.50467">
        <ele>1201.79</ele>
        <time>2020-07-11T09:29:00Z</time>
      </trkpt>
      <trkpt lat="45.25312" lon="4.50455">
        <ele>1207.07</ele>
        <time>2020-07-11T09:29:17Z</time>
      </trkpt>
      <trkpt lat="45.25304" lon="4.50453">
        <ele>1208.51</ele>
        <time>2020-07-11T09:29:23Z</time>
      </trkpt>
      <trkpt lat="45.25288" lon="4.50444">
        <ele>1212.36</ele>
        <time>2020-07-11T09:29:38Z</time>
      </trkpt>
      <trkpt lat="45.25268" lon="4.50442">
        <ele>1214.76</ele>
        <time>2020-07-11T09:29:54Z</time>
      </trkpt>
      <trkpt lat="45.25251" lon="4.50432">
        <ele>1218.61</ele>
        <time>2020-07-11T09:30:12Z</time>
      </trkpt>
      <trkpt lat="45.25247" lon="4.50427">
        <ele>1220.53</ele>
        <time>2020-07-11T09:30:18Z</time>
      </trkpt>
      <trkpt lat="45.25242" lon="4.50419">
        <ele>1222.45</ele>
        <time>2020-07-11T09:30:23Z</time>
      </trkpt>
      <trkpt lat="45.2523" lon="4.50408">
        <ele>1225.82</ele>
        <time>2020-07-11T09:30:40Z</time>
      </trkpt>
      <trkpt lat="45.25239" lon="4.50415">
        <ele>1226.3</ele>
        <time>2020-07-11T09:30:59Z</time>
      </trkpt>
      <trkpt lat="45.25244" lon="4.50433">
        <ele>1225.34</ele>
        <time>2020-07-11T09:31:17Z</time>
      </trkpt>
      <trkpt lat="45.25246" lon="4.50443">
        <ele>1225.82</ele>
        <time>2020-07-11T09:31:26Z</time>
      </trkpt>
      <trkpt lat="45.25247" lon="4.50464">
        <ele>1230.62</ele>
        <time>2020-07-11T09:31:41Z</time>
      </trkpt>
      <trkpt lat="45.25252" lon="4.50478">
        <ele>1236.39</ele>
        <time>2020-07-11T09:31:54Z</time>
      </trkpt>
      <trkpt lat="45.25258" lon="4.50497">
        <ele>1238.8</ele>
        <time>2020-07-11T09:32:08Z</time>
      </trkpt>
      <trkpt lat="45.25263" lon="4.50517">
        <ele>1238.8</ele>
        <time>2020-07-11T09:32:23Z</time>
      </trkpt>
      <trkpt lat="45.25271" lon="4.5054">
        <ele>1236.39</ele>
        <time>2020-07-11T09:32:39Z</time>
      </trkpt>
      <trkpt lat="45.25271" lon="4.5056">
        <ele>1236.87</ele>
        <time>2020-07-11T09:32:54Z</time>
      </trkpt>
      <trkpt lat="45.25271" lon="4.50561">
        <ele>1236.39</ele>
        <time>2020-07-11T09:32:55Z</time>
      </trkpt>
      <trkpt lat="45.25269" lon="4.50582">
        <ele>1235.91</ele>
        <time>2020-07-11T09:33:10Z</time>
      </trkpt>
      <trkpt lat="45.25259" lon="4.50586">
        <ele>1236.87</ele>
        <time>2020-07-11T09:33:25Z</time>
      </trkpt>
      <trkpt lat="45.25247" lon="4.50588">
        <ele>1237.83</ele>
        <time>2020-07-11T09:33:39Z</time>
      </trkpt>
      <trkpt lat="45.25233" lon="4.5059">
        <ele>1238.8</ele>
        <time>2020-07-11T09:33:54Z</time>
      </trkpt>
      <trkpt lat="45.25224" lon="4.50594">
        <ele>1243.6</ele>
        <time>2020-07-11T09:34:11Z</time>
      </trkpt>
      <trkpt lat="45.25212" lon="4.50595">
        <ele>1245.04</ele>
        <time>2020-07-11T09:34:17Z</time>
      </trkpt>
      <trkpt lat="45.25202" lon="4.50588">
        <ele>1247.93</ele>
        <time>2020-07-11T09:34:31Z</time>
      </trkpt>
      <trkpt lat="45.25196" lon="4.50574">
        <ele>1254.66</ele>
        <time>2020-07-11T09:34:46Z</time>
      </trkpt>
      <trkpt lat="45.25187" lon="4.50556">
        <ele>1258.98</ele>
        <time>2020-07-11T09:35:02Z</time>
      </trkpt>
      <trkpt lat="45.25178" lon="4.50537">
        <ele>1264.75</ele>
        <time>2020-07-11T09:35:17Z</time>
      </trkpt>
      <trkpt lat="45.25172" lon="4.50529">
        <ele>1267.64</ele>
        <time>2020-07-11T09:35:34Z</time>
      </trkpt>
      <trkpt lat="45.2517" lon="4.5052">
        <ele>1272.44</ele>
        <time>2020-07-11T09:35:53Z</time>
      </trkpt>
      <trkpt lat="45.25159" lon="4.50503">
        <ele>1280.13</ele>
        <time>2020-07-11T09:36:10Z</time>
      </trkpt>
      <trkpt lat="45.25121" lon="4.50478">
        <ele>1275.33</ele>
        <time>2020-07-11T09:36:23Z</time>
      </trkpt>
      <trkpt lat="45.25097" lon="4.50464">
        <ele>1277.73</ele>
        <time>2020-07-11T09:36:40Z</time>
      </trkpt>
      <trkpt lat="45.25084" lon="4.50454">
        <ele>1284.94</ele>
        <time>2020-07-11T09:36:56Z</time>
      </trkpt>
      <trkpt lat="45.25071" lon="4.50447">
        <ele>1286.38</ele>
        <time>2020-07-11T09:37:14Z</time>
      </trkpt>
      <trkpt lat="45.25059" lon="4.50446">
        <ele>1291.67</ele>
        <time>2020-07-11T09:37:28Z</time>
      </trkpt>
      <trkpt lat="45.25043" lon="4.50456">
        <ele>1291.67</ele>
        <time>2020-07-11T09:37:44Z</time>
      </trkpt>
      <trkpt lat="45.25027" lon="4.50465">
        <ele>1290.71</ele>
        <time>2020-07-11T09:38:00Z</time>
      </trkpt>
      <trkpt lat="45.25018" lon="4.50478">
        <ele>1292.15</ele>
        <time>2020-07-11T09:38:13Z</time>
      </trkpt>
      <trkpt lat="45.25007" lon="4.50493">
        <ele>1290.23</ele>
        <time>2020-07-11T09:38:27Z</time>
      </trkpt>
      <trkpt lat="45.25006" lon="4.50496">
        <ele>1290.23</ele>
        <time>2020-07-11T09:38:30Z</time>
      </trkpt>
      <trkpt lat="45.24996" lon="4.50514">
        <ele>1291.67</ele>
        <time>2020-07-11T09:38:44Z</time>
      </trkpt>
      <trkpt lat="45.24991" lon="4.50527">
        <ele>1292.63</ele>
        <time>2020-07-11T09:38:56Z</time>
      </trkpt>
      <trkpt lat="45.24982" lon="4.50549">
        <ele>1294.07</ele>
        <time>2020-07-11T09:39:13Z</time>
      </trkpt>
      <trkpt lat="45.24981" lon="4.50555">
        <ele>1293.59</ele>
        <time>2020-07-11T09:39:17Z</time>
      </trkpt>
      <trkpt lat="45.24976" lon="4.50571">
        <ele>1293.11</ele>
        <time>2020-07-11T09:39:29Z</time>
      </trkpt>
      <trkpt lat="45.24969" lon="4.50592">
        <ele>1296.96</ele>
        <time>2020-07-11T09:39:43Z</time>
      </trkpt>
      <trkpt lat="45.24968" lon="4.50594">
        <ele>1296.96</ele>
        <time>2020-07-11T09:39:45Z</time>
      </trkpt>
      <trkpt lat="45.24966" lon="4.50601">
        <ele>1296.96</ele>
        <time>2020-07-11T09:39:50Z</time>
      </trkpt>
      <trkpt lat="45.24958" lon="4.50621">
        <ele>1297.44</ele>
        <time>2020-07-11T09:40:07Z</time>
      </trkpt>
      <trkpt lat="45.24952" lon="4.50626">
        <ele>1298.88</ele>
        <time>2020-07-11T09:40:22Z</time>
      </trkpt>
      <trkpt lat="45.24928" lon="4.50642">
        <ele>1303.69</ele>
        <time>2020-07-11T09:40:41Z</time>
      </trkpt>
      <trkpt lat="45.24926" lon="4.50645">
        <ele>1304.65</ele>
        <time>2020-07-11T09:40:44Z</time>
      </trkpt>
      <trkpt lat="45.24913" lon="4.50659">
        <ele>1309.45</ele>
        <time>2020-07-11T09:40:57Z</time>
      </trkpt>
      <trkpt lat="45.24905" lon="4.50673">
        <ele>1313.3</ele>
        <time>2020-07-11T09:41:08Z</time>
      </trkpt>
      <trkpt lat="45.24903" lon="4.50686">
        <ele>1312.34</ele>
        <time>2020-07-11T09:41:18Z</time>
      </trkpt>
      <trkpt lat="45.24902" lon="4.50718">
        <ele>1310.9</ele>
        <time>2020-07-11T09:41:37Z</time>
      </trkpt>
      <trkpt lat="45.249" lon="4.50729">
        <ele>1309.93</ele>
        <time>2020-07-11T09:41:44Z</time>
      </trkpt>
      <trkpt lat="45.249" lon="4.50753">
        <ele>1309.45</ele>
        <time>2020-07-11T09:41:57Z</time>
      </trkpt>
      <trkpt lat="45.24899" lon="4.5076">
        <ele>1309.45</ele>
        <time>2020-07-11T09:42:01Z</time>
      </trkpt>
      <trkpt lat="45.24894" lon="4.50775">
        <ele>1310.41</ele>
        <time>2020-07-11T09:42:18Z</time>
      </trkpt>
      <trkpt lat="45.24895" lon="4.50775">
        <ele>1310.9</ele>
        <time>2020-07-11T09:42:35Z</time>
      </trkpt>
      <trkpt lat="45.24894" lon="4.5078">
        <ele>1311.86</ele>
        <time>2020-07-11T09:42:52Z</time>
      </trkpt>
      <trkpt lat="45.24891" lon="4.50789">
        <ele>1311.38</ele>
        <time>2020-07-11T09:42:59Z</time>
      </trkpt>
      <trkpt lat="45.24881" lon="4.50806">
        <ele>1311.86</ele>
        <time>2020-07-11T09:43:13Z</time>
      </trkpt>
      <trkpt lat="45.24865" lon="4.50826">
        <ele>1308.49</ele>
        <time>2020-07-11T09:43:30Z</time>
      </trkpt>
      <trkpt lat="45.24845" lon="4.50831">
        <ele>1305.13</ele>
        <time>2020-07-11T09:43:47Z</time>
      </trkpt>
      <trkpt lat="45.24826" lon="4.50832">
        <ele>1303.2</ele>
        <time>2020-07-11T09:44:03Z</time>
      </trkpt>
      <trkpt lat="45.24808" lon="4.5084">
        <ele>1303.69</ele>
        <time>2020-07-11T09:44:20Z</time>
      </trkpt>
      <trkpt lat="45.24792" lon="4.50849">
        <ele>1303.69</ele>
        <time>2020-07-11T09:44:35Z</time>
      </trkpt>
      <trkpt lat="45.24778" lon="4.5086">
        <ele>1303.2</ele>
        <time>2020-07-11T09:44:49Z</time>
      </trkpt>
      <trkpt lat="45.24766" lon="4.50866">
        <ele>1304.65</ele>
        <time>2020-07-11T09:45:03Z</time>
      </trkpt>
      <trkpt lat="45.24749" lon="4.50875">
        <ele>1304.65</ele>
        <time>2020-07-11T09:45:18Z</time>
      </trkpt>
      <trkpt lat="45.2473" lon="4.50876">
        <ele>1305.13</ele>
        <time>2020-07-11T09:45:35Z</time>
      </trkpt>
      <trkpt lat="45.24722" lon="4.5088">
        <ele>1305.13</ele>
        <time>2020-07-11T09:45:46Z</time>
      </trkpt>
      <trkpt lat="45.24729" lon="4.50897">
        <ele>1307.53</ele>
        <time>2020-07-11T09:46:02Z</time>
      </trkpt>
      <trkpt lat="45.24743" lon="4.50916">
        <ele>1309.93</ele>
        <time>2020-07-11T09:46:18Z</time>
      </trkpt>
      <trkpt lat="45.24749" lon="4.50934">
        <ele>1312.82</ele>
        <time>2020-07-11T09:46:31Z</time>
      </trkpt>
      <trkpt lat="45.24756" lon="4.50953">
        <ele>1313.3</ele>
        <time>2020-07-11T09:46:45Z</time>
      </trkpt>
      <trkpt lat="45.24759" lon="4.50979">
        <ele>1314.74</ele>
        <time>2020-07-11T09:47:01Z</time>
      </trkpt>
      <trkpt lat="45.2476" lon="4.51">
        <ele>1315.7</ele>
        <time>2020-07-11T09:47:15Z</time>
      </trkpt>
      <trkpt lat="45.24762" lon="4.51021">
        <ele>1316.18</ele>
        <time>2020-07-11T09:47:29Z</time>
      </trkpt>
      <trkpt lat="45.24766" lon="4.51043">
        <ele>1316.66</ele>
        <time>2020-07-11T09:47:43Z</time>
      </trkpt>
      <trkpt lat="45.24771" lon="4.51068">
        <ele>1318.59</ele>
        <time>2020-07-11T09:48:00Z</time>
      </trkpt>
      <trkpt lat="45.24777" lon="4.51087">
        <ele>1322.43</ele>
        <time>2020-07-11T09:48:15Z</time>
      </trkpt>
      <trkpt lat="45.24776" lon="4.51104">
        <ele>1325.8</ele>
        <time>2020-07-11T09:48:28Z</time>
      </trkpt>
      <trkpt lat="45.24771" lon="4.51128">
        <ele>1326.76</ele>
        <time>2020-07-11T09:48:44Z</time>
      </trkpt>
      <trkpt lat="45.24766" lon="4.51153">
        <ele>1328.68</ele>
        <time>2020-07-11T09:49:01Z</time>
      </trkpt>
      <trkpt lat="45.24771" lon="4.51176">
        <ele>1330.6</ele>
        <time>2020-07-11T09:49:18Z</time>
      </trkpt>
      <trkpt lat="45.24776" lon="4.51197">
        <ele>1332.04</ele>
        <time>2020-07-11T09:49:33Z</time>
      </trkpt>
      <trkpt lat="45.24777" lon="4.51201">
        <ele>1332.52</ele>
        <time>2020-07-11T09:49:36Z</time>
      </trkpt>
      <trkpt lat="45.24784" lon="4.51222">
        <ele>1333.97</ele>
        <time>2020-07-11T09:49:50Z</time>
      </trkpt>
      <trkpt lat="45.24793" lon="4.5124">
        <ele>1335.89</ele>
        <time>2020-07-11T09:50:05Z</time>
      </trkpt>
      <trkpt lat="45.24809" lon="4.51256">
        <ele>1334.45</ele>
        <time>2020-07-11T09:50:22Z</time>
      </trkpt>
      <trkpt lat="45.24827" lon="4.51259">
        <ele>1331.08</ele>
        <time>2020-07-11T09:50:38Z</time>
      </trkpt>
      <trkpt lat="45.2483" lon="4.51263">
        <ele>1329.64</ele>
        <time>2020-07-11T09:50:51Z</time>
      </trkpt>
      <trkpt lat="45.2483" lon="4.51263">
        <ele>1329.16</ele>
        <time>2020-07-11T09:51:10Z</time>
      </trkpt>
      <trkpt lat="45.2483" lon="4.51262">
        <ele>1329.64</ele>
        <time>2020-07-11T09:51:25Z</time>
      </trkpt>
      <trkpt lat="45.24831" lon="4.51262">
        <ele>1329.64</ele>
        <time>2020-07-11T09:51:43Z</time>
      </trkpt>
      <trkpt lat="45.24831" lon="4.51263">
        <ele>1329.64</ele>
        <time>2020-07-11T09:52:05Z</time>
      </trkpt>
      <trkpt lat="45.24833" lon="4.51269">
        <ele>1330.6</ele>
        <time>2020-07-11T09:52:26Z</time>
      </trkpt>
      <trkpt lat="45.24844" lon="4.5128">
        <ele>1332.04</ele>
        <time>2020-07-11T09:52:43Z</time>
      </trkpt>
      <trkpt lat="45.24858" lon="4.51291">
        <ele>1331.08</ele>
        <time>2020-07-11T09:53:00Z</time>
      </trkpt>
      <trkpt lat="45.24864" lon="4.51301">
        <ele>1331.08</ele>
        <time>2020-07-11T09:53:11Z</time>
      </trkpt>
      <trkpt lat="45.24869" lon="4.51309">
        <ele>1332.04</ele>
        <time>2020-07-11T09:53:25Z</time>
      </trkpt>
      <trkpt lat="45.2487" lon="4.51311">
        <ele>1332.04</ele>
        <time>2020-07-11T09:53:27Z</time>
      </trkpt>
      <trkpt lat="45.24876" lon="4.51335">
        <ele>1332.52</ele>
        <time>2020-07-11T09:53:43Z</time>
      </trkpt>
      <trkpt lat="45.24881" lon="4.51352">
        <ele>1332.04</ele>
        <time>2020-07-11T09:53:58Z</time>
      </trkpt>
      <trkpt lat="45.24883" lon="4.51361">
        <ele>1331.08</ele>
        <time>2020-07-11T09:54:05Z</time>
      </trkpt>
      <trkpt lat="45.24893" lon="4.5138">
        <ele>1330.12</ele>
        <time>2020-07-11T09:54:21Z</time>
      </trkpt>
      <trkpt lat="45.24901" lon="4.51397">
        <ele>1331.56</ele>
        <time>2020-07-11T09:54:38Z</time>
      </trkpt>
      <trkpt lat="45.24902" lon="4.51404">
        <ele>1332.04</ele>
        <time>2020-07-11T09:54:43Z</time>
      </trkpt>
      <trkpt lat="45.24906" lon="4.51427">
        <ele>1334.45</ele>
        <time>2020-07-11T09:54:58Z</time>
      </trkpt>
      <trkpt lat="45.24905" lon="4.51448">
        <ele>1333.49</ele>
        <time>2020-07-11T09:55:13Z</time>
      </trkpt>
      <trkpt lat="45.24909" lon="4.51466">
        <ele>1329.64</ele>
        <time>2020-07-11T09:55:26Z</time>
      </trkpt>
      <trkpt lat="45.24916" lon="4.51483">
        <ele>1327.72</ele>
        <time>2020-07-11T09:55:42Z</time>
      </trkpt>
      <trkpt lat="45.24917" lon="4.51487">
        <ele>1327.72</ele>
        <time>2020-07-11T09:55:44Z</time>
      </trkpt>
      <trkpt lat="45.24919" lon="4.51502">
        <ele>1328.2</ele>
        <time>2020-07-11T09:55:59Z</time>
      </trkpt>
      <trkpt lat="45.2492" lon="4.51523">
        <ele>1324.83</ele>
        <time>2020-07-11T09:56:13Z</time>
      </trkpt>
      <trkpt lat="45.24925" lon="4.51542">
        <ele>1321.95</ele>
        <time>2020-07-11T09:56:28Z</time>
      </trkpt>
      <trkpt lat="45.24928" lon="4.5156">
        <ele>1320.99</ele>
        <time>2020-07-11T09:56:42Z</time>
      </trkpt>
      <trkpt lat="45.24932" lon="4.51577">
        <ele>1318.59</ele>
        <time>2020-07-11T09:56:52Z</time>
      </trkpt>
      <trkpt lat="45.24936" lon="4.51604">
        <ele>1317.14</ele>
        <time>2020-07-11T09:57:08Z</time>
      </trkpt>
      <trkpt lat="45.24936" lon="4.51632">
        <ele>1316.18</ele>
        <time>2020-07-11T09:57:27Z</time>
      </trkpt>
      <trkpt lat="45.24939" lon="4.51655">
        <ele>1311.38</ele>
        <time>2020-07-11T09:57:41Z</time>
      </trkpt>
      <trkpt lat="45.24946" lon="4.51674">
        <ele>1307.05</ele>
        <time>2020-07-11T09:57:50Z</time>
      </trkpt>
      <trkpt lat="45.2495" lon="4.51682">
        <ele>1307.53</ele>
        <time>2020-07-11T09:57:56Z</time>
      </trkpt>
      <trkpt lat="45.24952" lon="4.51703">
        <ele>1308.01</ele>
        <time>2020-07-11T09:58:07Z</time>
      </trkpt>
      <trkpt lat="45.24954" lon="4.51724">
        <ele>1309.93</ele>
        <time>2020-07-11T09:58:23Z</time>
      </trkpt>
      <trkpt lat="45.24952" lon="4.51736">
        <ele>1311.86</ele>
        <time>2020-07-11T09:58:34Z</time>
      </trkpt>
      <trkpt lat="45.24946" lon="4.51754">
        <ele>1309.93</ele>
        <time>2020-07-11T09:58:47Z</time>
      </trkpt>
      <trkpt lat="45.24943" lon="4.51756">
        <ele>1310.41</ele>
        <time>2020-07-11T09:58:52Z</time>
      </trkpt>
      <trkpt lat="45.24926" lon="4.51769">
        <ele>1307.05</ele>
        <time>2020-07-11T09:59:09Z</time>
      </trkpt>
      <trkpt lat="45.2491" lon="4.51779">
        <ele>1305.61</ele>
        <time>2020-07-11T09:59:23Z</time>
      </trkpt>
      <trkpt lat="45.24898" lon="4.51788">
        <ele>1304.17</ele>
        <time>2020-07-11T09:59:38Z</time>
      </trkpt>
      <trkpt lat="45.24876" lon="4.51802">
        <ele>1298.4</ele>
        <time>2020-07-11T09:59:59Z</time>
      </trkpt>
      <trkpt lat="45.24858" lon="4.51809">
        <ele>1294.55</ele>
        <time>2020-07-11T10:00:13Z</time>
      </trkpt>
      <trkpt lat="45.24848" lon="4.51814">
        <ele>1292.63</ele>
        <time>2020-07-11T10:00:21Z</time>
      </trkpt>
      <trkpt lat="45.24824" lon="4.51824">
        <ele>1287.82</ele>
        <time>2020-07-11T10:00:38Z</time>
      </trkpt>
      <trkpt lat="45.24817" lon="4.51824">
        <ele>1286.38</ele>
        <time>2020-07-11T10:00:45Z</time>
      </trkpt>
      <trkpt lat="45.24803" lon="4.51828">
        <ele>1283.98</ele>
        <time>2020-07-11T10:00:59Z</time>
      </trkpt>
      <trkpt lat="45.24788" lon="4.51837">
        <ele>1281.57</ele>
        <time>2020-07-11T10:01:13Z</time>
      </trkpt>
      <trkpt lat="45.24768" lon="4.51843">
        <ele>1272.92</ele>
        <time>2020-07-11T10:01:29Z</time>
      </trkpt>
      <trkpt lat="45.24746" lon="4.51858">
        <ele>1266.67</ele>
        <time>2020-07-11T10:01:47Z</time>
      </trkpt>
      <trkpt lat="45.24726" lon="4.51869">
        <ele>1265.23</ele>
        <time>2020-07-11T10:02:04Z</time>
      </trkpt>
      <trkpt lat="45.2472" lon="4.51872">
        <ele>1264.27</ele>
        <time>2020-07-11T10:02:09Z</time>
      </trkpt>
      <trkpt lat="45.24698" lon="4.51891">
        <ele>1261.87</ele>
        <time>2020-07-11T10:02:29Z</time>
      </trkpt>
      <trkpt lat="45.24683" lon="4.51902">
        <ele>1260.91</ele>
        <time>2020-07-11T10:02:42Z</time>
      </trkpt>
      <trkpt lat="45.24664" lon="4.51918">
        <ele>1259.94</ele>
        <time>2020-07-11T10:02:59Z</time>
      </trkpt>
      <trkpt lat="45.2466" lon="4.51922">
        <ele>1259.46</ele>
        <time>2020-07-11T10:03:03Z</time>
      </trkpt>
      <trkpt lat="45.24649" lon="4.51934">
        <ele>1258.98</ele>
        <time>2020-07-11T10:03:16Z</time>
      </trkpt>
      <trkpt lat="45.24643" lon="4.51934">
        <ele>1259.46</ele>
        <time>2020-07-11T10:03:20Z</time>
      </trkpt>
      <trkpt lat="45.24629" lon="4.51938">
        <ele>1259.46</ele>
        <time>2020-07-11T10:03:35Z</time>
      </trkpt>
      <trkpt lat="45.24625" lon="4.51936">
        <ele>1259.94</ele>
        <time>2020-07-11T10:03:51Z</time>
      </trkpt>
      <trkpt lat="45.24621" lon="4.51943">
        <ele>1261.39</ele>
        <time>2020-07-11T10:04:05Z</time>
      </trkpt>
      <trkpt lat="45.24621" lon="4.51945">
        <ele>1261.39</ele>
        <time>2020-07-11T10:04:06Z</time>
      </trkpt>
      <trkpt lat="45.2462" lon="4.51961">
        <ele>1267.64</ele>
        <time>2020-07-11T10:04:20Z</time>
      </trkpt>
      <trkpt lat="45.24621" lon="4.51966">
        <ele>1268.6</ele>
        <time>2020-07-11T10:04:34Z</time>
      </trkpt>
      <trkpt lat="45.24621" lon="4.51974">
        <ele>1268.12</ele>
        <time>2020-07-11T10:04:48Z</time>
      </trkpt>
      <trkpt lat="45.24618" lon="4.51974">
        <ele>1267.16</ele>
        <time>2020-07-11T10:05:04Z</time>
      </trkpt>
      <trkpt lat="45.24618" lon="4.51974">
        <ele>1267.64</ele>
        <time>2020-07-11T10:05:25Z</time>
      </trkpt>
      <trkpt lat="45.24618" lon="4.51974">
        <ele>1266.67</ele>
        <time>2020-07-11T10:05:41Z</time>
      </trkpt>
      <trkpt lat="45.24616" lon="4.51973">
        <ele>1266.67</ele>
        <time>2020-07-11T10:05:56Z</time>
      </trkpt>
      <trkpt lat="45.24617" lon="4.51975">
        <ele>1266.67</ele>
        <time>2020-07-11T10:06:08Z</time>
      </trkpt>
      <trkpt lat="45.24619" lon="4.51975">
        <ele>1268.12</ele>
        <time>2020-07-11T10:06:25Z</time>
      </trkpt>
      <trkpt lat="45.24618" lon="4.51974">
        <ele>1267.64</ele>
        <time>2020-07-11T10:06:50Z</time>
      </trkpt>
      <trkpt lat="45.24617" lon="4.51975">
        <ele>1267.16</ele>
        <time>2020-07-11T10:07:10Z</time>
      </trkpt>
      <trkpt lat="45.24617" lon="4.51976">
        <ele>1267.16</ele>
        <time>2020-07-11T10:07:30Z</time>
      </trkpt>
      <trkpt lat="45.24616" lon="4.51976">
        <ele>1267.16</ele>
        <time>2020-07-11T10:07:53Z</time>
      </trkpt>
      <trkpt lat="45.24617" lon="4.51974">
        <ele>1266.67</ele>
        <time>2020-07-11T10:08:16Z</time>
      </trkpt>
      <trkpt lat="45.24617" lon="4.51974">
        <ele>1266.19</ele>
        <time>2020-07-11T10:08:37Z</time>
      </trkpt>
      <trkpt lat="45.24617" lon="4.51975">
        <ele>1266.19</ele>
        <time>2020-07-11T10:09:02Z</time>
      </trkpt>
      <trkpt lat="45.24617" lon="4.51976">
        <ele>1266.19</ele>
        <time>2020-07-11T10:09:26Z</time>
      </trkpt>
      <trkpt lat="45.24616" lon="4.51976">
        <ele>1266.67</ele>
        <time>2020-07-11T10:09:54Z</time>
      </trkpt>
      <trkpt lat="45.24617" lon="4.5198">
        <ele>1267.64</ele>
        <time>2020-07-11T10:10:13Z</time>
      </trkpt>
      <trkpt lat="45.24618" lon="4.5198">
        <ele>1268.12</ele>
        <time>2020-07-11T10:10:37Z</time>
      </trkpt>
      <trkpt lat="45.24619" lon="4.51981">
        <ele>1268.12</ele>
        <time>2020-07-11T10:10:57Z</time>
      </trkpt>
      <trkpt lat="45.24619" lon="4.51978">
        <ele>1265.23</ele>
        <time>2020-07-11T10:11:15Z</time>
      </trkpt>
      <trkpt lat="45.24618" lon="4.51978">
        <ele>1263.31</ele>
        <time>2020-07-11T10:11:34Z</time>
      </trkpt>
      <trkpt lat="45.24619" lon="4.51978">
        <ele>1260.91</ele>
        <time>2020-07-11T10:11:52Z</time>
      </trkpt>
      <trkpt lat="45.24621" lon="4.51978">
        <ele>1261.39</ele>
        <time>2020-07-11T10:12:15Z</time>
      </trkpt>
      <trkpt lat="45.2462" lon="4.51977">
        <ele>1263.79</ele>
        <time>2020-07-11T10:12:40Z</time>
      </trkpt>
      <trkpt lat="45.24619" lon="4.51976">
        <ele>1263.79</ele>
        <time>2020-07-11T10:13:07Z</time>
      </trkpt>
      <trkpt lat="45.24619" lon="4.51975">
        <ele>1263.31</ele>
        <time>2020-07-11T10:13:35Z</time>
      </trkpt>
      <trkpt lat="45.24619" lon="4.51974">
        <ele>1264.75</ele>
        <time>2020-07-11T10:14:01Z</time>
      </trkpt>
      <trkpt lat="45.24618" lon="4.51974">
        <ele>1266.67</ele>
        <time>2020-07-11T10:14:29Z</time>
      </trkpt>
      <trkpt lat="45.24618" lon="4.51974">
        <ele>1266.67</ele>
        <time>2020-07-11T10:14:46Z</time>
      </trkpt>
      <trkpt lat="45.24619" lon="4.51973">
        <ele>1266.19</ele>
        <time>2020-07-11T10:15:03Z</time>
      </trkpt>
      <trkpt lat="45.24619" lon="4.51974">
        <ele>1263.31</ele>
        <time>2020-07-11T10:15:26Z</time>
      </trkpt>
      <trkpt lat="45.24618" lon="4.51974">
        <ele>1261.87</ele>
        <time>2020-07-11T10:15:49Z</time>
      </trkpt>
      <trkpt lat="45.24617" lon="4.51973">
        <ele>1260.91</ele>
        <time>2020-07-11T10:16:15Z</time>
      </trkpt>
      <trkpt lat="45.24618" lon="4.51974">
        <ele>1263.79</ele>
        <time>2020-07-11T10:16:37Z</time>
      </trkpt>
      <trkpt lat="45.24617" lon="4.51973">
        <ele>1263.31</ele>
        <time>2020-07-11T10:17:07Z</time>
      </trkpt>
      <trkpt lat="45.24616" lon="4.51974">
        <ele>1263.31</ele>
        <time>2020-07-11T10:17:38Z</time>
      </trkpt>
      <trkpt lat="45.24616" lon="4.51976">
        <ele>1265.71</ele>
        <time>2020-07-11T10:18:04Z</time>
      </trkpt>
      <trkpt lat="45.24617" lon="4.51976">
        <ele>1265.71</ele>
        <time>2020-07-11T10:18:34Z</time>
      </trkpt>
      <trkpt lat="45.24616" lon="4.51977">
        <ele>1265.23</ele>
        <time>2020-07-11T10:19:06Z</time>
      </trkpt>
      <trkpt lat="45.24616" lon="4.51976">
        <ele>1263.79</ele>
        <time>2020-07-11T10:19:31Z</time>
      </trkpt>
      <trkpt lat="45.24616" lon="4.51976">
        <ele>1262.35</ele>
        <time>2020-07-11T10:19:56Z</time>
      </trkpt>
      <trkpt lat="45.24615" lon="4.51975">
        <ele>1259.46</ele>
        <time>2020-07-11T10:20:32Z</time>
      </trkpt>
      <trkpt lat="45.24616" lon="4.51975">
        <ele>1258.98</ele>
        <time>2020-07-11T10:21:04Z</time>
      </trkpt>
      <trkpt lat="45.24615" lon="4.51972">
        <ele>1258.02</ele>
        <time>2020-07-11T10:21:27Z</time>
      </trkpt>
      <trkpt lat="45.24614" lon="4.51973">
        <ele>1258.98</ele>
        <time>2020-07-11T10:21:54Z</time>
      </trkpt>
      <trkpt lat="45.24617" lon="4.51976">
        <ele>1260.43</ele>
        <time>2020-07-11T10:22:27Z</time>
      </trkpt>
      <trkpt lat="45.24618" lon="4.51977">
        <ele>1260.43</ele>
        <time>2020-07-11T10:22:56Z</time>
      </trkpt>
      <trkpt lat="45.24617" lon="4.51975">
        <ele>1260.43</ele>
        <time>2020-07-11T10:23:21Z</time>
      </trkpt>
      <trkpt lat="45.24618" lon="4.51975">
        <ele>1261.87</ele>
        <time>2020-07-11T10:23:47Z</time>
      </trkpt>
      <trkpt lat="45.24617" lon="4.51975">
        <ele>1262.83</ele>
        <time>2020-07-11T10:24:13Z</time>
      </trkpt>
      <trkpt lat="45.24616" lon="4.51974">
        <ele>1263.31</ele>
        <time>2020-07-11T10:24:48Z</time>
      </trkpt>
      <trkpt lat="45.24617" lon="4.51973">
        <ele>1264.75</ele>
        <time>2020-07-11T10:25:14Z</time>
      </trkpt>
      <trkpt lat="45.24617" lon="4.51972">
        <ele>1264.75</ele>
        <time>2020-07-11T10:25:40Z</time>
      </trkpt>
      <trkpt lat="45.24617" lon="4.51974">
        <ele>1264.75</ele>
        <time>2020-07-11T10:26:11Z</time>
      </trkpt>
      <trkpt lat="45.24618" lon="4.51974">
        <ele>1263.79</ele>
        <time>2020-07-11T10:26:43Z</time>
      </trkpt>
      <trkpt lat="45.24617" lon="4.51973">
        <ele>1262.35</ele>
        <time>2020-07-11T10:27:07Z</time>
      </trkpt>
      <trkpt lat="45.24617" lon="4.51974">
        <ele>1260.91</ele>
        <time>2020-07-11T10:27:40Z</time>
      </trkpt>
      <trkpt lat="45.24617" lon="4.51973">
        <ele>1259.46</ele>
        <time>2020-07-11T10:28:12Z</time>
      </trkpt>
      <trkpt lat="45.24616" lon="4.51974">
        <ele>1259.46</ele>
        <time>2020-07-11T10:28:41Z</time>
      </trkpt>
      <trkpt lat="45.24616" lon="4.51974">
        <ele>1257.06</ele>
        <time>2020-07-11T10:29:12Z</time>
      </trkpt>
      <trkpt lat="45.24614" lon="4.51973">
        <ele>1255.14</ele>
        <time>2020-07-11T10:29:45Z</time>
      </trkpt>
      <trkpt lat="45.24615" lon="4.51972">
        <ele>1254.66</ele>
        <time>2020-07-11T10:30:07Z</time>
      </trkpt>
      <trkpt lat="45.24616" lon="4.51973">
        <ele>1255.62</ele>
        <time>2020-07-11T10:30:35Z</time>
      </trkpt>
      <trkpt lat="45.24617" lon="4.51975">
        <ele>1256.58</ele>
        <time>2020-07-11T10:31:04Z</time>
      </trkpt>
      <trkpt lat="45.24618" lon="4.51976">
        <ele>1257.06</ele>
        <time>2020-07-11T10:31:34Z</time>
      </trkpt>
      <trkpt lat="45.24618" lon="4.51974">
        <ele>1256.58</ele>
        <time>2020-07-11T10:31:58Z</time>
      </trkpt>
      <trkpt lat="45.24618" lon="4.51974">
        <ele>1256.58</ele>
        <time>2020-07-11T10:32:25Z</time>
      </trkpt>
      <trkpt lat="45.24618" lon="4.51976">
        <ele>1256.1</ele>
        <time>2020-07-11T10:32:51Z</time>
      </trkpt>
      <trkpt lat="45.2462" lon="4.51976">
        <ele>1255.62</ele>
        <time>2020-07-11T10:33:21Z</time>
      </trkpt>
      <trkpt lat="45.24618" lon="4.51974">
        <ele>1256.58</ele>
        <time>2020-07-11T10:33:55Z</time>
      </trkpt>
      <trkpt lat="45.24618" lon="4.51974">
        <ele>1257.06</ele>
        <time>2020-07-11T10:34:22Z</time>
      </trkpt>
      <trkpt lat="45.24617" lon="4.51973">
        <ele>1257.06</ele>
        <time>2020-07-11T10:34:41Z</time>
      </trkpt>
      <trkpt lat="45.24617" lon="4.51973">
        <ele>1255.62</ele>
        <time>2020-07-11T10:35:09Z</time>
      </trkpt>
      <trkpt lat="45.24616" lon="4.51975">
        <ele>1255.14</ele>
        <time>2020-07-11T10:35:40Z</time>
      </trkpt>
      <trkpt lat="45.24614" lon="4.51975">
        <ele>1254.66</ele>
        <time>2020-07-11T10:36:11Z</time>
      </trkpt>
      <trkpt lat="45.24616" lon="4.51975">
        <ele>1255.14</ele>
        <time>2020-07-11T10:36:42Z</time>
      </trkpt>
      <trkpt lat="45.24616" lon="4.51973">
        <ele>1255.62</ele>
        <time>2020-07-11T10:37:14Z</time>
      </trkpt>
      <trkpt lat="45.24618" lon="4.51972">
        <ele>1256.1</ele>
        <time>2020-07-11T10:37:43Z</time>
      </trkpt>
      <trkpt lat="45.24618" lon="4.51972">
        <ele>1256.58</ele>
        <time>2020-07-11T10:38:09Z</time>
      </trkpt>
      <trkpt lat="45.24619" lon="4.51972">
        <ele>1256.58</ele>
        <time>2020-07-11T10:38:41Z</time>
      </trkpt>
      <trkpt lat="45.24618" lon="4.51971">
        <ele>1258.02</ele>
        <time>2020-07-11T10:39:09Z</time>
      </trkpt>
      <trkpt lat="45.24617" lon="4.51972">
        <ele>1258.02</ele>
        <time>2020-07-11T10:39:47Z</time>
      </trkpt>
      <trkpt lat="45.24617" lon="4.51973">
        <ele>1257.54</ele>
        <time>2020-07-11T10:40:09Z</time>
      </trkpt>
      <trkpt lat="45.24617" lon="4.51972">
        <ele>1257.54</ele>
        <time>2020-07-11T10:40:41Z</time>
      </trkpt>
      <trkpt lat="45.24617" lon="4.51972">
        <ele>1259.46</ele>
        <time>2020-07-11T10:41:14Z</time>
      </trkpt>
      <trkpt lat="45.24618" lon="4.51971">
        <ele>1259.46</ele>
        <time>2020-07-11T10:41:43Z</time>
      </trkpt>
      <trkpt lat="45.24618" lon="4.51971">
        <ele>1259.46</ele>
        <time>2020-07-11T10:42:17Z</time>
      </trkpt>
      <trkpt lat="45.24619" lon="4.51971">
        <ele>1260.43</ele>
        <time>2020-07-11T10:42:47Z</time>
      </trkpt>
      <trkpt lat="45.24618" lon="4.51972">
        <ele>1259.94</ele>
        <time>2020-07-11T10:43:17Z</time>
      </trkpt>
      <trkpt lat="45.24619" lon="4.51971">
        <ele>1258.98</ele>
        <time>2020-07-11T10:43:49Z</time>
      </trkpt>
      <trkpt lat="45.24619" lon="4.51971">
        <ele>1258.5</ele>
        <time>2020-07-11T10:44:13Z</time>
      </trkpt>
      <trkpt lat="45.24619" lon="4.51972">
        <ele>1258.5</ele>
        <time>2020-07-11T10:44:38Z</time>
      </trkpt>
      <trkpt lat="45.24618" lon="4.51973">
        <ele>1258.5</ele>
        <time>2020-07-11T10:45:15Z</time>
      </trkpt>
      <trkpt lat="45.24619" lon="4.51972">
        <ele>1258.5</ele>
        <time>2020-07-11T10:45:51Z</time>
      </trkpt>
      <trkpt lat="45.24616" lon="4.51972">
        <ele>1260.43</ele>
        <time>2020-07-11T10:46:23Z</time>
      </trkpt>
      <trkpt lat="45.24617" lon="4.51972">
        <ele>1259.94</ele>
        <time>2020-07-11T10:47:06Z</time>
      </trkpt>
      <trkpt lat="45.24617" lon="4.51971">
        <ele>1260.91</ele>
        <time>2020-07-11T10:47:25Z</time>
      </trkpt>
      <trkpt lat="45.24617" lon="4.51971">
        <ele>1261.39</ele>
        <time>2020-07-11T10:47:43Z</time>
      </trkpt>
      <trkpt lat="45.24617" lon="4.51971">
        <ele>1261.39</ele>
        <time>2020-07-11T10:48:02Z</time>
      </trkpt>
      <trkpt lat="45.24615" lon="4.51968">
        <ele>1260.91</ele>
        <time>2020-07-11T10:48:25Z</time>
      </trkpt>
      <trkpt lat="45.24615" lon="4.51967">
        <ele>1260.91</ele>
        <time>2020-07-11T10:48:45Z</time>
      </trkpt>
      <trkpt lat="45.24616" lon="4.51968">
        <ele>1260.91</ele>
        <time>2020-07-11T10:49:03Z</time>
      </trkpt>
      <trkpt lat="45.24618" lon="4.51969">
        <ele>1260.91</ele>
        <time>2020-07-11T10:49:16Z</time>
      </trkpt>
      <trkpt lat="45.24616" lon="4.51972">
        <ele>1260.91</ele>
        <time>2020-07-11T10:49:30Z</time>
      </trkpt>
      <trkpt lat="45.24617" lon="4.51972">
        <ele>1260.43</ele>
        <time>2020-07-11T10:49:44Z</time>
      </trkpt>
      <trkpt lat="45.24616" lon="4.51975">
        <ele>1260.91</ele>
        <time>2020-07-11T10:50:03Z</time>
      </trkpt>
      <trkpt lat="45.24615" lon="4.51979">
        <ele>1260.43</ele>
        <time>2020-07-11T10:50:16Z</time>
      </trkpt>
      <trkpt lat="45.24617" lon="4.51979">
        <ele>1262.35</ele>
        <time>2020-07-11T10:50:29Z</time>
      </trkpt>
      <trkpt lat="45.24619" lon="4.51972">
        <ele>1261.39</ele>
        <time>2020-07-11T10:50:52Z</time>
      </trkpt>
      <trkpt lat="45.24619" lon="4.51969">
        <ele>1260.91</ele>
        <time>2020-07-11T10:51:10Z</time>
      </trkpt>
      <trkpt lat="45.24617" lon="4.51971">
        <ele>1261.39</ele>
        <time>2020-07-11T10:51:23Z</time>
      </trkpt>
      <trkpt lat="45.24608" lon="4.51981">
        <ele>1263.79</ele>
        <time>2020-07-11T10:51:33Z</time>
      </trkpt>
      <trkpt lat="45.24603" lon="4.51994">
        <ele>1265.71</ele>
        <time>2020-07-11T10:51:46Z</time>
      </trkpt>
      <trkpt lat="45.24587" lon="4.52012">
        <ele>1270.04</ele>
        <time>2020-07-11T10:52:01Z</time>
      </trkpt>
      <trkpt lat="45.24573" lon="4.52027">
        <ele>1272.92</ele>
        <time>2020-07-11T10:52:16Z</time>
      </trkpt>
      <trkpt lat="45.24552" lon="4.52031">
        <ele>1272.44</ele>
        <time>2020-07-11T10:52:31Z</time>
      </trkpt>
      <trkpt lat="45.24535" lon="4.52034">
        <ele>1271</ele>
        <time>2020-07-11T10:52:43Z</time>
      </trkpt>
      <trkpt lat="45.24519" lon="4.52039">
        <ele>1265.71</ele>
        <time>2020-07-11T10:52:57Z</time>
      </trkpt>
      <trkpt lat="45.24512" lon="4.52042">
        <ele>1264.75</ele>
        <time>2020-07-11T10:53:09Z</time>
      </trkpt>
      <trkpt lat="45.24499" lon="4.52046">
        <ele>1262.83</ele>
        <time>2020-07-11T10:53:22Z</time>
      </trkpt>
      <trkpt lat="45.24488" lon="4.52049">
        <ele>1261.87</ele>
        <time>2020-07-11T10:53:33Z</time>
      </trkpt>
      <trkpt lat="45.24474" lon="4.52052">
        <ele>1261.39</ele>
        <time>2020-07-11T10:53:48Z</time>
      </trkpt>
      <trkpt lat="45.24464" lon="4.52052">
        <ele>1261.39</ele>
        <time>2020-07-11T10:54:00Z</time>
      </trkpt>
      <trkpt lat="45.24451" lon="4.52055">
        <ele>1258.02</ele>
        <time>2020-07-11T10:54:15Z</time>
      </trkpt>
      <trkpt lat="45.24433" lon="4.5206">
        <ele>1257.54</ele>
        <time>2020-07-11T10:54:28Z</time>
      </trkpt>
      <trkpt lat="45.24416" lon="4.52069">
        <ele>1256.58</ele>
        <time>2020-07-11T10:54:41Z</time>
      </trkpt>
      <trkpt lat="45.24402" lon="4.52076">
        <ele>1253.22</ele>
        <time>2020-07-11T10:54:56Z</time>
      </trkpt>
      <trkpt lat="45.2439" lon="4.52083">
        <ele>1251.77</ele>
        <time>2020-07-11T10:55:08Z</time>
      </trkpt>
      <trkpt lat="45.24387" lon="4.52084">
        <ele>1250.81</ele>
        <time>2020-07-11T10:55:10Z</time>
      </trkpt>
      <trkpt lat="45.24369" lon="4.52089">
        <ele>1247.45</ele>
        <time>2020-07-11T10:55:24Z</time>
      </trkpt>
      <trkpt lat="45.24362" lon="4.5209">
        <ele>1246.49</ele>
        <time>2020-07-11T10:55:34Z</time>
      </trkpt>
      <trkpt lat="45.24351" lon="4.52094">
        <ele>1249.85</ele>
        <time>2020-07-11T10:55:45Z</time>
      </trkpt>
      <trkpt lat="45.24337" lon="4.52096">
        <ele>1256.58</ele>
        <time>2020-07-11T10:55:59Z</time>
      </trkpt>
      <trkpt lat="45.2432" lon="4.52096">
        <ele>1259.94</ele>
        <time>2020-07-11T10:56:14Z</time>
      </trkpt>
      <trkpt lat="45.24301" lon="4.52095">
        <ele>1261.87</ele>
        <time>2020-07-11T10:56:28Z</time>
      </trkpt>
      <trkpt lat="45.24286" lon="4.52086">
        <ele>1259.94</ele>
        <time>2020-07-11T10:56:40Z</time>
      </trkpt>
      <trkpt lat="45.24267" lon="4.5207">
        <ele>1255.14</ele>
        <time>2020-07-11T10:56:57Z</time>
      </trkpt>
      <trkpt lat="45.2425" lon="4.52053">
        <ele>1254.18</ele>
        <time>2020-07-11T10:57:12Z</time>
      </trkpt>
      <trkpt lat="45.24247" lon="4.52048">
        <ele>1253.7</ele>
        <time>2020-07-11T10:57:15Z</time>
      </trkpt>
      <trkpt lat="45.24242" lon="4.52042">
        <ele>1253.7</ele>
        <time>2020-07-11T10:57:19Z</time>
      </trkpt>
      <trkpt lat="45.24239" lon="4.52037">
        <ele>1252.74</ele>
        <time>2020-07-11T10:57:23Z</time>
      </trkpt>
      <trkpt lat="45.24232" lon="4.52022">
        <ele>1254.66</ele>
        <time>2020-07-11T10:57:36Z</time>
      </trkpt>
      <trkpt lat="45.24226" lon="4.51999">
        <ele>1258.5</ele>
        <time>2020-07-11T10:57:52Z</time>
      </trkpt>
      <trkpt lat="45.24215" lon="4.51995">
        <ele>1259.94</ele>
        <time>2020-07-11T10:58:02Z</time>
      </trkpt>
      <trkpt lat="45.24206" lon="4.5201">
        <ele>1262.83</ele>
        <time>2020-07-11T10:58:15Z</time>
      </trkpt>
      <trkpt lat="45.2419" lon="4.52021">
        <ele>1256.1</ele>
        <time>2020-07-11T10:58:30Z</time>
      </trkpt>
      <trkpt lat="45.24175" lon="4.52036">
        <ele>1255.14</ele>
        <time>2020-07-11T10:58:44Z</time>
      </trkpt>
      <trkpt lat="45.24153" lon="4.52043">
        <ele>1253.22</ele>
        <time>2020-07-11T10:59:00Z</time>
      </trkpt>
      <trkpt lat="45.24132" lon="4.52051">
        <ele>1249.37</ele>
        <time>2020-07-11T10:59:15Z</time>
      </trkpt>
      <trkpt lat="45.24118" lon="4.52063">
        <ele>1243.12</ele>
        <time>2020-07-11T10:59:29Z</time>
      </trkpt>
      <trkpt lat="45.2411" lon="4.52087">
        <ele>1239.28</ele>
        <time>2020-07-11T10:59:46Z</time>
      </trkpt>
      <trkpt lat="45.24101" lon="4.52105">
        <ele>1239.28</ele>
        <time>2020-07-11T11:00:00Z</time>
      </trkpt>
      <trkpt lat="45.24086" lon="4.52124">
        <ele>1239.28</ele>
        <time>2020-07-11T11:00:15Z</time>
      </trkpt>
      <trkpt lat="45.24086" lon="4.52125">
        <ele>1239.28</ele>
        <time>2020-07-11T11:00:16Z</time>
      </trkpt>
      <trkpt lat="45.24082" lon="4.52137">
        <ele>1242.64</ele>
        <time>2020-07-11T11:00:25Z</time>
      </trkpt>
      <trkpt lat="45.24076" lon="4.5215">
        <ele>1246.97</ele>
        <time>2020-07-11T11:00:38Z</time>
      </trkpt>
      <trkpt lat="45.24076" lon="4.52151">
        <ele>1246.97</ele>
        <time>2020-07-11T11:00:39Z</time>
      </trkpt>
      <trkpt lat="45.24086" lon="4.52186">
        <ele>1248.41</ele>
        <time>2020-07-11T11:00:56Z</time>
      </trkpt>
      <trkpt lat="45.24086" lon="4.52211">
        <ele>1248.89</ele>
        <time>2020-07-11T11:01:12Z</time>
      </trkpt>
      <trkpt lat="45.24089" lon="4.52246">
        <ele>1244.56</ele>
        <time>2020-07-11T11:01:26Z</time>
      </trkpt>
      <trkpt lat="45.24103" lon="4.52267">
        <ele>1245.04</ele>
        <time>2020-07-11T11:01:42Z</time>
      </trkpt>
      <trkpt lat="45.2411" lon="4.52278">
        <ele>1246.97</ele>
        <time>2020-07-11T11:01:52Z</time>
      </trkpt>
      <trkpt lat="45.24125" lon="4.52295">
        <ele>1246.49</ele>
        <time>2020-07-11T11:02:08Z</time>
      </trkpt>
      <trkpt lat="45.2414" lon="4.52324">
        <ele>1242.16</ele>
        <time>2020-07-11T11:02:24Z</time>
      </trkpt>
      <trkpt lat="45.24162" lon="4.52349">
        <ele>1232.55</ele>
        <time>2020-07-11T11:02:39Z</time>
      </trkpt>
      <trkpt lat="45.24173" lon="4.52363">
        <ele>1229.18</ele>
        <time>2020-07-11T11:02:51Z</time>
      </trkpt>
      <trkpt lat="45.24183" lon="4.52378">
        <ele>1224.86</ele>
        <time>2020-07-11T11:03:04Z</time>
      </trkpt>
      <trkpt lat="45.24193" lon="4.52391">
        <ele>1223.42</ele>
        <time>2020-07-11T11:03:18Z</time>
      </trkpt>
      <trkpt lat="45.24204" lon="4.52404">
        <ele>1219.57</ele>
        <time>2020-07-11T11:03:30Z</time>
      </trkpt>
      <trkpt lat="45.24209" lon="4.52408">
        <ele>1219.57</ele>
        <time>2020-07-11T11:03:33Z</time>
      </trkpt>
      <trkpt lat="45.24225" lon="4.52431">
        <ele>1219.57</ele>
        <time>2020-07-11T11:03:46Z</time>
      </trkpt>
      <trkpt lat="45.24234" lon="4.52442">
        <ele>1219.09</ele>
        <time>2020-07-11T11:03:57Z</time>
      </trkpt>
      <trkpt lat="45.24248" lon="4.52464">
        <ele>1218.13</ele>
        <time>2020-07-11T11:04:10Z</time>
      </trkpt>
      <trkpt lat="45.2426" lon="4.52479">
        <ele>1217.17</ele>
        <time>2020-07-11T11:04:23Z</time>
      </trkpt>
      <trkpt lat="45.24275" lon="4.52498">
        <ele>1217.17</ele>
        <time>2020-07-11T11:04:37Z</time>
      </trkpt>
      <trkpt lat="45.2428" lon="4.52505">
        <ele>1216.21</ele>
        <time>2020-07-11T11:04:42Z</time>
      </trkpt>
      <trkpt lat="45.24285" lon="4.5251">
        <ele>1215.24</ele>
        <time>2020-07-11T11:04:46Z</time>
      </trkpt>
      <trkpt lat="45.24296" lon="4.52525">
        <ele>1213.8</ele>
        <time>2020-07-11T11:05:00Z</time>
      </trkpt>
      <trkpt lat="45.24297" lon="4.52534">
        <ele>1212.84</ele>
        <time>2020-07-11T11:05:11Z</time>
      </trkpt>
      <trkpt lat="45.24288" lon="4.52531">
        <ele>1216.21</ele>
        <time>2020-07-11T11:05:23Z</time>
      </trkpt>
      <trkpt lat="45.2427" lon="4.52524">
        <ele>1218.61</ele>
        <time>2020-07-11T11:05:38Z</time>
      </trkpt>
      <trkpt lat="45.24256" lon="4.52516">
        <ele>1218.61</ele>
        <time>2020-07-11T11:05:51Z</time>
      </trkpt>
      <trkpt lat="45.2424" lon="4.52504">
        <ele>1215.72</ele>
        <time>2020-07-11T11:06:04Z</time>
      </trkpt>
      <trkpt lat="45.24224" lon="4.52495">
        <ele>1214.76</ele>
        <time>2020-07-11T11:06:20Z</time>
      </trkpt>
      <trkpt lat="45.24209" lon="4.52486">
        <ele>1215.24</ele>
        <time>2020-07-11T11:06:34Z</time>
      </trkpt>
      <trkpt lat="45.24197" lon="4.5248">
        <ele>1219.09</ele>
        <time>2020-07-11T11:06:48Z</time>
      </trkpt>
      <trkpt lat="45.24177" lon="4.5247">
        <ele>1220.05</ele>
        <time>2020-07-11T11:07:04Z</time>
      </trkpt>
      <trkpt lat="45.24155" lon="4.52465">
        <ele>1219.09</ele>
        <time>2020-07-11T11:07:19Z</time>
      </trkpt>
      <trkpt lat="45.24142" lon="4.52461">
        <ele>1218.13</ele>
        <time>2020-07-11T11:07:29Z</time>
      </trkpt>
      <trkpt lat="45.24122" lon="4.52459">
        <ele>1215.72</ele>
        <time>2020-07-11T11:07:44Z</time>
      </trkpt>
      <trkpt lat="45.24105" lon="4.52457">
        <ele>1216.21</ele>
        <time>2020-07-11T11:07:58Z</time>
      </trkpt>
      <trkpt lat="45.24093" lon="4.52455">
        <ele>1215.72</ele>
        <time>2020-07-11T11:08:11Z</time>
      </trkpt>
      <trkpt lat="45.24073" lon="4.52458">
        <ele>1217.17</ele>
        <time>2020-07-11T11:08:27Z</time>
      </trkpt>
      <trkpt lat="45.24057" lon="4.52457">
        <ele>1216.21</ele>
        <time>2020-07-11T11:08:40Z</time>
      </trkpt>
      <trkpt lat="45.24043" lon="4.52456">
        <ele>1217.65</ele>
        <time>2020-07-11T11:08:53Z</time>
      </trkpt>
      <trkpt lat="45.24018" lon="4.52461">
        <ele>1215.72</ele>
        <time>2020-07-11T11:09:07Z</time>
      </trkpt>
      <trkpt lat="45.24007" lon="4.52465">
        <ele>1215.24</ele>
        <time>2020-07-11T11:09:21Z</time>
      </trkpt>
      <trkpt lat="45.23991" lon="4.52471">
        <ele>1215.72</ele>
        <time>2020-07-11T11:09:37Z</time>
      </trkpt>
      <trkpt lat="45.23977" lon="4.52481">
        <ele>1217.65</ele>
        <time>2020-07-11T11:09:49Z</time>
      </trkpt>
      <trkpt lat="45.2396" lon="4.5249">
        <ele>1216.69</ele>
        <time>2020-07-11T11:10:03Z</time>
      </trkpt>
      <trkpt lat="45.23954" lon="4.52494">
        <ele>1221.01</ele>
        <time>2020-07-11T11:10:16Z</time>
      </trkpt>
      <trkpt lat="45.23952" lon="4.52497">
        <ele>1221.49</ele>
        <time>2020-07-11T11:10:19Z</time>
      </trkpt>
      <trkpt lat="45.23942" lon="4.52514">
        <ele>1226.78</ele>
        <time>2020-07-11T11:10:34Z</time>
      </trkpt>
      <trkpt lat="45.23932" lon="4.52524">
        <ele>1229.18</ele>
        <time>2020-07-11T11:10:50Z</time>
      </trkpt>
      <trkpt lat="45.23925" lon="4.52534">
        <ele>1230.62</ele>
        <time>2020-07-11T11:11:03Z</time>
      </trkpt>
      <trkpt lat="45.23923" lon="4.52543">
        <ele>1231.59</ele>
        <time>2020-07-11T11:11:15Z</time>
      </trkpt>
      <trkpt lat="45.23922" lon="4.52548">
        <ele>1232.07</ele>
        <time>2020-07-11T11:11:28Z</time>
      </trkpt>
      <trkpt lat="45.23915" lon="4.52554">
        <ele>1233.51</ele>
        <time>2020-07-11T11:11:44Z</time>
      </trkpt>
      <trkpt lat="45.23917" lon="4.52557">
        <ele>1233.51</ele>
        <time>2020-07-11T11:12:00Z</time>
      </trkpt>
      <trkpt lat="45.23904" lon="4.52561">
        <ele>1228.7</ele>
        <time>2020-07-11T11:12:25Z</time>
      </trkpt>
      <trkpt lat="45.239" lon="4.52562">
        <ele>1225.82</ele>
        <time>2020-07-11T11:12:49Z</time>
      </trkpt>
      <trkpt lat="45.23897" lon="4.52563">
        <ele>1224.86</ele>
        <time>2020-07-11T11:13:07Z</time>
      </trkpt>
      <trkpt lat="45.2389" lon="4.52563">
        <ele>1225.82</ele>
        <time>2020-07-11T11:13:25Z</time>
      </trkpt>
      <trkpt lat="45.2387" lon="4.52555">
        <ele>1221.97</ele>
        <time>2020-07-11T11:13:42Z</time>
      </trkpt>
      <trkpt lat="45.23858" lon="4.52548">
        <ele>1221.01</ele>
        <time>2020-07-11T11:13:54Z</time>
      </trkpt>
      <trkpt lat="45.23845" lon="4.52534">
        <ele>1223.42</ele>
        <time>2020-07-11T11:14:08Z</time>
      </trkpt>
      <trkpt lat="45.23841" lon="4.52515">
        <ele>1223.9</ele>
        <time>2020-07-11T11:14:23Z</time>
      </trkpt>
      <trkpt lat="45.2384" lon="4.52493">
        <ele>1229.18</ele>
        <time>2020-07-11T11:14:37Z</time>
      </trkpt>
      <trkpt lat="45.23839" lon="4.52479">
        <ele>1233.03</ele>
        <time>2020-07-11T11:14:50Z</time>
      </trkpt>
      <trkpt lat="45.23838" lon="4.5247">
        <ele>1233.51</ele>
        <time>2020-07-11T11:15:04Z</time>
      </trkpt>
      <trkpt lat="45.23835" lon="4.52456">
        <ele>1234.47</ele>
        <time>2020-07-11T11:15:12Z</time>
      </trkpt>
      <trkpt lat="45.23829" lon="4.52436">
        <ele>1233.51</ele>
        <time>2020-07-11T11:15:27Z</time>
      </trkpt>
      <trkpt lat="45.23824" lon="4.52418">
        <ele>1231.11</ele>
        <time>2020-07-11T11:15:41Z</time>
      </trkpt>
      <trkpt lat="45.2382" lon="4.52412">
        <ele>1231.11</ele>
        <time>2020-07-11T11:15:56Z</time>
      </trkpt>
      <trkpt lat="45.23819" lon="4.5241">
        <ele>1228.7</ele>
        <time>2020-07-11T11:16:11Z</time>
      </trkpt>
      <trkpt lat="45.23817" lon="4.52401">
        <ele>1228.22</ele>
        <time>2020-07-11T11:16:25Z</time>
      </trkpt>
      <trkpt lat="45.23816" lon="4.52394">
        <ele>1225.82</ele>
        <time>2020-07-11T11:16:40Z</time>
      </trkpt>
      <trkpt lat="45.23817" lon="4.52393">
        <ele>1226.78</ele>
        <time>2020-07-11T11:17:09Z</time>
      </trkpt>
      <trkpt lat="45.23816" lon="4.52393">
        <ele>1225.82</ele>
        <time>2020-07-11T11:17:42Z</time>
      </trkpt>
      <trkpt lat="45.23816" lon="4.52392">
        <ele>1225.82</ele>
        <time>2020-07-11T11:18:05Z</time>
      </trkpt>
      <trkpt lat="45.23815" lon="4.52391">
        <ele>1225.34</ele>
        <time>2020-07-11T11:18:25Z</time>
      </trkpt>
      <trkpt lat="45.23815" lon="4.52392">
        <ele>1225.34</ele>
        <time>2020-07-11T11:18:40Z</time>
      </trkpt>
      <trkpt lat="45.23815" lon="4.52391">
        <ele>1225.34</ele>
        <time>2020-07-11T11:19:02Z</time>
      </trkpt>
      <trkpt lat="45.23815" lon="4.52391">
        <ele>1225.34</ele>
        <time>2020-07-11T11:19:21Z</time>
      </trkpt>
      <trkpt lat="45.23815" lon="4.52391">
        <ele>1224.86</ele>
        <time>2020-07-11T11:19:42Z</time>
      </trkpt>
      <trkpt lat="45.23815" lon="4.52391">
        <ele>1224.86</ele>
        <time>2020-07-11T11:20:11Z</time>
      </trkpt>
      <trkpt lat="45.23815" lon="4.52391">
        <ele>1224.86</ele>
        <time>2020-07-11T11:20:35Z</time>
      </trkpt>
      <trkpt lat="45.23815" lon="4.5239">
        <ele>1225.34</ele>
        <time>2020-07-11T11:21:00Z</time>
      </trkpt>
      <trkpt lat="45.23814" lon="4.5239">
        <ele>1224.86</ele>
        <time>2020-07-11T11:21:20Z</time>
      </trkpt>
      <trkpt lat="45.23814" lon="4.5239">
        <ele>1224.86</ele>
        <time>2020-07-11T11:21:44Z</time>
      </trkpt>
      <trkpt lat="45.23814" lon="4.52391">
        <ele>1224.38</ele>
        <time>2020-07-11T11:22:12Z</time>
      </trkpt>
      <trkpt lat="45.23814" lon="4.52391">
        <ele>1224.38</ele>
        <time>2020-07-11T11:22:36Z</time>
      </trkpt>
      <trkpt lat="45.23814" lon="4.52393">
        <ele>1223.9</ele>
        <time>2020-07-11T11:23:02Z</time>
      </trkpt>
      <trkpt lat="45.23814" lon="4.52394">
        <ele>1223.9</ele>
        <time>2020-07-11T11:23:27Z</time>
      </trkpt>
      <trkpt lat="45.23814" lon="4.52394">
        <ele>1223.9</ele>
        <time>2020-07-11T11:23:50Z</time>
      </trkpt>
      <trkpt lat="45.23815" lon="4.52394">
        <ele>1224.38</ele>
        <time>2020-07-11T11:24:15Z</time>
      </trkpt>
      <trkpt lat="45.23815" lon="4.52394">
        <ele>1225.34</ele>
        <time>2020-07-11T11:24:40Z</time>
      </trkpt>
      <trkpt lat="45.23815" lon="4.52393">
        <ele>1225.82</ele>
        <time>2020-07-11T11:25:04Z</time>
      </trkpt>
      <trkpt lat="45.23815" lon="4.52393">
        <ele>1226.3</ele>
        <time>2020-07-11T11:25:29Z</time>
      </trkpt>
      <trkpt lat="45.23816" lon="4.52394">
        <ele>1226.3</ele>
        <time>2020-07-11T11:25:53Z</time>
      </trkpt>
      <trkpt lat="45.23816" lon="4.52393">
        <ele>1225.82</ele>
        <time>2020-07-11T11:26:17Z</time>
      </trkpt>
      <trkpt lat="45.23816" lon="4.52393">
        <ele>1226.78</ele>
        <time>2020-07-11T11:26:35Z</time>
      </trkpt>
      <trkpt lat="45.23816" lon="4.52395">
        <ele>1227.26</ele>
        <time>2020-07-11T11:26:52Z</time>
      </trkpt>
      <trkpt lat="45.23816" lon="4.52395">
        <ele>1228.22</ele>
        <time>2020-07-11T11:27:11Z</time>
      </trkpt>
      <trkpt lat="45.23816" lon="4.52395">
        <ele>1228.22</ele>
        <time>2020-07-11T11:27:36Z</time>
      </trkpt>
      <trkpt lat="45.23815" lon="4.52396">
        <ele>1228.22</ele>
        <time>2020-07-11T11:28:00Z</time>
      </trkpt>
      <trkpt lat="45.23816" lon="4.52396">
        <ele>1227.74</ele>
        <time>2020-07-11T11:28:22Z</time>
      </trkpt>
      <trkpt lat="45.23816" lon="4.52395">
        <ele>1228.22</ele>
        <time>2020-07-11T11:28:37Z</time>
      </trkpt>
      <trkpt lat="45.23816" lon="4.52396">
        <ele>1227.74</ele>
        <time>2020-07-11T11:29:00Z</time>
      </trkpt>
      <trkpt lat="45.23816" lon="4.52396">
        <ele>1227.26</ele>
        <time>2020-07-11T11:29:19Z</time>
      </trkpt>
      <trkpt lat="45.23816" lon="4.52396">
        <ele>1226.78</ele>
        <time>2020-07-11T11:29:43Z</time>
      </trkpt>
      <trkpt lat="45.23815" lon="4.52401">
        <ele>1229.18</ele>
        <time>2020-07-11T11:29:56Z</time>
      </trkpt>
      <trkpt lat="45.23818" lon="4.52408">
        <ele>1232.07</ele>
        <time>2020-07-11T11:30:07Z</time>
      </trkpt>
      <trkpt lat="45.23822" lon="4.52416">
        <ele>1233.51</ele>
        <time>2020-07-11T11:30:18Z</time>
      </trkpt>
      <trkpt lat="45.23825" lon="4.52427">
        <ele>1234.95</ele>
        <time>2020-07-11T11:30:26Z</time>
      </trkpt>
      <trkpt lat="45.23835" lon="4.52447">
        <ele>1237.35</ele>
        <time>2020-07-11T11:30:40Z</time>
      </trkpt>
      <trkpt lat="45.23838" lon="4.52466">
        <ele>1239.28</ele>
        <time>2020-07-11T11:30:52Z</time>
      </trkpt>
      <trkpt lat="45.23836" lon="4.52487">
        <ele>1239.28</ele>
        <time>2020-07-11T11:31:05Z</time>
      </trkpt>
      <trkpt lat="45.23835" lon="4.5249">
        <ele>1240.24</ele>
        <time>2020-07-11T11:31:19Z</time>
      </trkpt>
      <trkpt lat="45.23831" lon="4.52499">
        <ele>1238.8</ele>
        <time>2020-07-11T11:31:33Z</time>
      </trkpt>
      <trkpt lat="45.23815" lon="4.52503">
        <ele>1234.47</ele>
        <time>2020-07-11T11:31:49Z</time>
      </trkpt>
      <trkpt lat="45.23802" lon="4.52488">
        <ele>1232.55</ele>
        <time>2020-07-11T11:32:03Z</time>
      </trkpt>
      <trkpt lat="45.23797" lon="4.5248">
        <ele>1231.59</ele>
        <time>2020-07-11T11:32:09Z</time>
      </trkpt>
      <trkpt lat="45.2379" lon="4.52453">
        <ele>1225.34</ele>
        <time>2020-07-11T11:32:26Z</time>
      </trkpt>
      <trkpt lat="45.23785" lon="4.52432">
        <ele>1222.93</ele>
        <time>2020-07-11T11:32:40Z</time>
      </trkpt>
      <trkpt lat="45.23773" lon="4.52414">
        <ele>1219.57</ele>
        <time>2020-07-11T11:32:56Z</time>
      </trkpt>
      <trkpt lat="45.23765" lon="4.52399">
        <ele>1219.57</ele>
        <time>2020-07-11T11:33:09Z</time>
      </trkpt>
      <trkpt lat="45.23755" lon="4.52386">
        <ele>1214.28</ele>
        <time>2020-07-11T11:33:22Z</time>
      </trkpt>
      <trkpt lat="45.23745" lon="4.52368">
        <ele>1209.96</ele>
        <time>2020-07-11T11:33:37Z</time>
      </trkpt>
      <trkpt lat="45.23737" lon="4.52349">
        <ele>1208.51</ele>
        <time>2020-07-11T11:33:50Z</time>
      </trkpt>
      <trkpt lat="45.2373" lon="4.52329">
        <ele>1207.07</ele>
        <time>2020-07-11T11:34:03Z</time>
      </trkpt>
      <trkpt lat="45.23727" lon="4.5231">
        <ele>1208.03</ele>
        <time>2020-07-11T11:34:15Z</time>
      </trkpt>
      <trkpt lat="45.23725" lon="4.52292">
        <ele>1207.07</ele>
        <time>2020-07-11T11:34:26Z</time>
      </trkpt>
      <trkpt lat="45.23723" lon="4.52271">
        <ele>1208.51</ele>
        <time>2020-07-11T11:34:37Z</time>
      </trkpt>
      <trkpt lat="45.23718" lon="4.52255">
        <ele>1206.59</ele>
        <time>2020-07-11T11:34:51Z</time>
      </trkpt>
      <trkpt lat="45.23709" lon="4.52239">
        <ele>1201.79</ele>
        <time>2020-07-11T11:35:06Z</time>
      </trkpt>
      <trkpt lat="45.23699" lon="4.52216">
        <ele>1201.3</ele>
        <time>2020-07-11T11:35:25Z</time>
      </trkpt>
      <trkpt lat="45.23695" lon="4.52198">
        <ele>1200.34</ele>
        <time>2020-07-11T11:35:38Z</time>
      </trkpt>
      <trkpt lat="45.23691" lon="4.52184">
        <ele>1198.9</ele>
        <time>2020-07-11T11:35:51Z</time>
      </trkpt>
      <trkpt lat="45.23687" lon="4.52175">
        <ele>1194.58</ele>
        <time>2020-07-11T11:36:06Z</time>
      </trkpt>
      <trkpt lat="45.23684" lon="4.52181">
        <ele>1187.85</ele>
        <time>2020-07-11T11:36:29Z</time>
      </trkpt>
      <trkpt lat="45.23676" lon="4.52195">
        <ele>1184.96</ele>
        <time>2020-07-11T11:36:42Z</time>
      </trkpt>
      <trkpt lat="45.23668" lon="4.52219">
        <ele>1181.6</ele>
        <time>2020-07-11T11:36:57Z</time>
      </trkpt>
      <trkpt lat="45.23667" lon="4.52221">
        <ele>1181.6</ele>
        <time>2020-07-11T11:36:58Z</time>
      </trkpt>
      <trkpt lat="45.23666" lon="4.52234">
        <ele>1181.6</ele>
        <time>2020-07-11T11:37:09Z</time>
      </trkpt>
      <trkpt lat="45.23668" lon="4.52255">
        <ele>1182.56</ele>
        <time>2020-07-11T11:37:25Z</time>
      </trkpt>
      <trkpt lat="45.2367" lon="4.5227">
        <ele>1183.04</ele>
        <time>2020-07-11T11:37:42Z</time>
      </trkpt>
      <trkpt lat="45.23673" lon="4.52299">
        <ele>1181.6</ele>
        <time>2020-07-11T11:37:56Z</time>
      </trkpt>
      <trkpt lat="45.23677" lon="4.52326">
        <ele>1179.19</ele>
        <time>2020-07-11T11:38:11Z</time>
      </trkpt>
      <trkpt lat="45.23679" lon="4.52353">
        <ele>1176.79</ele>
        <time>2020-07-11T11:38:29Z</time>
      </trkpt>
      <trkpt lat="45.23681" lon="4.52367">
        <ele>1175.83</ele>
        <time>2020-07-11T11:38:44Z</time>
      </trkpt>
      <trkpt lat="45.23681" lon="4.5237">
        <ele>1174.39</ele>
        <time>2020-07-11T11:39:08Z</time>
      </trkpt>
      <trkpt lat="45.23681" lon="4.52372">
        <ele>1172.47</ele>
        <time>2020-07-11T11:39:33Z</time>
      </trkpt>
      <trkpt lat="45.23682" lon="4.52376">
        <ele>1172.95</ele>
        <time>2020-07-11T11:39:58Z</time>
      </trkpt>
      <trkpt lat="45.23682" lon="4.52376">
        <ele>1172.47</ele>
        <time>2020-07-11T11:40:07Z</time>
      </trkpt>
      <trkpt lat="45.23687" lon="4.52396">
        <ele>1172.95</ele>
        <time>2020-07-11T11:40:16Z</time>
      </trkpt>
      <trkpt lat="45.23691" lon="4.52411">
        <ele>1172.47</ele>
        <time>2020-07-11T11:40:26Z</time>
      </trkpt>
      <trkpt lat="45.23688" lon="4.52431">
        <ele>1168.62</ele>
        <time>2020-07-11T11:40:41Z</time>
      </trkpt>
      <trkpt lat="45.2369" lon="4.52458">
        <ele>1166.7</ele>
        <time>2020-07-11T11:40:51Z</time>
      </trkpt>
      <trkpt lat="45.2369" lon="4.52487">
        <ele>1164.29</ele>
        <time>2020-07-11T11:41:01Z</time>
      </trkpt>
      <trkpt lat="45.23686" lon="4.52513">
        <ele>1164.29</ele>
        <time>2020-07-11T11:41:12Z</time>
      </trkpt>
      <trkpt lat="45.23685" lon="4.52583">
        <ele>1159.49</ele>
        <time>2020-07-11T11:41:28Z</time>
      </trkpt>
      <trkpt lat="45.23684" lon="4.52593">
        <ele>1157.08</ele>
        <time>2020-07-11T11:41:33Z</time>
      </trkpt>
      <trkpt lat="45.23683" lon="4.52599">
        <ele>1155.16</ele>
        <time>2020-07-11T11:41:36Z</time>
      </trkpt>
      <trkpt lat="45.23679" lon="4.52619">
        <ele>1150.84</ele>
        <time>2020-07-11T11:41:46Z</time>
      </trkpt>
      <trkpt lat="45.2368" lon="4.52626">
        <ele>1149.87</ele>
        <time>2020-07-11T11:41:50Z</time>
      </trkpt>
      <trkpt lat="45.23681" lon="4.52632">
        <ele>1149.87</ele>
        <time>2020-07-11T11:41:54Z</time>
      </trkpt>
      <trkpt lat="45.23681" lon="4.52646">
        <ele>1149.39</ele>
        <time>2020-07-11T11:42:03Z</time>
      </trkpt>
      <trkpt lat="45.23683" lon="4.5266">
        <ele>1149.87</ele>
        <time>2020-07-11T11:42:10Z</time>
      </trkpt>
      <trkpt lat="45.23677" lon="4.52681">
        <ele>1151.8</ele>
        <time>2020-07-11T11:42:22Z</time>
      </trkpt>
      <trkpt lat="45.23674" lon="4.52692">
        <ele>1149.39</ele>
        <time>2020-07-11T11:42:28Z</time>
      </trkpt>
      <trkpt lat="45.23672" lon="4.52701">
        <ele>1146.03</ele>
        <time>2020-07-11T11:42:35Z</time>
      </trkpt>
      <trkpt lat="45.2367" lon="4.52717">
        <ele>1143.14</ele>
        <time>2020-07-11T11:42:43Z</time>
      </trkpt>
      <trkpt lat="45.23668" lon="4.52733">
        <ele>1141.7</ele>
        <time>2020-07-11T11:42:56Z</time>
      </trkpt>
      <trkpt lat="45.23667" lon="4.52752">
        <ele>1142.18</ele>
        <time>2020-07-11T11:43:10Z</time>
      </trkpt>
      <trkpt lat="45.23664" lon="4.52772">
        <ele>1143.14</ele>
        <time>2020-07-11T11:43:23Z</time>
      </trkpt>
      <trkpt lat="45.23663" lon="4.52788">
        <ele>1144.11</ele>
        <time>2020-07-11T11:43:38Z</time>
      </trkpt>
      <trkpt lat="45.23662" lon="4.5281">
        <ele>1143.63</ele>
        <time>2020-07-11T11:43:53Z</time>
      </trkpt>
      <trkpt lat="45.23657" lon="4.52823">
        <ele>1143.63</ele>
        <time>2020-07-11T11:44:06Z</time>
      </trkpt>
      <trkpt lat="45.23652" lon="4.52839">
        <ele>1141.22</ele>
        <time>2020-07-11T11:44:16Z</time>
      </trkpt>
      <trkpt lat="45.23648" lon="4.52856">
        <ele>1129.69</ele>
        <time>2020-07-11T11:44:28Z</time>
      </trkpt>
      <trkpt lat="45.23647" lon="4.52861">
        <ele>1127.28</ele>
        <time>2020-07-11T11:44:31Z</time>
      </trkpt>
      <trkpt lat="45.23639" lon="4.52871">
        <ele>1123.44</ele>
        <time>2020-07-11T11:44:42Z</time>
      </trkpt>
      <trkpt lat="45.23632" lon="4.52891">
        <ele>1120.07</ele>
        <time>2020-07-11T11:44:58Z</time>
      </trkpt>
      <trkpt lat="45.23628" lon="4.52909">
        <ele>1120.55</ele>
        <time>2020-07-11T11:45:15Z</time>
      </trkpt>
      <trkpt lat="45.23623" lon="4.52928">
        <ele>1120.07</ele>
        <time>2020-07-11T11:45:27Z</time>
      </trkpt>
      <trkpt lat="45.23622" lon="4.52939">
        <ele>1119.11</ele>
        <time>2020-07-11T11:45:37Z</time>
      </trkpt>
      <trkpt lat="45.2362" lon="4.52969">
        <ele>1116.71</ele>
        <time>2020-07-11T11:45:51Z</time>
      </trkpt>
      <trkpt lat="45.23619" lon="4.52984">
        <ele>1115.75</ele>
        <time>2020-07-11T11:46:00Z</time>
      </trkpt>
      <trkpt lat="45.23621" lon="4.52993">
        <ele>1114.79</ele>
        <time>2020-07-11T11:46:08Z</time>
      </trkpt>
      <trkpt lat="45.23619" lon="4.53006">
        <ele>1114.79</ele>
        <time>2020-07-11T11:46:16Z</time>
      </trkpt>
      <trkpt lat="45.23619" lon="4.53025">
        <ele>1113.82</ele>
        <time>2020-07-11T11:46:29Z</time>
      </trkpt>
      <trkpt lat="45.23618" lon="4.53042">
        <ele>1113.82</ele>
        <time>2020-07-11T11:46:40Z</time>
      </trkpt>
      <trkpt lat="45.23613" lon="4.5307">
        <ele>1110.46</ele>
        <time>2020-07-11T11:46:52Z</time>
      </trkpt>
      <trkpt lat="45.23615" lon="4.53085">
        <ele>1109.5</ele>
        <time>2020-07-11T11:47:03Z</time>
      </trkpt>
      <trkpt lat="45.23615" lon="4.53104">
        <ele>1113.82</ele>
        <time>2020-07-11T11:47:17Z</time>
      </trkpt>
      <trkpt lat="45.23616" lon="4.5313">
        <ele>1112.38</ele>
        <time>2020-07-11T11:47:29Z</time>
      </trkpt>
      <trkpt lat="45.23609" lon="4.53158">
        <ele>1107.1</ele>
        <time>2020-07-11T11:47:42Z</time>
      </trkpt>
      <trkpt lat="45.23608" lon="4.53184">
        <ele>1105.17</ele>
        <time>2020-07-11T11:47:53Z</time>
      </trkpt>
      <trkpt lat="45.23603" lon="4.53203">
        <ele>1106.61</ele>
        <time>2020-07-11T11:48:07Z</time>
      </trkpt>
      <trkpt lat="45.23602" lon="4.53207">
        <ele>1108.06</ele>
        <time>2020-07-11T11:48:10Z</time>
      </trkpt>
      <trkpt lat="45.23596" lon="4.53237">
        <ele>1101.81</ele>
        <time>2020-07-11T11:48:24Z</time>
      </trkpt>
      <trkpt lat="45.23597" lon="4.53268">
        <ele>1097.96</ele>
        <time>2020-07-11T11:48:38Z</time>
      </trkpt>
      <trkpt lat="45.23596" lon="4.53294">
        <ele>1097.96</ele>
        <time>2020-07-11T11:48:53Z</time>
      </trkpt>
      <trkpt lat="45.23603" lon="4.53316">
        <ele>1098.92</ele>
        <time>2020-07-11T11:49:07Z</time>
      </trkpt>
      <trkpt lat="45.23607" lon="4.53335">
        <ele>1097.48</ele>
        <time>2020-07-11T11:49:16Z</time>
      </trkpt>
      <trkpt lat="45.23609" lon="4.53356">
        <ele>1095.08</ele>
        <time>2020-07-11T11:49:27Z</time>
      </trkpt>
      <trkpt lat="45.23616" lon="4.53373">
        <ele>1095.56</ele>
        <time>2020-07-11T11:49:40Z</time>
      </trkpt>
      <trkpt lat="45.23617" lon="4.53379">
        <ele>1095.56</ele>
        <time>2020-07-11T11:49:44Z</time>
      </trkpt>
      <trkpt lat="45.23616" lon="4.5339">
        <ele>1095.56</ele>
        <time>2020-07-11T11:49:50Z</time>
      </trkpt>
      <trkpt lat="45.2362" lon="4.53428">
        <ele>1094.6</ele>
        <time>2020-07-11T11:50:03Z</time>
      </trkpt>
      <trkpt lat="45.23623" lon="4.5345">
        <ele>1090.75</ele>
        <time>2020-07-11T11:50:13Z</time>
      </trkpt>
      <trkpt lat="45.23627" lon="4.53484">
        <ele>1079.7</ele>
        <time>2020-07-11T11:50:27Z</time>
      </trkpt>
      <trkpt lat="45.23625" lon="4.53492">
        <ele>1079.7</ele>
        <time>2020-07-11T11:50:31Z</time>
      </trkpt>
      <trkpt lat="45.23625" lon="4.53513">
        <ele>1078.26</ele>
        <time>2020-07-11T11:50:43Z</time>
      </trkpt>
      <trkpt lat="45.23623" lon="4.53532">
        <ele>1073.93</ele>
        <time>2020-07-11T11:50:56Z</time>
      </trkpt>
      <trkpt lat="45.23624" lon="4.53543">
        <ele>1060.95</ele>
        <time>2020-07-11T11:51:09Z</time>
      </trkpt>
      <trkpt lat="45.23624" lon="4.53545">
        <ele>1056.15</ele>
        <time>2020-07-11T11:51:29Z</time>
      </trkpt>
      <trkpt lat="45.23623" lon="4.53546">
        <ele>1054.22</ele>
        <time>2020-07-11T11:51:51Z</time>
      </trkpt>
      <trkpt lat="45.23622" lon="4.53546">
        <ele>1053.26</ele>
        <time>2020-07-11T11:52:01Z</time>
      </trkpt>
      <trkpt lat="45.236" lon="4.53548">
        <ele>1047.49</ele>
        <time>2020-07-11T11:52:19Z</time>
      </trkpt>
      <trkpt lat="45.2358" lon="4.53553">
        <ele>1042.69</ele>
        <time>2020-07-11T11:52:35Z</time>
      </trkpt>
      <trkpt lat="45.23567" lon="4.53572">
        <ele>1039.8</ele>
        <time>2020-07-11T11:52:49Z</time>
      </trkpt>
      <trkpt lat="45.23567" lon="4.5358">
        <ele>1039.8</ele>
        <time>2020-07-11T11:52:57Z</time>
      </trkpt>
      <trkpt lat="45.2357" lon="4.53591">
        <ele>1041.25</ele>
        <time>2020-07-11T11:53:04Z</time>
      </trkpt>
      <trkpt lat="45.23582" lon="4.5362">
        <ele>1045.09</ele>
        <time>2020-07-11T11:53:22Z</time>
      </trkpt>
      <trkpt lat="45.23594" lon="4.53641">
        <ele>1045.09</ele>
        <time>2020-07-11T11:53:38Z</time>
      </trkpt>
      <trkpt lat="45.23606" lon="4.53661">
        <ele>1044.61</ele>
        <time>2020-07-11T11:53:53Z</time>
      </trkpt>
      <trkpt lat="45.23619" lon="4.53677">
        <ele>1044.61</ele>
        <time>2020-07-11T11:54:07Z</time>
      </trkpt>
      <trkpt lat="45.23631" lon="4.53702">
        <ele>1044.61</ele>
        <time>2020-07-11T11:54:23Z</time>
      </trkpt>
      <trkpt lat="45.23634" lon="4.53731">
        <ele>1044.13</ele>
        <time>2020-07-11T11:54:39Z</time>
      </trkpt>
      <trkpt lat="45.23634" lon="4.53763">
        <ele>1044.61</ele>
        <time>2020-07-11T11:54:57Z</time>
      </trkpt>
      <trkpt lat="45.23627" lon="4.53785">
        <ele>1043.65</ele>
        <time>2020-07-11T11:55:11Z</time>
      </trkpt>
      <trkpt lat="45.23619" lon="4.53812">
        <ele>1045.09</ele>
        <time>2020-07-11T11:55:27Z</time>
      </trkpt>
      <trkpt lat="45.23614" lon="4.5384">
        <ele>1046.05</ele>
        <time>2020-07-11T11:55:43Z</time>
      </trkpt>
      <trkpt lat="45.23607" lon="4.5386">
        <ele>1048.45</ele>
        <time>2020-07-11T11:55:58Z</time>
      </trkpt>
      <trkpt lat="45.23601" lon="4.53879">
        <ele>1049.9</ele>
        <time>2020-07-11T11:56:12Z</time>
      </trkpt>
      <trkpt lat="45.23596" lon="4.53896">
        <ele>1051.82</ele>
        <time>2020-07-11T11:56:25Z</time>
      </trkpt>
      <trkpt lat="45.23602" lon="4.53911">
        <ele>1053.74</ele>
        <time>2020-07-11T11:56:41Z</time>
      </trkpt>
      <trkpt lat="45.23608" lon="4.53918">
        <ele>1054.22</ele>
        <time>2020-07-11T11:56:52Z</time>
      </trkpt>
      <trkpt lat="45.23616" lon="4.5393">
        <ele>1056.63</ele>
        <time>2020-07-11T11:57:10Z</time>
      </trkpt>
      <trkpt lat="45.23618" lon="4.53933">
        <ele>1055.67</ele>
        <time>2020-07-11T11:57:24Z</time>
      </trkpt>
      <trkpt lat="45.23621" lon="4.53934">
        <ele>1055.18</ele>
        <time>2020-07-11T11:57:40Z</time>
      </trkpt>
      <trkpt lat="45.23628" lon="4.53933">
        <ele>1055.67</ele>
        <time>2020-07-11T11:57:52Z</time>
      </trkpt>
      <trkpt lat="45.23629" lon="4.53933">
        <ele>1055.67</ele>
        <time>2020-07-11T11:57:55Z</time>
      </trkpt>
      <trkpt lat="45.23634" lon="4.5393">
        <ele>1056.15</ele>
        <time>2020-07-11T11:58:00Z</time>
      </trkpt>
      <trkpt lat="45.23651" lon="4.53921">
        <ele>1058.07</ele>
        <time>2020-07-11T11:58:16Z</time>
      </trkpt>
      <trkpt lat="45.23661" lon="4.53916">
        <ele>1059.03</ele>
        <time>2020-07-11T11:58:29Z</time>
      </trkpt>
      <trkpt lat="45.23662" lon="4.53915">
        <ele>1059.99</ele>
        <time>2020-07-11T11:58:31Z</time>
      </trkpt>
      <trkpt lat="45.23675" lon="4.53906">
        <ele>1064.32</ele>
        <time>2020-07-11T11:58:45Z</time>
      </trkpt>
      <trkpt lat="45.23676" lon="4.53906">
        <ele>1064.8</ele>
        <time>2020-07-11T11:58:46Z</time>
      </trkpt>
      <trkpt lat="45.23691" lon="4.53892">
        <ele>1068.64</ele>
        <time>2020-07-11T11:59:01Z</time>
      </trkpt>
      <trkpt lat="45.23707" lon="4.53887">
        <ele>1072.97</ele>
        <time>2020-07-11T11:59:14Z</time>
      </trkpt>
      <trkpt lat="45.23721" lon="4.53879">
        <ele>1074.89</ele>
        <time>2020-07-11T11:59:27Z</time>
      </trkpt>
      <trkpt lat="45.23727" lon="4.53871">
        <ele>1074.89</ele>
        <time>2020-07-11T11:59:44Z</time>
      </trkpt>
      <trkpt lat="45.23739" lon="4.5387">
        <ele>1072.49</ele>
        <time>2020-07-11T11:59:56Z</time>
      </trkpt>
      <trkpt lat="45.23749" lon="4.53862">
        <ele>1072.01</ele>
        <time>2020-07-11T12:00:14Z</time>
      </trkpt>
      <trkpt lat="45.2376" lon="4.53852">
        <ele>1073.45</ele>
        <time>2020-07-11T12:00:28Z</time>
      </trkpt>
      <trkpt lat="45.23773" lon="4.53849">
        <ele>1073.93</ele>
        <time>2020-07-11T12:00:41Z</time>
      </trkpt>
      <trkpt lat="45.23787" lon="4.53842">
        <ele>1073.93</ele>
        <time>2020-07-11T12:00:57Z</time>
      </trkpt>
      <trkpt lat="45.23806" lon="4.53834">
        <ele>1077.29</ele>
        <time>2020-07-11T12:01:16Z</time>
      </trkpt>
      <trkpt lat="45.23825" lon="4.53826">
        <ele>1079.7</ele>
        <time>2020-07-11T12:01:32Z</time>
      </trkpt>
      <trkpt lat="45.23839" lon="4.53821">
        <ele>1084.02</ele>
        <time>2020-07-11T12:01:46Z</time>
      </trkpt>
      <trkpt lat="45.23853" lon="4.5382">
        <ele>1090.27</ele>
        <time>2020-07-11T12:02:01Z</time>
      </trkpt>
      <trkpt lat="45.23869" lon="4.53819">
        <ele>1093.64</ele>
        <time>2020-07-11T12:02:15Z</time>
      </trkpt>
      <trkpt lat="45.2389" lon="4.53825">
        <ele>1089.31</ele>
        <time>2020-07-11T12:02:29Z</time>
      </trkpt>
      <trkpt lat="45.23904" lon="4.53825">
        <ele>1090.27</ele>
        <time>2020-07-11T12:02:44Z</time>
      </trkpt>
      <trkpt lat="45.23917" lon="4.53817">
        <ele>1095.08</ele>
        <time>2020-07-11T12:02:59Z</time>
      </trkpt>
      <trkpt lat="45.23938" lon="4.53817">
        <ele>1096.52</ele>
        <time>2020-07-11T12:03:13Z</time>
      </trkpt>
      <trkpt lat="45.23952" lon="4.53814">
        <ele>1101.81</ele>
        <time>2020-07-11T12:03:27Z</time>
      </trkpt>
      <trkpt lat="45.23954" lon="4.53813">
        <ele>1102.77</ele>
        <time>2020-07-11T12:03:29Z</time>
      </trkpt>
      <trkpt lat="45.23972" lon="4.53813">
        <ele>1107.1</ele>
        <time>2020-07-11T12:03:45Z</time>
      </trkpt>
      <trkpt lat="45.23999" lon="4.5382">
        <ele>1102.29</ele>
        <time>2020-07-11T12:03:58Z</time>
      </trkpt>
      <trkpt lat="45.24004" lon="4.5382">
        <ele>1102.29</ele>
        <time>2020-07-11T12:04:02Z</time>
      </trkpt>
      <trkpt lat="45.24016" lon="4.53814">
        <ele>1100.85</ele>
        <time>2020-07-11T12:04:15Z</time>
      </trkpt>
      <trkpt lat="45.24022" lon="4.53788">
        <ele>1097.96</ele>
        <time>2020-07-11T12:04:30Z</time>
      </trkpt>
      <trkpt lat="45.24022" lon="4.53783">
        <ele>1096.52</ele>
        <time>2020-07-11T12:04:32Z</time>
      </trkpt>
      <trkpt lat="45.2402" lon="4.53764">
        <ele>1091.23</ele>
        <time>2020-07-11T12:04:46Z</time>
      </trkpt>
      <trkpt lat="45.24021" lon="4.53762">
        <ele>1090.75</ele>
        <time>2020-07-11T12:04:48Z</time>
      </trkpt>
      <trkpt lat="45.24022" lon="4.53743">
        <ele>1086.91</ele>
        <time>2020-07-11T12:05:02Z</time>
      </trkpt>
      <trkpt lat="45.2402" lon="4.5372">
        <ele>1085.47</ele>
        <time>2020-07-11T12:05:18Z</time>
      </trkpt>
      <trkpt lat="45.24021" lon="4.53718">
        <ele>1082.1</ele>
        <time>2020-07-11T12:05:32Z</time>
      </trkpt>
      <trkpt lat="45.24023" lon="4.53716">
        <ele>1079.7</ele>
        <time>2020-07-11T12:05:51Z</time>
      </trkpt>
      <trkpt lat="45.24023" lon="4.53716">
        <ele>1080.66</ele>
        <time>2020-07-11T12:06:05Z</time>
      </trkpt>
      <trkpt lat="45.24024" lon="4.53714">
        <ele>1079.7</ele>
        <time>2020-07-11T12:06:23Z</time>
      </trkpt>
      <trkpt lat="45.24024" lon="4.53713">
        <ele>1077.78</ele>
        <time>2020-07-11T12:06:50Z</time>
      </trkpt>
      <trkpt lat="45.24023" lon="4.53711">
        <ele>1077.78</ele>
        <time>2020-07-11T12:07:13Z</time>
      </trkpt>
      <trkpt lat="45.24023" lon="4.53711">
        <ele>1078.26</ele>
        <time>2020-07-11T12:07:40Z</time>
      </trkpt>
      <trkpt lat="45.24023" lon="4.53712">
        <ele>1079.22</ele>
        <time>2020-07-11T12:08:08Z</time>
      </trkpt>
      <trkpt lat="45.24023" lon="4.53712">
        <ele>1079.22</ele>
        <time>2020-07-11T12:08:28Z</time>
      </trkpt>
      <trkpt lat="45.24026" lon="4.53707">
        <ele>1079.22</ele>
        <time>2020-07-11T12:08:39Z</time>
      </trkpt>
      <trkpt lat="45.24031" lon="4.53692">
        <ele>1081.62</ele>
        <time>2020-07-11T12:08:53Z</time>
      </trkpt>
      <trkpt lat="45.24041" lon="4.53674">
        <ele>1084.5</ele>
        <time>2020-07-11T12:09:07Z</time>
      </trkpt>
      <trkpt lat="45.24059" lon="4.53636">
        <ele>1081.62</ele>
        <time>2020-07-11T12:09:24Z</time>
      </trkpt>
      <trkpt lat="45.24077" lon="4.53607">
        <ele>1077.78</ele>
        <time>2020-07-11T12:09:40Z</time>
      </trkpt>
      <trkpt lat="45.24092" lon="4.53587">
        <ele>1079.22</ele>
        <time>2020-07-11T12:09:57Z</time>
      </trkpt>
      <trkpt lat="45.24105" lon="4.53571">
        <ele>1078.26</ele>
        <time>2020-07-11T12:10:14Z</time>
      </trkpt>
      <trkpt lat="45.24109" lon="4.53568">
        <ele>1079.22</ele>
        <time>2020-07-11T12:10:21Z</time>
      </trkpt>
      <trkpt lat="45.24116" lon="4.53564">
        <ele>1078.74</ele>
        <time>2020-07-11T12:10:30Z</time>
      </trkpt>
      <trkpt lat="45.24134" lon="4.53536">
        <ele>1079.22</ele>
        <time>2020-07-11T12:10:48Z</time>
      </trkpt>
      <trkpt lat="45.2415" lon="4.53511">
        <ele>1078.74</ele>
        <time>2020-07-11T12:11:03Z</time>
      </trkpt>
      <trkpt lat="45.24162" lon="4.5349">
        <ele>1078.26</ele>
        <time>2020-07-11T12:11:18Z</time>
      </trkpt>
      <trkpt lat="45.24166" lon="4.53482">
        <ele>1077.78</ele>
        <time>2020-07-11T12:11:24Z</time>
      </trkpt>
      <trkpt lat="45.24175" lon="4.53461">
        <ele>1076.81</ele>
        <time>2020-07-11T12:11:36Z</time>
      </trkpt>
      <trkpt lat="45.2418" lon="4.5344">
        <ele>1075.85</ele>
        <time>2020-07-11T12:11:48Z</time>
      </trkpt>
      <trkpt lat="45.2418" lon="4.53426">
        <ele>1076.33</ele>
        <time>2020-07-11T12:12:00Z</time>
      </trkpt>
      <trkpt lat="45.24181" lon="4.53404">
        <ele>1077.78</ele>
        <time>2020-07-11T12:12:15Z</time>
      </trkpt>
      <trkpt lat="45.24181" lon="4.53379">
        <ele>1078.26</ele>
        <time>2020-07-11T12:12:30Z</time>
      </trkpt>
      <trkpt lat="45.24189" lon="4.53341">
        <ele>1077.78</ele>
        <time>2020-07-11T12:12:46Z</time>
      </trkpt>
      <trkpt lat="45.24201" lon="4.53324">
        <ele>1079.22</ele>
        <time>2020-07-11T12:13:00Z</time>
      </trkpt>
      <trkpt lat="45.24221" lon="4.53332">
        <ele>1084.5</ele>
        <time>2020-07-11T12:13:17Z</time>
      </trkpt>
      <trkpt lat="45.24228" lon="4.53344">
        <ele>1085.47</ele>
        <time>2020-07-11T12:13:24Z</time>
      </trkpt>
      <trkpt lat="45.24232" lon="4.53349">
        <ele>1084.5</ele>
        <time>2020-07-11T12:13:26Z</time>
      </trkpt>
      <trkpt lat="45.24244" lon="4.53376">
        <ele>1086.91</ele>
        <time>2020-07-11T12:13:38Z</time>
      </trkpt>
      <trkpt lat="45.24251" lon="4.53381">
        <ele>1086.43</ele>
        <time>2020-07-11T12:13:42Z</time>
      </trkpt>
      <trkpt lat="45.24262" lon="4.53396">
        <ele>1086.91</ele>
        <time>2020-07-11T12:13:55Z</time>
      </trkpt>
      <trkpt lat="45.24267" lon="4.534">
        <ele>1087.87</ele>
        <time>2020-07-11T12:14:01Z</time>
      </trkpt>
      <trkpt lat="45.24278" lon="4.53422">
        <ele>1085.95</ele>
        <time>2020-07-11T12:14:17Z</time>
      </trkpt>
      <trkpt lat="45.2429" lon="4.53439">
        <ele>1084.5</ele>
        <time>2020-07-11T12:14:32Z</time>
      </trkpt>
      <trkpt lat="45.24302" lon="4.53464">
        <ele>1081.62</ele>
        <time>2020-07-11T12:14:47Z</time>
      </trkpt>
      <trkpt lat="45.24308" lon="4.53491">
        <ele>1083.06</ele>
        <time>2020-07-11T12:15:02Z</time>
      </trkpt>
      <trkpt lat="45.24318" lon="4.53517">
        <ele>1081.14</ele>
        <time>2020-07-11T12:15:17Z</time>
      </trkpt>
      <trkpt lat="45.24331" lon="4.53537">
        <ele>1079.7</ele>
        <time>2020-07-11T12:15:34Z</time>
      </trkpt>
      <trkpt lat="45.24339" lon="4.53549">
        <ele>1080.18</ele>
        <time>2020-07-11T12:15:46Z</time>
      </trkpt>
      <trkpt lat="45.24351" lon="4.53558">
        <ele>1082.1</ele>
        <time>2020-07-11T12:16:00Z</time>
      </trkpt>
      <trkpt lat="45.24363" lon="4.53573">
        <ele>1085.95</ele>
        <time>2020-07-11T12:16:16Z</time>
      </trkpt>
      <trkpt lat="45.24377" lon="4.53593">
        <ele>1090.27</ele>
        <time>2020-07-11T12:16:30Z</time>
      </trkpt>
      <trkpt lat="45.24393" lon="4.53615">
        <ele>1092.2</ele>
        <time>2020-07-11T12:16:43Z</time>
      </trkpt>
      <trkpt lat="45.24407" lon="4.53637">
        <ele>1088.83</ele>
        <time>2020-07-11T12:16:57Z</time>
      </trkpt>
      <trkpt lat="45.24413" lon="4.53642">
        <ele>1086.91</ele>
        <time>2020-07-11T12:17:03Z</time>
      </trkpt>
      <trkpt lat="45.24417" lon="4.53645">
        <ele>1086.43</ele>
        <time>2020-07-11T12:17:08Z</time>
      </trkpt>
      <trkpt lat="45.24424" lon="4.53654">
        <ele>1087.39</ele>
        <time>2020-07-11T12:17:14Z</time>
      </trkpt>
      <trkpt lat="45.24439" lon="4.53655">
        <ele>1087.87</ele>
        <time>2020-07-11T12:17:30Z</time>
      </trkpt>
      <trkpt lat="45.2445" lon="4.53654">
        <ele>1092.2</ele>
        <time>2020-07-11T12:17:42Z</time>
      </trkpt>
      <trkpt lat="45.24461" lon="4.53655">
        <ele>1096.04</ele>
        <time>2020-07-11T12:17:55Z</time>
      </trkpt>
      <trkpt lat="45.24472" lon="4.53662">
        <ele>1099.89</ele>
        <time>2020-07-11T12:18:06Z</time>
      </trkpt>
      <trkpt lat="45.24483" lon="4.53669">
        <ele>1103.73</ele>
        <time>2020-07-11T12:18:17Z</time>
      </trkpt>
      <trkpt lat="45.24496" lon="4.53664">
        <ele>1107.58</ele>
        <time>2020-07-11T12:18:31Z</time>
      </trkpt>
      <trkpt lat="45.24514" lon="4.53663">
        <ele>1108.06</ele>
        <time>2020-07-11T12:18:43Z</time>
      </trkpt>
      <trkpt lat="45.24528" lon="4.53658">
        <ele>1114.31</ele>
        <time>2020-07-11T12:18:58Z</time>
      </trkpt>
      <trkpt lat="45.24539" lon="4.5366">
        <ele>1118.15</ele>
        <time>2020-07-11T12:19:08Z</time>
      </trkpt>
      <trkpt lat="45.24541" lon="4.53661">
        <ele>1119.11</ele>
        <time>2020-07-11T12:19:10Z</time>
      </trkpt>
      <trkpt lat="45.24562" lon="4.53662">
        <ele>1119.11</ele>
        <time>2020-07-11T12:19:24Z</time>
      </trkpt>
      <trkpt lat="45.24575" lon="4.53658">
        <ele>1122.96</ele>
        <time>2020-07-11T12:19:34Z</time>
      </trkpt>
      <trkpt lat="45.24591" lon="4.53657">
        <ele>1122.96</ele>
        <time>2020-07-11T12:19:41Z</time>
      </trkpt>
      <trkpt lat="45.24597" lon="4.53658">
        <ele>1124.4</ele>
        <time>2020-07-11T12:19:46Z</time>
      </trkpt>
      <trkpt lat="45.24609" lon="4.53662">
        <ele>1128.24</ele>
        <time>2020-07-11T12:19:57Z</time>
      </trkpt>
      <trkpt lat="45.24626" lon="4.53666">
        <ele>1126.8</ele>
        <time>2020-07-11T12:20:10Z</time>
      </trkpt>
      <trkpt lat="45.24641" lon="4.53669">
        <ele>1128.73</ele>
        <time>2020-07-11T12:20:24Z</time>
      </trkpt>
      <trkpt lat="45.24663" lon="4.53666">
        <ele>1131.61</ele>
        <time>2020-07-11T12:20:37Z</time>
      </trkpt>
      <trkpt lat="45.24678" lon="4.53676">
        <ele>1129.21</ele>
        <time>2020-07-11T12:20:49Z</time>
      </trkpt>
      <trkpt lat="45.24694" lon="4.53685">
        <ele>1124.88</ele>
        <time>2020-07-11T12:21:04Z</time>
      </trkpt>
      <trkpt lat="45.24711" lon="4.53702">
        <ele>1118.15</ele>
        <time>2020-07-11T12:21:18Z</time>
      </trkpt>
      <trkpt lat="45.2473" lon="4.537">
        <ele>1112.86</ele>
        <time>2020-07-11T12:21:31Z</time>
      </trkpt>
      <trkpt lat="45.24747" lon="4.53699">
        <ele>1112.86</ele>
        <time>2020-07-11T12:21:45Z</time>
      </trkpt>
      <trkpt lat="45.2476" lon="4.5371">
        <ele>1116.71</ele>
        <time>2020-07-11T12:21:59Z</time>
      </trkpt>
      <trkpt lat="45.24769" lon="4.53724">
        <ele>1124.4</ele>
        <time>2020-07-11T12:22:12Z</time>
      </trkpt>
      <trkpt lat="45.24781" lon="4.53749">
        <ele>1126.8</ele>
        <time>2020-07-11T12:22:29Z</time>
      </trkpt>
      <trkpt lat="45.24785" lon="4.53763">
        <ele>1125.84</ele>
        <time>2020-07-11T12:22:34Z</time>
      </trkpt>
      <trkpt lat="45.248" lon="4.53791">
        <ele>1114.31</ele>
        <time>2020-07-11T12:22:46Z</time>
      </trkpt>
      <trkpt lat="45.24815" lon="4.53809">
        <ele>1112.86</ele>
        <time>2020-07-11T12:23:01Z</time>
      </trkpt>
      <trkpt lat="45.24817" lon="4.53814">
        <ele>1112.38</ele>
        <time>2020-07-11T12:23:04Z</time>
      </trkpt>
      <trkpt lat="45.24824" lon="4.53828">
        <ele>1112.38</ele>
        <time>2020-07-11T12:23:11Z</time>
      </trkpt>
      <trkpt lat="45.24838" lon="4.5385">
        <ele>1110.46</ele>
        <time>2020-07-11T12:23:24Z</time>
      </trkpt>
      <trkpt lat="45.24849" lon="4.53879">
        <ele>1108.06</ele>
        <time>2020-07-11T12:23:38Z</time>
      </trkpt>
      <trkpt lat="45.24855" lon="4.5389">
        <ele>1103.25</ele>
        <time>2020-07-11T12:23:41Z</time>
      </trkpt>
      <trkpt lat="45.24862" lon="4.53901">
        <ele>1100.37</ele>
        <time>2020-07-11T12:23:48Z</time>
      </trkpt>
      <trkpt lat="45.24871" lon="4.53923">
        <ele>1096.04</ele>
        <time>2020-07-11T12:24:02Z</time>
      </trkpt>
      <trkpt lat="45.2488" lon="4.53923">
        <ele>1096.52</ele>
        <time>2020-07-11T12:24:15Z</time>
      </trkpt>
      <trkpt lat="45.24883" lon="4.53921">
        <ele>1096.04</ele>
        <time>2020-07-11T12:24:18Z</time>
      </trkpt>
      <trkpt lat="45.24902" lon="4.53912">
        <ele>1092.2</ele>
        <time>2020-07-11T12:24:34Z</time>
      </trkpt>
      <trkpt lat="45.24915" lon="4.5391">
        <ele>1092.2</ele>
        <time>2020-07-11T12:24:45Z</time>
      </trkpt>
      <trkpt lat="45.24935" lon="4.5391">
        <ele>1099.89</ele>
        <time>2020-07-11T12:25:01Z</time>
      </trkpt>
      <trkpt lat="45.24954" lon="4.53915">
        <ele>1101.81</ele>
        <time>2020-07-11T12:25:16Z</time>
      </trkpt>
      <trkpt lat="45.24972" lon="4.53918">
        <ele>1102.29</ele>
        <time>2020-07-11T12:25:29Z</time>
      </trkpt>
      <trkpt lat="45.24996" lon="4.5391">
        <ele>1101.81</ele>
        <time>2020-07-11T12:25:44Z</time>
      </trkpt>
      <trkpt lat="45.25006" lon="4.53909">
        <ele>1101.33</ele>
        <time>2020-07-11T12:25:51Z</time>
      </trkpt>
      <trkpt lat="45.25028" lon="4.53904">
        <ele>1097.48</ele>
        <time>2020-07-11T12:26:08Z</time>
      </trkpt>
      <trkpt lat="45.25046" lon="4.53901">
        <ele>1094.6</ele>
        <time>2020-07-11T12:26:23Z</time>
      </trkpt>
      <trkpt lat="45.25063" lon="4.53888">
        <ele>1095.56</ele>
        <time>2020-07-11T12:26:39Z</time>
      </trkpt>
      <trkpt lat="45.25071" lon="4.53882">
        <ele>1097</ele>
        <time>2020-07-11T12:26:47Z</time>
      </trkpt>
      <trkpt lat="45.25088" lon="4.5387">
        <ele>1098.44</ele>
        <time>2020-07-11T12:27:02Z</time>
      </trkpt>
      <trkpt lat="45.25102" lon="4.5386">
        <ele>1099.89</ele>
        <time>2020-07-11T12:27:16Z</time>
      </trkpt>
      <trkpt lat="45.25116" lon="4.53859">
        <ele>1104.21</ele>
        <time>2020-07-11T12:27:30Z</time>
      </trkpt>
      <trkpt lat="45.25129" lon="4.53859">
        <ele>1111.9</ele>
        <time>2020-07-11T12:27:43Z</time>
      </trkpt>
      <trkpt lat="45.25144" lon="4.5386">
        <ele>1116.71</ele>
        <time>2020-07-11T12:27:55Z</time>
      </trkpt>
      <trkpt lat="45.25158" lon="4.53859">
        <ele>1120.55</ele>
        <time>2020-07-11T12:28:09Z</time>
      </trkpt>
      <trkpt lat="45.25161" lon="4.5386">
        <ele>1122.96</ele>
        <time>2020-07-11T12:28:23Z</time>
      </trkpt>
      <trkpt lat="45.25161" lon="4.53862">
        <ele>1124.4</ele>
        <time>2020-07-11T12:28:38Z</time>
      </trkpt>
      <trkpt lat="45.25162" lon="4.53867">
        <ele>1124.4</ele>
        <time>2020-07-11T12:29:06Z</time>
      </trkpt>
      <trkpt lat="45.25162" lon="4.5387">
        <ele>1124.4</ele>
        <time>2020-07-11T12:29:26Z</time>
      </trkpt>
      <trkpt lat="45.25162" lon="4.53871">
        <ele>1123.92</ele>
        <time>2020-07-11T12:29:49Z</time>
      </trkpt>
      <trkpt lat="45.25164" lon="4.53871">
        <ele>1122</ele>
        <time>2020-07-11T12:30:08Z</time>
      </trkpt>
      <trkpt lat="45.25165" lon="4.53872">
        <ele>1122.96</ele>
        <time>2020-07-11T12:30:31Z</time>
      </trkpt>
      <trkpt lat="45.25166" lon="4.53868">
        <ele>1122.48</ele>
        <time>2020-07-11T12:30:58Z</time>
      </trkpt>
      <trkpt lat="45.25166" lon="4.53867">
        <ele>1122</ele>
        <time>2020-07-11T12:31:23Z</time>
      </trkpt>
      <trkpt lat="45.25166" lon="4.53868">
        <ele>1121.52</ele>
        <time>2020-07-11T12:31:43Z</time>
      </trkpt>
      <trkpt lat="45.25166" lon="4.53867">
        <ele>1121.03</ele>
        <time>2020-07-11T12:31:58Z</time>
      </trkpt>
      <trkpt lat="45.25166" lon="4.53868">
        <ele>1119.59</ele>
        <time>2020-07-11T12:32:18Z</time>
      </trkpt>
      <trkpt lat="45.25167" lon="4.53868">
        <ele>1117.19</ele>
        <time>2020-07-11T12:32:43Z</time>
      </trkpt>
      <trkpt lat="45.25167" lon="4.53867">
        <ele>1116.71</ele>
        <time>2020-07-11T12:33:00Z</time>
      </trkpt>
      <trkpt lat="45.25163" lon="4.53864">
        <ele>1118.15</ele>
        <time>2020-07-11T12:33:12Z</time>
      </trkpt>
      <trkpt lat="45.25153" lon="4.5386">
        <ele>1122.48</ele>
        <time>2020-07-11T12:33:26Z</time>
      </trkpt>
      <trkpt lat="45.25151" lon="4.5386">
        <ele>1123.44</ele>
        <time>2020-07-11T12:33:28Z</time>
      </trkpt>
      <trkpt lat="45.25139" lon="4.53852">
        <ele>1126.8</ele>
        <time>2020-07-11T12:33:41Z</time>
      </trkpt>
      <trkpt lat="45.25133" lon="4.53852">
        <ele>1129.69</ele>
        <time>2020-07-11T12:33:48Z</time>
      </trkpt>
      <trkpt lat="45.25115" lon="4.5384">
        <ele>1130.17</ele>
        <time>2020-07-11T12:34:02Z</time>
      </trkpt>
      <trkpt lat="45.25106" lon="4.5383">
        <ele>1137.86</ele>
        <time>2020-07-11T12:34:16Z</time>
      </trkpt>
      <trkpt lat="45.25091" lon="4.53818">
        <ele>1141.22</ele>
        <time>2020-07-11T12:34:26Z</time>
      </trkpt>
      <trkpt lat="45.25085" lon="4.53808">
        <ele>1144.11</ele>
        <time>2020-07-11T12:34:36Z</time>
      </trkpt>
      <trkpt lat="45.25073" lon="4.53799">
        <ele>1149.39</ele>
        <time>2020-07-11T12:34:51Z</time>
      </trkpt>
      <trkpt lat="45.2506" lon="4.53786">
        <ele>1150.35</ele>
        <time>2020-07-11T12:35:06Z</time>
      </trkpt>
      <trkpt lat="45.25049" lon="4.53766">
        <ele>1151.32</ele>
        <time>2020-07-11T12:35:21Z</time>
      </trkpt>
      <trkpt lat="45.25044" lon="4.53749">
        <ele>1156.12</ele>
        <time>2020-07-11T12:35:34Z</time>
      </trkpt>
      <trkpt lat="45.25041" lon="4.53744">
        <ele>1158.05</ele>
        <time>2020-07-11T12:35:39Z</time>
      </trkpt>
      <trkpt lat="45.25032" lon="4.53723">
        <ele>1160.45</ele>
        <time>2020-07-11T12:35:53Z</time>
      </trkpt>
      <trkpt lat="45.2503" lon="4.53718">
        <ele>1159.97</ele>
        <time>2020-07-11T12:35:57Z</time>
      </trkpt>
      <trkpt lat="45.25029" lon="4.53714">
        <ele>1160.45</ele>
        <time>2020-07-11T12:35:59Z</time>
      </trkpt>
      <trkpt lat="45.25017" lon="4.53699">
        <ele>1161.89</ele>
        <time>2020-07-11T12:36:12Z</time>
      </trkpt>
      <trkpt lat="45.25005" lon="4.53682">
        <ele>1160.45</ele>
        <time>2020-07-11T12:36:23Z</time>
      </trkpt>
      <trkpt lat="45.25003" lon="4.5368">
        <ele>1160.45</ele>
        <time>2020-07-11T12:36:25Z</time>
      </trkpt>
      <trkpt lat="45.24991" lon="4.53673">
        <ele>1156.6</ele>
        <time>2020-07-11T12:36:31Z</time>
      </trkpt>
      <trkpt lat="45.24969" lon="4.53662">
        <ele>1151.32</ele>
        <time>2020-07-11T12:36:43Z</time>
      </trkpt>
      <trkpt lat="45.24958" lon="4.53655">
        <ele>1150.84</ele>
        <time>2020-07-11T12:36:54Z</time>
      </trkpt>
      <trkpt lat="45.24956" lon="4.53653">
        <ele>1151.8</ele>
        <time>2020-07-11T12:36:57Z</time>
      </trkpt>
      <trkpt lat="45.24938" lon="4.53644">
        <ele>1151.32</ele>
        <time>2020-07-11T12:37:12Z</time>
      </trkpt>
      <trkpt lat="45.24937" lon="4.53643">
        <ele>1150.35</ele>
        <time>2020-07-11T12:37:13Z</time>
      </trkpt>
      <trkpt lat="45.24933" lon="4.5364">
        <ele>1150.84</ele>
        <time>2020-07-11T12:37:18Z</time>
      </trkpt>
      <trkpt lat="45.24925" lon="4.53624">
        <ele>1152.76</ele>
        <time>2020-07-11T12:37:32Z</time>
      </trkpt>
      <trkpt lat="45.24914" lon="4.53613">
        <ele>1151.32</ele>
        <time>2020-07-11T12:37:42Z</time>
      </trkpt>
      <trkpt lat="45.24918" lon="4.53601">
        <ele>1150.84</ele>
        <time>2020-07-11T12:37:53Z</time>
      </trkpt>
      <trkpt lat="45.24931" lon="4.53596">
        <ele>1151.8</ele>
        <time>2020-07-11T12:38:05Z</time>
      </trkpt>
      <trkpt lat="45.2495" lon="4.53587">
        <ele>1153.72</ele>
        <time>2020-07-11T12:38:20Z</time>
      </trkpt>
      <trkpt lat="45.2497" lon="4.53589">
        <ele>1150.35</ele>
        <time>2020-07-11T12:38:34Z</time>
      </trkpt>
      <trkpt lat="45.2499" lon="4.53587">
        <ele>1146.99</ele>
        <time>2020-07-11T12:38:49Z</time>
      </trkpt>
      <trkpt lat="45.25008" lon="4.53581">
        <ele>1147.47</ele>
        <time>2020-07-11T12:39:03Z</time>
      </trkpt>
      <trkpt lat="45.25009" lon="4.5358">
        <ele>1146.99</ele>
        <time>2020-07-11T12:39:04Z</time>
      </trkpt>
      <trkpt lat="45.2502" lon="4.53565">
        <ele>1147.47</ele>
        <time>2020-07-11T12:39:18Z</time>
      </trkpt>
      <trkpt lat="45.25022" lon="4.53553">
        <ele>1148.43</ele>
        <time>2020-07-11T12:39:26Z</time>
      </trkpt>
      <trkpt lat="45.25029" lon="4.53532">
        <ele>1148.91</ele>
        <time>2020-07-11T12:39:40Z</time>
      </trkpt>
      <trkpt lat="45.25042" lon="4.53504">
        <ele>1152.28</ele>
        <time>2020-07-11T12:39:57Z</time>
      </trkpt>
      <trkpt lat="45.25048" lon="4.53491">
        <ele>1153.72</ele>
        <time>2020-07-11T12:40:06Z</time>
      </trkpt>
      <trkpt lat="45.25055" lon="4.53482">
        <ele>1154.68</ele>
        <time>2020-07-11T12:40:14Z</time>
      </trkpt>
      <trkpt lat="45.25066" lon="4.53485">
        <ele>1155.64</ele>
        <time>2020-07-11T12:40:25Z</time>
      </trkpt>
      <trkpt lat="45.25079" lon="4.53493">
        <ele>1159.01</ele>
        <time>2020-07-11T12:40:39Z</time>
      </trkpt>
      <trkpt lat="45.25097" lon="4.53498">
        <ele>1162.85</ele>
        <time>2020-07-11T12:40:55Z</time>
      </trkpt>
      <trkpt lat="45.25114" lon="4.53496">
        <ele>1165.74</ele>
        <time>2020-07-11T12:41:11Z</time>
      </trkpt>
      <trkpt lat="45.25124" lon="4.5349">
        <ele>1167.18</ele>
        <time>2020-07-11T12:41:20Z</time>
      </trkpt>
      <trkpt lat="45.25148" lon="4.53488">
        <ele>1166.7</ele>
        <time>2020-07-11T12:41:34Z</time>
      </trkpt>
      <trkpt lat="45.25157" lon="4.53473">
        <ele>1170.06</ele>
        <time>2020-07-11T12:41:45Z</time>
      </trkpt>
      <trkpt lat="45.25165" lon="4.5346">
        <ele>1171.02</ele>
        <time>2020-07-11T12:41:55Z</time>
      </trkpt>
      <trkpt lat="45.25171" lon="4.53443">
        <ele>1171.5</ele>
        <time>2020-07-11T12:42:05Z</time>
      </trkpt>
      <trkpt lat="45.25172" lon="4.53438">
        <ele>1170.54</ele>
        <time>2020-07-11T12:42:09Z</time>
      </trkpt>
      <trkpt lat="45.25184" lon="4.53423">
        <ele>1166.22</ele>
        <time>2020-07-11T12:42:25Z</time>
      </trkpt>
      <trkpt lat="45.25196" lon="4.53404">
        <ele>1162.37</ele>
        <time>2020-07-11T12:42:38Z</time>
      </trkpt>
      <trkpt lat="45.252" lon="4.53388">
        <ele>1158.53</ele>
        <time>2020-07-11T12:42:49Z</time>
      </trkpt>
      <trkpt lat="45.25198" lon="4.53364">
        <ele>1154.68</ele>
        <time>2020-07-11T12:43:04Z</time>
      </trkpt>
      <trkpt lat="45.25195" lon="4.53349">
        <ele>1156.12</ele>
        <time>2020-07-11T12:43:15Z</time>
      </trkpt>
      <trkpt lat="45.25188" lon="4.53331">
        <ele>1155.64</ele>
        <time>2020-07-11T12:43:29Z</time>
      </trkpt>
      <trkpt lat="45.25193" lon="4.53312">
        <ele>1157.08</ele>
        <time>2020-07-11T12:43:46Z</time>
      </trkpt>
      <trkpt lat="45.25196" lon="4.53308">
        <ele>1158.05</ele>
        <time>2020-07-11T12:43:50Z</time>
      </trkpt>
      <trkpt lat="45.25211" lon="4.53294">
        <ele>1158.53</ele>
        <time>2020-07-11T12:44:02Z</time>
      </trkpt>
      <trkpt lat="45.25211" lon="4.53294">
        <ele>1158.05</ele>
        <time>2020-07-11T12:44:03Z</time>
      </trkpt>
      <trkpt lat="45.25227" lon="4.53305">
        <ele>1157.08</ele>
        <time>2020-07-11T12:44:18Z</time>
      </trkpt>
      <trkpt lat="45.2523" lon="4.53307">
        <ele>1156.6</ele>
        <time>2020-07-11T12:44:22Z</time>
      </trkpt>
      <trkpt lat="45.25234" lon="4.53308">
        <ele>1156.12</ele>
        <time>2020-07-11T12:44:26Z</time>
      </trkpt>
      <trkpt lat="45.25242" lon="4.53317">
        <ele>1150.84</ele>
        <time>2020-07-11T12:44:37Z</time>
      </trkpt>
      <trkpt lat="45.25247" lon="4.53335">
        <ele>1146.99</ele>
        <time>2020-07-11T12:44:49Z</time>
      </trkpt>
      <trkpt lat="45.25248" lon="4.53337">
        <ele>1145.07</ele>
        <time>2020-07-11T12:45:09Z</time>
      </trkpt>
      <trkpt lat="45.25249" lon="4.53339">
        <ele>1142.18</ele>
        <time>2020-07-11T12:45:29Z</time>
      </trkpt>
      <trkpt lat="45.25245" lon="4.53355">
        <ele>1141.7</ele>
        <time>2020-07-11T12:45:41Z</time>
      </trkpt>
      <trkpt lat="45.25247" lon="4.53371">
        <ele>1144.59</ele>
        <time>2020-07-11T12:45:54Z</time>
      </trkpt>
      <trkpt lat="45.25256" lon="4.53396">
        <ele>1142.18</ele>
        <time>2020-07-11T12:46:08Z</time>
      </trkpt>
      <trkpt lat="45.25264" lon="4.53406">
        <ele>1140.74</ele>
        <time>2020-07-11T12:46:22Z</time>
      </trkpt>
      <trkpt lat="45.25274" lon="4.53427">
        <ele>1140.26</ele>
        <time>2020-07-11T12:46:34Z</time>
      </trkpt>
      <trkpt lat="45.25278" lon="4.53457">
        <ele>1139.78</ele>
        <time>2020-07-11T12:46:48Z</time>
      </trkpt>
      <trkpt lat="45.2528" lon="4.53469">
        <ele>1138.34</ele>
        <time>2020-07-11T12:46:56Z</time>
      </trkpt>
      <trkpt lat="45.25286" lon="4.53482">
        <ele>1136.9</ele>
        <time>2020-07-11T12:47:08Z</time>
      </trkpt>
      <trkpt lat="45.25294" lon="4.53499">
        <ele>1137.38</ele>
        <time>2020-07-11T12:47:21Z</time>
      </trkpt>
      <trkpt lat="45.25296" lon="4.53511">
        <ele>1136.9</ele>
        <time>2020-07-11T12:47:35Z</time>
      </trkpt>
      <trkpt lat="45.25307" lon="4.53522">
        <ele>1135.94</ele>
        <time>2020-07-11T12:47:47Z</time>
      </trkpt>
      <trkpt lat="45.25317" lon="4.53526">
        <ele>1134.49</ele>
        <time>2020-07-11T12:48:01Z</time>
      </trkpt>
      <trkpt lat="45.25333" lon="4.53532">
        <ele>1131.13</ele>
        <time>2020-07-11T12:48:18Z</time>
      </trkpt>
      <trkpt lat="45.25347" lon="4.5354">
        <ele>1128.24</ele>
        <time>2020-07-11T12:48:32Z</time>
      </trkpt>
      <trkpt lat="45.25363" lon="4.53544">
        <ele>1130.17</ele>
        <time>2020-07-11T12:48:42Z</time>
      </trkpt>
      <trkpt lat="45.25375" lon="4.5355">
        <ele>1131.13</ele>
        <time>2020-07-11T12:48:58Z</time>
      </trkpt>
      <trkpt lat="45.25386" lon="4.53552">
        <ele>1133.05</ele>
        <time>2020-07-11T12:49:12Z</time>
      </trkpt>
      <trkpt lat="45.25398" lon="4.53556">
        <ele>1130.17</ele>
        <time>2020-07-11T12:49:27Z</time>
      </trkpt>
      <trkpt lat="45.25415" lon="4.5356">
        <ele>1122</ele>
        <time>2020-07-11T12:49:41Z</time>
      </trkpt>
      <trkpt lat="45.25426" lon="4.53563">
        <ele>1118.63</ele>
        <time>2020-07-11T12:49:55Z</time>
      </trkpt>
      <trkpt lat="45.25442" lon="4.53574">
        <ele>1116.23</ele>
        <time>2020-07-11T12:50:09Z</time>
      </trkpt>
      <trkpt lat="45.25442" lon="4.53575">
        <ele>1115.75</ele>
        <time>2020-07-11T12:50:10Z</time>
      </trkpt>
      <trkpt lat="45.25456" lon="4.53586">
        <ele>1113.34</ele>
        <time>2020-07-11T12:50:23Z</time>
      </trkpt>
      <trkpt lat="45.2547" lon="4.53595">
        <ele>1112.38</ele>
        <time>2020-07-11T12:50:38Z</time>
      </trkpt>
      <trkpt lat="45.25482" lon="4.53605">
        <ele>1112.38</ele>
        <time>2020-07-11T12:50:51Z</time>
      </trkpt>
      <trkpt lat="45.25492" lon="4.53617">
        <ele>1113.34</ele>
        <time>2020-07-11T12:51:04Z</time>
      </trkpt>
      <trkpt lat="45.25499" lon="4.53624">
        <ele>1113.34</ele>
        <time>2020-07-11T12:51:09Z</time>
      </trkpt>
      <trkpt lat="45.25517" lon="4.53641">
        <ele>1110.46</ele>
        <time>2020-07-11T12:51:19Z</time>
      </trkpt>
      <trkpt lat="45.2552" lon="4.53643">
        <ele>1110.46</ele>
        <time>2020-07-11T12:51:32Z</time>
      </trkpt>
      <trkpt lat="45.25526" lon="4.53648">
        <ele>1114.79</ele>
        <time>2020-07-11T12:51:43Z</time>
      </trkpt>
      <trkpt lat="45.25532" lon="4.5366">
        <ele>1117.19</ele>
        <time>2020-07-11T12:51:55Z</time>
      </trkpt>
      <trkpt lat="45.25546" lon="4.53675">
        <ele>1118.63</ele>
        <time>2020-07-11T12:52:09Z</time>
      </trkpt>
      <trkpt lat="45.25553" lon="4.53682">
        <ele>1119.59</ele>
        <time>2020-07-11T12:52:21Z</time>
      </trkpt>
      <trkpt lat="45.25555" lon="4.53684">
        <ele>1120.07</ele>
        <time>2020-07-11T12:52:23Z</time>
      </trkpt>
      <trkpt lat="45.25573" lon="4.53705">
        <ele>1111.9</ele>
        <time>2020-07-11T12:52:37Z</time>
      </trkpt>
      <trkpt lat="45.25597" lon="4.53732">
        <ele>1093.64</ele>
        <time>2020-07-11T12:52:51Z</time>
      </trkpt>
      <trkpt lat="45.25613" lon="4.53747">
        <ele>1091.23</ele>
        <time>2020-07-11T12:53:04Z</time>
      </trkpt>
      <trkpt lat="45.25623" lon="4.53756">
        <ele>1087.39</ele>
        <time>2020-07-11T12:53:16Z</time>
      </trkpt>
      <trkpt lat="45.25631" lon="4.53761">
        <ele>1087.87</ele>
        <time>2020-07-11T12:53:27Z</time>
      </trkpt>
      <trkpt lat="45.25647" lon="4.53772">
        <ele>1087.39</ele>
        <time>2020-07-11T12:53:41Z</time>
      </trkpt>
      <trkpt lat="45.25648" lon="4.53773">
        <ele>1087.87</ele>
        <time>2020-07-11T12:53:42Z</time>
      </trkpt>
      <trkpt lat="45.2567" lon="4.53791">
        <ele>1087.39</ele>
        <time>2020-07-11T12:53:56Z</time>
      </trkpt>
      <trkpt lat="45.2569" lon="4.538">
        <ele>1084.02</ele>
        <time>2020-07-11T12:54:09Z</time>
      </trkpt>
      <trkpt lat="45.25703" lon="4.53814">
        <ele>1081.62</ele>
        <time>2020-07-11T12:54:21Z</time>
      </trkpt>
      <trkpt lat="45.25707" lon="4.53817">
        <ele>1080.66</ele>
        <time>2020-07-11T12:54:23Z</time>
      </trkpt>
      <trkpt lat="45.25719" lon="4.53829">
        <ele>1074.41</ele>
        <time>2020-07-11T12:54:34Z</time>
      </trkpt>
      <trkpt lat="45.25726" lon="4.53835">
        <ele>1070.57</ele>
        <time>2020-07-11T12:54:39Z</time>
      </trkpt>
      <trkpt lat="45.25734" lon="4.53848">
        <ele>1059.51</ele>
        <time>2020-07-11T12:54:53Z</time>
      </trkpt>
      <trkpt lat="45.25735" lon="4.53849">
        <ele>1059.51</ele>
        <time>2020-07-11T12:54:54Z</time>
      </trkpt>
      <trkpt lat="45.25747" lon="4.53858">
        <ele>1051.82</ele>
        <time>2020-07-11T12:55:08Z</time>
      </trkpt>
      <trkpt lat="45.25754" lon="4.53868">
        <ele>1047.49</ele>
        <time>2020-07-11T12:55:21Z</time>
      </trkpt>
      <trkpt lat="45.25766" lon="4.53877">
        <ele>1043.17</ele>
        <time>2020-07-11T12:55:35Z</time>
      </trkpt>
      <trkpt lat="45.25771" lon="4.5388">
        <ele>1042.69</ele>
        <time>2020-07-11T12:55:40Z</time>
      </trkpt>
      <trkpt lat="45.25783" lon="4.53884">
        <ele>1042.21</ele>
        <time>2020-07-11T12:55:52Z</time>
      </trkpt>
      <trkpt lat="45.25792" lon="4.53885">
        <ele>1041.73</ele>
        <time>2020-07-11T12:56:02Z</time>
      </trkpt>
      <trkpt lat="45.25808" lon="4.53891">
        <ele>1043.17</ele>
        <time>2020-07-11T12:56:17Z</time>
      </trkpt>
      <trkpt lat="45.25823" lon="4.53881">
        <ele>1042.69</ele>
        <time>2020-07-11T12:56:33Z</time>
      </trkpt>
      <trkpt lat="45.25831" lon="4.53864">
        <ele>1043.17</ele>
        <time>2020-07-11T12:56:49Z</time>
      </trkpt>
      <trkpt lat="45.25841" lon="4.53848">
        <ele>1045.57</ele>
        <time>2020-07-11T12:57:04Z</time>
      </trkpt>
      <trkpt lat="45.25854" lon="4.53835">
        <ele>1049.9</ele>
        <time>2020-07-11T12:57:18Z</time>
      </trkpt>
      <trkpt lat="45.25868" lon="4.53827">
        <ele>1055.18</ele>
        <time>2020-07-11T12:57:32Z</time>
      </trkpt>
      <trkpt lat="45.2588" lon="4.53819">
        <ele>1063.84</ele>
        <time>2020-07-11T12:57:48Z</time>
      </trkpt>
      <trkpt lat="45.25894" lon="4.53809">
        <ele>1070.57</ele>
        <time>2020-07-11T12:58:03Z</time>
      </trkpt>
      <trkpt lat="45.25906" lon="4.538">
        <ele>1081.14</ele>
        <time>2020-07-11T12:58:18Z</time>
      </trkpt>
      <trkpt lat="45.25926" lon="4.53782">
        <ele>1076.81</ele>
        <time>2020-07-11T12:58:33Z</time>
      </trkpt>
      <trkpt lat="45.25941" lon="4.53773">
        <ele>1072.97</ele>
        <time>2020-07-11T12:58:46Z</time>
      </trkpt>
      <trkpt lat="45.25945" lon="4.53772">
        <ele>1072.97</ele>
        <time>2020-07-11T12:58:50Z</time>
      </trkpt>
      <trkpt lat="45.25963" lon="4.53773">
        <ele>1072.49</ele>
        <time>2020-07-11T12:59:04Z</time>
      </trkpt>
      <trkpt lat="45.25976" lon="4.53772">
        <ele>1072.01</ele>
        <time>2020-07-11T12:59:16Z</time>
      </trkpt>
      <trkpt lat="45.25996" lon="4.5378">
        <ele>1067.68</ele>
        <time>2020-07-11T12:59:29Z</time>
      </trkpt>
      <trkpt lat="45.2602" lon="4.53783">
        <ele>1058.55</ele>
        <time>2020-07-11T12:59:43Z</time>
      </trkpt>
      <trkpt lat="45.26038" lon="4.53792">
        <ele>1053.74</ele>
        <time>2020-07-11T12:59:57Z</time>
      </trkpt>
      <trkpt lat="45.26048" lon="4.53795">
        <ele>1051.34</ele>
        <time>2020-07-11T13:00:04Z</time>
      </trkpt>
      <trkpt lat="45.26071" lon="4.53805">
        <ele>1047.97</ele>
        <time>2020-07-11T13:00:21Z</time>
      </trkpt>
      <trkpt lat="45.2608" lon="4.53806">
        <ele>1047.01</ele>
        <time>2020-07-11T13:00:36Z</time>
      </trkpt>
      <trkpt lat="45.26092" lon="4.53807">
        <ele>1047.01</ele>
        <time>2020-07-11T13:00:49Z</time>
      </trkpt>
      <trkpt lat="45.26101" lon="4.53814">
        <ele>1049.9</ele>
        <time>2020-07-11T13:01:02Z</time>
      </trkpt>
      <trkpt lat="45.26119" lon="4.53828">
        <ele>1054.7</ele>
        <time>2020-07-11T13:01:20Z</time>
      </trkpt>
      <trkpt lat="45.26127" lon="4.5384">
        <ele>1058.55</ele>
        <time>2020-07-11T13:01:33Z</time>
      </trkpt>
      <trkpt lat="45.26135" lon="4.53854">
        <ele>1063.84</ele>
        <time>2020-07-11T13:01:46Z</time>
      </trkpt>
      <trkpt lat="45.26143" lon="4.53871">
        <ele>1067.68</ele>
        <time>2020-07-11T13:01:58Z</time>
      </trkpt>
      <trkpt lat="45.26153" lon="4.53891">
        <ele>1071.53</ele>
        <time>2020-07-11T13:02:12Z</time>
      </trkpt>
      <trkpt lat="45.26157" lon="4.539">
        <ele>1073.45</ele>
        <time>2020-07-11T13:02:19Z</time>
      </trkpt>
      <trkpt lat="45.26182" lon="4.53937">
        <ele>1060.47</ele>
        <time>2020-07-11T13:02:33Z</time>
      </trkpt>
      <trkpt lat="45.26183" lon="4.53941">
        <ele>1062.39</ele>
        <time>2020-07-11T13:02:44Z</time>
      </trkpt>
      <trkpt lat="45.26185" lon="4.53951">
        <ele>1061.91</ele>
        <time>2020-07-11T13:02:58Z</time>
      </trkpt>
      <trkpt lat="45.26205" lon="4.53988">
        <ele>1055.67</ele>
        <time>2020-07-11T13:03:15Z</time>
      </trkpt>
      <trkpt lat="45.26211" lon="4.53997">
        <ele>1051.82</ele>
        <time>2020-07-11T13:03:29Z</time>
      </trkpt>
      <trkpt lat="45.26223" lon="4.54016">
        <ele>1050.86</ele>
        <time>2020-07-11T13:03:42Z</time>
      </trkpt>
      <trkpt lat="45.26226" lon="4.54022">
        <ele>1048.94</ele>
        <time>2020-07-11T13:03:49Z</time>
      </trkpt>
      <trkpt lat="45.26255" lon="4.54038">
        <ele>1044.61</ele>
        <time>2020-07-11T13:04:05Z</time>
      </trkpt>
      <trkpt lat="45.26274" lon="4.54055">
        <ele>1035</ele>
        <time>2020-07-11T13:04:18Z</time>
      </trkpt>
      <trkpt lat="45.26293" lon="4.54063">
        <ele>1030.19</ele>
        <time>2020-07-11T13:04:31Z</time>
      </trkpt>
      <trkpt lat="45.26303" lon="4.54066">
        <ele>1028.27</ele>
        <time>2020-07-11T13:04:46Z</time>
      </trkpt>
      <trkpt lat="45.26316" lon="4.54076">
        <ele>1025.86</ele>
        <time>2020-07-11T13:04:59Z</time>
      </trkpt>
      <trkpt lat="45.26329" lon="4.54081">
        <ele>1022.5</ele>
        <time>2020-07-11T13:05:10Z</time>
      </trkpt>
      <trkpt lat="45.26337" lon="4.54084">
        <ele>1020.58</ele>
        <time>2020-07-11T13:05:17Z</time>
      </trkpt>
      <trkpt lat="45.26345" lon="4.541">
        <ele>1019.13</ele>
        <time>2020-07-11T13:05:31Z</time>
      </trkpt>
      <trkpt lat="45.26346" lon="4.54103">
        <ele>1019.13</ele>
        <time>2020-07-11T13:05:50Z</time>
      </trkpt>
      <trkpt lat="45.26347" lon="4.54104">
        <ele>1019.13</ele>
        <time>2020-07-11T13:06:13Z</time>
      </trkpt>
      <trkpt lat="45.26349" lon="4.54118">
        <ele>1017.69</ele>
        <time>2020-07-11T13:06:29Z</time>
      </trkpt>
      <trkpt lat="45.26356" lon="4.54149">
        <ele>1019.62</ele>
        <time>2020-07-11T13:06:43Z</time>
      </trkpt>
      <trkpt lat="45.26356" lon="4.54152">
        <ele>1019.13</ele>
        <time>2020-07-11T13:06:44Z</time>
      </trkpt>
      <trkpt lat="45.2636" lon="4.54175">
        <ele>1011.93</ele>
        <time>2020-07-11T13:06:57Z</time>
      </trkpt>
      <trkpt lat="45.26364" lon="4.5419">
        <ele>1010.96</ele>
        <time>2020-07-11T13:07:11Z</time>
      </trkpt>
      <trkpt lat="45.26365" lon="4.54192">
        <ele>1010.96</ele>
        <time>2020-07-11T13:07:13Z</time>
      </trkpt>
      <trkpt lat="45.26368" lon="4.54211">
        <ele>1008.08</ele>
        <time>2020-07-11T13:07:27Z</time>
      </trkpt>
      <trkpt lat="45.2637" lon="4.54228">
        <ele>1007.6</ele>
        <time>2020-07-11T13:07:39Z</time>
      </trkpt>
      <trkpt lat="45.2637" lon="4.5423">
        <ele>1007.6</ele>
        <time>2020-07-11T13:07:40Z</time>
      </trkpt>
      <trkpt lat="45.26377" lon="4.5425">
        <ele>1003.75</ele>
        <time>2020-07-11T13:07:54Z</time>
      </trkpt>
      <trkpt lat="45.26384" lon="4.54253">
        <ele>998.95</ele>
        <time>2020-07-11T13:08:05Z</time>
      </trkpt>
      <trkpt lat="45.26405" lon="4.5426">
        <ele>995.1</ele>
        <time>2020-07-11T13:08:20Z</time>
      </trkpt>
      <trkpt lat="45.26422" lon="4.54263">
        <ele>992.22</ele>
        <time>2020-07-11T13:08:37Z</time>
      </trkpt>
      <trkpt lat="45.26426" lon="4.54264">
        <ele>991.26</ele>
        <time>2020-07-11T13:08:49Z</time>
      </trkpt>
      <trkpt lat="45.26442" lon="4.5426">
        <ele>989.81</ele>
        <time>2020-07-11T13:09:03Z</time>
      </trkpt>
      <trkpt lat="45.26465" lon="4.54254">
        <ele>988.85</ele>
        <time>2020-07-11T13:09:18Z</time>
      </trkpt>
      <trkpt lat="45.26483" lon="4.54268">
        <ele>988.85</ele>
        <time>2020-07-11T13:09:33Z</time>
      </trkpt>
      <trkpt lat="45.26493" lon="4.54281">
        <ele>987.89</ele>
        <time>2020-07-11T13:09:42Z</time>
      </trkpt>
      <trkpt lat="45.26508" lon="4.54292">
        <ele>987.41</ele>
        <time>2020-07-11T13:09:56Z</time>
      </trkpt>
      <trkpt lat="45.26512" lon="4.54294">
        <ele>987.41</ele>
        <time>2020-07-11T13:10:12Z</time>
      </trkpt>
      <trkpt lat="45.26515" lon="4.54293">
        <ele>986.93</ele>
        <time>2020-07-11T13:10:15Z</time>
      </trkpt>
      <trkpt lat="45.26528" lon="4.54289">
        <ele>988.85</ele>
        <time>2020-07-11T13:10:30Z</time>
      </trkpt>
      <trkpt lat="45.26548" lon="4.54282">
        <ele>991.26</ele>
        <time>2020-07-11T13:10:46Z</time>
      </trkpt>
      <trkpt lat="45.26567" lon="4.54274">
        <ele>989.33</ele>
        <time>2020-07-11T13:11:01Z</time>
      </trkpt>
      <trkpt lat="45.26572" lon="4.54273">
        <ele>988.85</ele>
        <time>2020-07-11T13:11:06Z</time>
      </trkpt>
      <trkpt lat="45.26592" lon="4.54283">
        <ele>990.3</ele>
        <time>2020-07-11T13:11:24Z</time>
      </trkpt>
      <trkpt lat="45.26607" lon="4.54286">
        <ele>989.81</ele>
        <time>2020-07-11T13:11:36Z</time>
      </trkpt>
      <trkpt lat="45.26625" lon="4.54285">
        <ele>988.37</ele>
        <time>2020-07-11T13:11:54Z</time>
      </trkpt>
      <trkpt lat="45.2664" lon="4.54271">
        <ele>988.37</ele>
        <time>2020-07-11T13:12:11Z</time>
      </trkpt>
      <trkpt lat="45.26657" lon="4.54259">
        <ele>986.45</ele>
        <time>2020-07-11T13:12:27Z</time>
      </trkpt>
      <trkpt lat="45.26662" lon="4.5426">
        <ele>986.45</ele>
        <time>2020-07-11T13:12:32Z</time>
      </trkpt>
      <trkpt lat="45.26675" lon="4.54269">
        <ele>990.3</ele>
        <time>2020-07-11T13:12:46Z</time>
      </trkpt>
      <trkpt lat="45.26683" lon="4.54277">
        <ele>991.74</ele>
        <time>2020-07-11T13:12:59Z</time>
      </trkpt>
      <trkpt lat="45.26687" lon="4.54271">
        <ele>991.26</ele>
        <time>2020-07-11T13:13:06Z</time>
      </trkpt>
      <trkpt lat="45.26699" lon="4.54259">
        <ele>992.22</ele>
        <time>2020-07-11T13:13:24Z</time>
      </trkpt>
      <trkpt lat="45.26702" lon="4.54262">
        <ele>992.22</ele>
        <time>2020-07-11T13:13:27Z</time>
      </trkpt>
      <trkpt lat="45.2671" lon="4.54273">
        <ele>994.14</ele>
        <time>2020-07-11T13:13:42Z</time>
      </trkpt>
      <trkpt lat="45.26718" lon="4.54277">
        <ele>998.47</ele>
        <time>2020-07-11T13:13:57Z</time>
      </trkpt>
      <trkpt lat="45.26724" lon="4.54283">
        <ele>998.95</ele>
        <time>2020-07-11T13:14:12Z</time>
      </trkpt>
      <trkpt lat="45.26725" lon="4.54286">
        <ele>998.95</ele>
        <time>2020-07-11T13:14:29Z</time>
      </trkpt>
      <trkpt lat="45.26725" lon="4.54288">
        <ele>999.43</ele>
        <time>2020-07-11T13:14:50Z</time>
      </trkpt>
      <trkpt lat="45.26724" lon="4.5429">
        <ele>998.95</ele>
        <time>2020-07-11T13:15:03Z</time>
      </trkpt>
      <trkpt lat="45.26724" lon="4.54291">
        <ele>997.51</ele>
        <time>2020-07-11T13:15:33Z</time>
      </trkpt>
      <trkpt lat="45.26725" lon="4.5429">
        <ele>997.02</ele>
        <time>2020-07-11T13:15:59Z</time>
      </trkpt>
      <trkpt lat="45.26725" lon="4.54289">
        <ele>997.02</ele>
        <time>2020-07-11T13:16:20Z</time>
      </trkpt>
      <trkpt lat="45.26725" lon="4.54288">
        <ele>996.54</ele>
        <time>2020-07-11T13:16:39Z</time>
      </trkpt>
      <trkpt lat="45.26725" lon="4.54287">
        <ele>997.99</ele>
        <time>2020-07-11T13:17:12Z</time>
      </trkpt>
      <trkpt lat="45.26725" lon="4.54289">
        <ele>997.99</ele>
        <time>2020-07-11T13:17:53Z</time>
      </trkpt>
      <trkpt lat="45.26726" lon="4.5429">
        <ele>998.95</ele>
        <time>2020-07-11T13:18:28Z</time>
      </trkpt>
      <trkpt lat="45.26726" lon="4.5429">
        <ele>998.95</ele>
        <time>2020-07-11T13:18:57Z</time>
      </trkpt>
      <trkpt lat="45.26726" lon="4.54291">
        <ele>999.91</ele>
        <time>2020-07-11T13:19:27Z</time>
      </trkpt>
      <trkpt lat="45.26727" lon="4.54291">
        <ele>999.43</ele>
        <time>2020-07-11T13:19:57Z</time>
      </trkpt>
      <trkpt lat="45.26727" lon="4.5429">
        <ele>998.95</ele>
        <time>2020-07-11T13:20:22Z</time>
      </trkpt>
      <trkpt lat="45.26728" lon="4.5429">
        <ele>998.47</ele>
        <time>2020-07-11T13:20:37Z</time>
      </trkpt>
      <trkpt lat="45.26728" lon="4.54289">
        <ele>997.51</ele>
        <time>2020-07-11T13:21:09Z</time>
      </trkpt>
      <trkpt lat="45.26728" lon="4.54289">
        <ele>997.51</ele>
        <time>2020-07-11T13:21:31Z</time>
      </trkpt>
      <trkpt lat="45.26729" lon="4.54289">
        <ele>997.02</ele>
        <time>2020-07-11T13:21:55Z</time>
      </trkpt>
      <trkpt lat="45.26729" lon="4.54289">
        <ele>996.54</ele>
        <time>2020-07-11T13:22:16Z</time>
      </trkpt>
      <trkpt lat="45.26729" lon="4.54288">
        <ele>996.06</ele>
        <time>2020-07-11T13:22:40Z</time>
      </trkpt>
      <trkpt lat="45.2673" lon="4.54288">
        <ele>995.58</ele>
        <time>2020-07-11T13:23:02Z</time>
      </trkpt>
      <trkpt lat="45.2673" lon="4.54288">
        <ele>994.62</ele>
        <time>2020-07-11T13:23:27Z</time>
      </trkpt>
      <trkpt lat="45.26731" lon="4.54288">
        <ele>994.14</ele>
        <time>2020-07-11T13:23:49Z</time>
      </trkpt>
      <trkpt lat="45.26731" lon="4.54288">
        <ele>993.66</ele>
        <time>2020-07-11T13:24:12Z</time>
      </trkpt>
      <trkpt lat="45.26731" lon="4.54289">
        <ele>993.18</ele>
        <time>2020-07-11T13:24:39Z</time>
      </trkpt>
      <trkpt lat="45.26731" lon="4.54289">
        <ele>992.7</ele>
        <time>2020-07-11T13:25:01Z</time>
      </trkpt>
      <trkpt lat="45.26731" lon="4.54289">
        <ele>992.7</ele>
        <time>2020-07-11T13:25:25Z</time>
      </trkpt>
      <trkpt lat="45.2673" lon="4.54289">
        <ele>992.22</ele>
        <time>2020-07-11T13:25:49Z</time>
      </trkpt>
      <trkpt lat="45.26727" lon="4.54288">
        <ele>992.22</ele>
        <time>2020-07-11T13:26:15Z</time>
      </trkpt>
      <trkpt lat="45.26729" lon="4.5429">
        <ele>993.18</ele>
        <time>2020-07-11T13:26:51Z</time>
      </trkpt>
      <trkpt lat="45.26729" lon="4.54289">
        <ele>993.18</ele>
        <time>2020-07-11T13:27:23Z</time>
      </trkpt>
      <trkpt lat="45.2673" lon="4.54289">
        <ele>993.18</ele>
        <time>2020-07-11T13:27:49Z</time>
      </trkpt>
      <trkpt lat="45.26729" lon="4.54289">
        <ele>993.66</ele>
        <time>2020-07-11T13:28:01Z</time>
      </trkpt>
      <trkpt lat="45.26729" lon="4.54287">
        <ele>995.1</ele>
        <time>2020-07-11T13:28:12Z</time>
      </trkpt>
      <trkpt lat="45.26727" lon="4.54284">
        <ele>995.58</ele>
        <time>2020-07-11T13:28:25Z</time>
      </trkpt>
      <trkpt lat="45.26725" lon="4.54276">
        <ele>995.1</ele>
        <time>2020-07-11T13:28:37Z</time>
      </trkpt>
      <trkpt lat="45.2672" lon="4.54276">
        <ele>994.62</ele>
        <time>2020-07-11T13:28:43Z</time>
      </trkpt>
      <trkpt lat="45.26717" lon="4.54275">
        <ele>995.1</ele>
        <time>2020-07-11T13:28:46Z</time>
      </trkpt>
      <trkpt lat="45.26711" lon="4.54271">
        <ele>994.14</ele>
        <time>2020-07-11T13:28:53Z</time>
      </trkpt>
      <trkpt lat="45.26701" lon="4.54257">
        <ele>990.3</ele>
        <time>2020-07-11T13:29:07Z</time>
      </trkpt>
      <trkpt lat="45.26702" lon="4.54256">
        <ele>990.78</ele>
        <time>2020-07-11T13:29:08Z</time>
      </trkpt>
      <trkpt lat="45.26713" lon="4.54241">
        <ele>990.3</ele>
        <time>2020-07-11T13:29:21Z</time>
      </trkpt>
      <trkpt lat="45.26731" lon="4.54235">
        <ele>989.33</ele>
        <time>2020-07-11T13:29:39Z</time>
      </trkpt>
      <trkpt lat="45.26732" lon="4.54235">
        <ele>988.85</ele>
        <time>2020-07-11T13:29:40Z</time>
      </trkpt>
      <trkpt lat="45.26735" lon="4.54236">
        <ele>988.37</ele>
        <time>2020-07-11T13:29:43Z</time>
      </trkpt>
      <trkpt lat="45.26738" lon="4.54236">
        <ele>988.37</ele>
        <time>2020-07-11T13:29:46Z</time>
      </trkpt>
      <trkpt lat="45.26743" lon="4.54238">
        <ele>987.89</ele>
        <time>2020-07-11T13:29:50Z</time>
      </trkpt>
      <trkpt lat="45.26747" lon="4.54238">
        <ele>986.93</ele>
        <time>2020-07-11T13:29:53Z</time>
      </trkpt>
      <trkpt lat="45.26754" lon="4.54246">
        <ele>986.93</ele>
        <time>2020-07-11T13:30:01Z</time>
      </trkpt>
      <trkpt lat="45.26756" lon="4.54248">
        <ele>987.41</ele>
        <time>2020-07-11T13:30:03Z</time>
      </trkpt>
      <trkpt lat="45.26767" lon="4.54279">
        <ele>986.93</ele>
        <time>2020-07-11T13:30:22Z</time>
      </trkpt>
      <trkpt lat="45.26769" lon="4.54284">
        <ele>986.93</ele>
        <time>2020-07-11T13:30:25Z</time>
      </trkpt>
      <trkpt lat="45.2677" lon="4.54313">
        <ele>984.53</ele>
        <time>2020-07-11T13:30:42Z</time>
      </trkpt>
      <trkpt lat="45.26771" lon="4.54328">
        <ele>984.53</ele>
        <time>2020-07-11T13:30:52Z</time>
      </trkpt>
      <trkpt lat="45.2677" lon="4.54341">
        <ele>985.49</ele>
        <time>2020-07-11T13:31:00Z</time>
      </trkpt>
      <trkpt lat="45.26765" lon="4.54363">
        <ele>987.41</ele>
        <time>2020-07-11T13:31:15Z</time>
      </trkpt>
      <trkpt lat="45.26777" lon="4.54382">
        <ele>986.93</ele>
        <time>2020-07-11T13:31:30Z</time>
      </trkpt>
      <trkpt lat="45.2679" lon="4.54398">
        <ele>985.97</ele>
        <time>2020-07-11T13:31:46Z</time>
      </trkpt>
      <trkpt lat="45.26801" lon="4.54413">
        <ele>985.49</ele>
        <time>2020-07-11T13:31:58Z</time>
      </trkpt>
      <trkpt lat="45.26812" lon="4.54439">
        <ele>984.53</ele>
        <time>2020-07-11T13:32:15Z</time>
      </trkpt>
      <trkpt lat="45.26826" lon="4.54459">
        <ele>984.53</ele>
        <time>2020-07-11T13:32:32Z</time>
      </trkpt>
      <trkpt lat="45.26844" lon="4.54476">
        <ele>985.97</ele>
        <time>2020-07-11T13:32:49Z</time>
      </trkpt>
      <trkpt lat="45.26851" lon="4.54489">
        <ele>989.33</ele>
        <time>2020-07-11T13:33:00Z</time>
      </trkpt>
      <trkpt lat="45.26852" lon="4.54495">
        <ele>990.78</ele>
        <time>2020-07-11T13:33:04Z</time>
      </trkpt>
      <trkpt lat="45.26856" lon="4.54516">
        <ele>993.66</ele>
        <time>2020-07-11T13:33:19Z</time>
      </trkpt>
      <trkpt lat="45.26864" lon="4.54541">
        <ele>994.62</ele>
        <time>2020-07-11T13:33:36Z</time>
      </trkpt>
      <trkpt lat="45.26875" lon="4.54559">
        <ele>996.06</ele>
        <time>2020-07-11T13:33:50Z</time>
      </trkpt>
      <trkpt lat="45.26893" lon="4.54577">
        <ele>995.58</ele>
        <time>2020-07-11T13:34:08Z</time>
      </trkpt>
      <trkpt lat="45.26905" lon="4.54589">
        <ele>997.02</ele>
        <time>2020-07-11T13:34:21Z</time>
      </trkpt>
      <trkpt lat="45.26917" lon="4.54609">
        <ele>998.95</ele>
        <time>2020-07-11T13:34:37Z</time>
      </trkpt>
      <trkpt lat="45.2693" lon="4.54634">
        <ele>1000.87</ele>
        <time>2020-07-11T13:34:54Z</time>
      </trkpt>
      <trkpt lat="45.2695" lon="4.54659">
        <ele>998.47</ele>
        <time>2020-07-11T13:35:13Z</time>
      </trkpt>
      <trkpt lat="45.2696" lon="4.54672">
        <ele>997.99</ele>
        <time>2020-07-11T13:35:24Z</time>
      </trkpt>
      <trkpt lat="45.26961" lon="4.54674">
        <ele>998.47</ele>
        <time>2020-07-11T13:35:26Z</time>
      </trkpt>
      <trkpt lat="45.2698" lon="4.54683">
        <ele>1002.31</ele>
        <time>2020-07-11T13:35:44Z</time>
      </trkpt>
      <trkpt lat="45.26997" lon="4.5469">
        <ele>999.43</ele>
        <time>2020-07-11T13:35:57Z</time>
      </trkpt>
      <trkpt lat="45.27011" lon="4.54695">
        <ele>997.51</ele>
        <time>2020-07-11T13:36:09Z</time>
      </trkpt>
      <trkpt lat="45.27027" lon="4.547">
        <ele>995.58</ele>
        <time>2020-07-11T13:36:21Z</time>
      </trkpt>
      <trkpt lat="45.27047" lon="4.54711">
        <ele>996.06</ele>
        <time>2020-07-11T13:36:34Z</time>
      </trkpt>
      <trkpt lat="45.27066" lon="4.5472">
        <ele>998.47</ele>
        <time>2020-07-11T13:36:49Z</time>
      </trkpt>
      <trkpt lat="45.27072" lon="4.54723">
        <ele>997.99</ele>
        <time>2020-07-11T13:36:54Z</time>
      </trkpt>
      <trkpt lat="45.27081" lon="4.54728">
        <ele>1002.31</ele>
        <time>2020-07-11T13:37:07Z</time>
      </trkpt>
      <trkpt lat="45.27089" lon="4.54736">
        <ele>1008.08</ele>
        <time>2020-07-11T13:37:16Z</time>
      </trkpt>
      <trkpt lat="45.27102" lon="4.54746">
        <ele>1017.69</ele>
        <time>2020-07-11T13:37:31Z</time>
      </trkpt>
      <trkpt lat="45.27109" lon="4.54748">
        <ele>1022.5</ele>
        <time>2020-07-11T13:37:38Z</time>
      </trkpt>
      <trkpt lat="45.27116" lon="4.5475">
        <ele>1026.83</ele>
        <time>2020-07-11T13:37:44Z</time>
      </trkpt>
      <trkpt lat="45.27125" lon="4.54757">
        <ele>1032.11</ele>
        <time>2020-07-11T13:37:53Z</time>
      </trkpt>
      <trkpt lat="45.27134" lon="4.54771">
        <ele>1039.8</ele>
        <time>2020-07-11T13:38:07Z</time>
      </trkpt>
      <trkpt lat="45.27142" lon="4.54781">
        <ele>1044.13</ele>
        <time>2020-07-11T13:38:19Z</time>
      </trkpt>
      <trkpt lat="45.2715" lon="4.54787">
        <ele>1046.05</ele>
        <time>2020-07-11T13:38:26Z</time>
      </trkpt>
      <trkpt lat="45.27169" lon="4.54806">
        <ele>1042.21</ele>
        <time>2020-07-11T13:38:40Z</time>
      </trkpt>
      <trkpt lat="45.27188" lon="4.54828">
        <ele>1027.79</ele>
        <time>2020-07-11T13:38:53Z</time>
      </trkpt>
      <trkpt lat="45.27209" lon="4.5484">
        <ele>1015.29</ele>
        <time>2020-07-11T13:39:05Z</time>
      </trkpt>
      <trkpt lat="45.27225" lon="4.54852">
        <ele>1011.44</ele>
        <time>2020-07-11T13:39:18Z</time>
      </trkpt>
      <trkpt lat="45.27231" lon="4.54858">
        <ele>1011.44</ele>
        <time>2020-07-11T13:39:24Z</time>
      </trkpt>
      <trkpt lat="45.2725" lon="4.54868">
        <ele>1012.89</ele>
        <time>2020-07-11T13:39:38Z</time>
      </trkpt>
      <trkpt lat="45.27262" lon="4.54878">
        <ele>1014.33</ele>
        <time>2020-07-11T13:39:51Z</time>
      </trkpt>
      <trkpt lat="45.27276" lon="4.54886">
        <ele>1015.29</ele>
        <time>2020-07-11T13:40:08Z</time>
      </trkpt>
      <trkpt lat="45.27287" lon="4.54893">
        <ele>1020.58</ele>
        <time>2020-07-11T13:40:21Z</time>
      </trkpt>
      <trkpt lat="45.27304" lon="4.54908">
        <ele>1020.58</ele>
        <time>2020-07-11T13:40:35Z</time>
      </trkpt>
      <trkpt lat="45.27315" lon="4.54923">
        <ele>1017.69</ele>
        <time>2020-07-11T13:40:47Z</time>
      </trkpt>
      <trkpt lat="45.27328" lon="4.54941">
        <ele>1016.73</ele>
        <time>2020-07-11T13:41:00Z</time>
      </trkpt>
      <trkpt lat="45.27339" lon="4.54959">
        <ele>1017.21</ele>
        <time>2020-07-11T13:41:13Z</time>
      </trkpt>
      <trkpt lat="45.27351" lon="4.54969">
        <ele>1012.89</ele>
        <time>2020-07-11T13:41:24Z</time>
      </trkpt>
      <trkpt lat="45.27371" lon="4.54977">
        <ele>1010.96</ele>
        <time>2020-07-11T13:41:38Z</time>
      </trkpt>
      <trkpt lat="45.27382" lon="4.54984">
        <ele>1011.44</ele>
        <time>2020-07-11T13:41:48Z</time>
      </trkpt>
      <trkpt lat="45.27392" lon="4.54986">
        <ele>1013.85</ele>
        <time>2020-07-11T13:42:00Z</time>
      </trkpt>
      <trkpt lat="45.27414" lon="4.54998">
        <ele>1011.44</ele>
        <time>2020-07-11T13:42:16Z</time>
      </trkpt>
      <trkpt lat="45.27427" lon="4.55006">
        <ele>1007.6</ele>
        <time>2020-07-11T13:42:28Z</time>
      </trkpt>
      <trkpt lat="45.27436" lon="4.55007">
        <ele>1007.6</ele>
        <time>2020-07-11T13:42:41Z</time>
      </trkpt>
      <trkpt lat="45.27451" lon="4.55024">
        <ele>1001.83</ele>
        <time>2020-07-11T13:42:53Z</time>
      </trkpt>
      <trkpt lat="45.27454" lon="4.55028">
        <ele>999.91</ele>
        <time>2020-07-11T13:42:55Z</time>
      </trkpt>
      <trkpt lat="45.27464" lon="4.55036">
        <ele>994.14</ele>
        <time>2020-07-11T13:42:59Z</time>
      </trkpt>
      <trkpt lat="45.27489" lon="4.55046">
        <ele>984.05</ele>
        <time>2020-07-11T13:43:12Z</time>
      </trkpt>
      <trkpt lat="45.27495" lon="4.55048">
        <ele>982.6</ele>
        <time>2020-07-11T13:43:15Z</time>
      </trkpt>
      <trkpt lat="45.27503" lon="4.55049">
        <ele>980.2</ele>
        <time>2020-07-11T13:43:20Z</time>
      </trkpt>
      <trkpt lat="45.27518" lon="4.55056">
        <ele>972.51</ele>
        <time>2020-07-11T13:43:33Z</time>
      </trkpt>
      <trkpt lat="45.27533" lon="4.55062">
        <ele>967.22</ele>
        <time>2020-07-11T13:43:45Z</time>
      </trkpt>
      <trkpt lat="45.2754" lon="4.55066">
        <ele>965.78</ele>
        <time>2020-07-11T13:43:50Z</time>
      </trkpt>
      <trkpt lat="45.27549" lon="4.55067">
        <ele>964.82</ele>
        <time>2020-07-11T13:43:56Z</time>
      </trkpt>
      <trkpt lat="45.27558" lon="4.55071">
        <ele>963.38</ele>
        <time>2020-07-11T13:44:10Z</time>
      </trkpt>
      <trkpt lat="45.27566" lon="4.55072">
        <ele>963.38</ele>
        <time>2020-07-11T13:44:16Z</time>
      </trkpt>
      <trkpt lat="45.2758" lon="4.55075">
        <ele>960.98</ele>
        <time>2020-07-11T13:44:27Z</time>
      </trkpt>
      <trkpt lat="45.27587" lon="4.5507">
        <ele>961.94</ele>
        <time>2020-07-11T13:44:40Z</time>
      </trkpt>
      <trkpt lat="45.27601" lon="4.55067">
        <ele>969.63</ele>
        <time>2020-07-11T13:44:52Z</time>
      </trkpt>
      <trkpt lat="45.27612" lon="4.55069">
        <ele>973.47</ele>
        <time>2020-07-11T13:45:05Z</time>
      </trkpt>
      <trkpt lat="45.27625" lon="4.55073">
        <ele>974.91</ele>
        <time>2020-07-11T13:45:17Z</time>
      </trkpt>
      <trkpt lat="45.27635" lon="4.55077">
        <ele>982.12</ele>
        <time>2020-07-11T13:45:29Z</time>
      </trkpt>
      <trkpt lat="45.27654" lon="4.55085">
        <ele>986.45</ele>
        <time>2020-07-11T13:45:44Z</time>
      </trkpt>
      <trkpt lat="45.27672" lon="4.55094">
        <ele>985.97</ele>
        <time>2020-07-11T13:45:57Z</time>
      </trkpt>
      <trkpt lat="45.27686" lon="4.55097">
        <ele>985.49</ele>
        <time>2020-07-11T13:46:09Z</time>
      </trkpt>
      <trkpt lat="45.27693" lon="4.55095">
        <ele>985.01</ele>
        <time>2020-07-11T13:46:21Z</time>
      </trkpt>
      <trkpt lat="45.277" lon="4.55096">
        <ele>979.24</ele>
        <time>2020-07-11T13:46:39Z</time>
      </trkpt>
      <trkpt lat="45.27701" lon="4.55096">
        <ele>977.8</ele>
        <time>2020-07-11T13:46:48Z</time>
      </trkpt>
      <trkpt lat="45.27702" lon="4.55098">
        <ele>977.32</ele>
        <time>2020-07-11T13:46:56Z</time>
      </trkpt>
      <trkpt lat="45.27698" lon="4.55101">
        <ele>978.28</ele>
        <time>2020-07-11T13:47:02Z</time>
      </trkpt>
      <trkpt lat="45.27694" lon="4.55111">
        <ele>982.12</ele>
        <time>2020-07-11T13:47:16Z</time>
      </trkpt>
      <trkpt lat="45.27689" lon="4.55122">
        <ele>985.97</ele>
        <time>2020-07-11T13:47:30Z</time>
      </trkpt>
      <trkpt lat="45.27687" lon="4.55134">
        <ele>980.68</ele>
        <time>2020-07-11T13:47:47Z</time>
      </trkpt>
      <trkpt lat="45.27685" lon="4.55141">
        <ele>980.68</ele>
        <time>2020-07-11T13:47:59Z</time>
      </trkpt>
      <trkpt lat="45.27679" lon="4.55152">
        <ele>981.16</ele>
        <time>2020-07-11T13:48:12Z</time>
      </trkpt>
      <trkpt lat="45.27672" lon="4.55164">
        <ele>978.76</ele>
        <time>2020-07-11T13:48:24Z</time>
      </trkpt>
      <trkpt lat="45.27661" lon="4.55174">
        <ele>977.32</ele>
        <time>2020-07-11T13:48:38Z</time>
      </trkpt>
      <trkpt lat="45.27655" lon="4.55183">
        <ele>976.84</ele>
        <time>2020-07-11T13:48:53Z</time>
      </trkpt>
      <trkpt lat="45.27645" lon="4.55197">
        <ele>978.76</ele>
        <time>2020-07-11T13:49:06Z</time>
      </trkpt>
      <trkpt lat="45.27638" lon="4.5521">
        <ele>979.24</ele>
        <time>2020-07-11T13:49:19Z</time>
      </trkpt>
      <trkpt lat="45.27633" lon="4.55218">
        <ele>983.09</ele>
        <time>2020-07-11T13:49:31Z</time>
      </trkpt>
      <trkpt lat="45.27628" lon="4.55226">
        <ele>986.45</ele>
        <time>2020-07-11T13:49:44Z</time>
      </trkpt>
      <trkpt lat="45.27618" lon="4.55234">
        <ele>989.81</ele>
        <time>2020-07-11T13:49:56Z</time>
      </trkpt>
      <trkpt lat="45.27609" lon="4.55243">
        <ele>994.14</ele>
        <time>2020-07-11T13:50:08Z</time>
      </trkpt>
      <trkpt lat="45.27601" lon="4.5525">
        <ele>997.99</ele>
        <time>2020-07-11T13:50:21Z</time>
      </trkpt>
      <trkpt lat="45.27593" lon="4.55254">
        <ele>1000.39</ele>
        <time>2020-07-11T13:50:28Z</time>
      </trkpt>
      <trkpt lat="45.27579" lon="4.55257">
        <ele>1002.31</ele>
        <time>2020-07-11T13:50:41Z</time>
      </trkpt>
      <trkpt lat="45.27566" lon="4.55263">
        <ele>1004.23</ele>
        <time>2020-07-11T13:50:55Z</time>
      </trkpt>
      <trkpt lat="45.27556" lon="4.55264">
        <ele>1009.52</ele>
        <time>2020-07-11T13:51:08Z</time>
      </trkpt>
      <trkpt lat="45.27539" lon="4.55256">
        <ele>1005.68</ele>
        <time>2020-07-11T13:51:22Z</time>
      </trkpt>
      <trkpt lat="45.27524" lon="4.55253">
        <ele>990.3</ele>
        <time>2020-07-11T13:51:33Z</time>
      </trkpt>
      <trkpt lat="45.27524" lon="4.55255">
        <ele>986.93</ele>
        <time>2020-07-11T13:51:47Z</time>
      </trkpt>
      <trkpt lat="45.27524" lon="4.55258">
        <ele>985.49</ele>
        <time>2020-07-11T13:52:00Z</time>
      </trkpt>
      <trkpt lat="45.27524" lon="4.55259">
        <ele>983.09</ele>
        <time>2020-07-11T13:52:19Z</time>
      </trkpt>
      <trkpt lat="45.27515" lon="4.55259">
        <ele>985.01</ele>
        <time>2020-07-11T13:52:31Z</time>
      </trkpt>
      <trkpt lat="45.27501" lon="4.55265">
        <ele>984.53</ele>
        <time>2020-07-11T13:52:46Z</time>
      </trkpt>
      <trkpt lat="45.27486" lon="4.55281">
        <ele>985.49</ele>
        <time>2020-07-11T13:53:03Z</time>
      </trkpt>
      <trkpt lat="45.2747" lon="4.55293">
        <ele>989.33</ele>
        <time>2020-07-11T13:53:18Z</time>
      </trkpt>
      <trkpt lat="45.27461" lon="4.55295">
        <ele>991.26</ele>
        <time>2020-07-11T13:53:26Z</time>
      </trkpt>
      <trkpt lat="45.27456" lon="4.55294">
        <ele>992.7</ele>
        <time>2020-07-11T13:53:30Z</time>
      </trkpt>
      <trkpt lat="45.27445" lon="4.5529">
        <ele>994.14</ele>
        <time>2020-07-11T13:53:39Z</time>
      </trkpt>
      <trkpt lat="45.27426" lon="4.55284">
        <ele>996.54</ele>
        <time>2020-07-11T13:53:54Z</time>
      </trkpt>
      <trkpt lat="45.27403" lon="4.55281">
        <ele>998.47</ele>
        <time>2020-07-11T13:54:11Z</time>
      </trkpt>
      <trkpt lat="45.2738" lon="4.55289">
        <ele>999.43</ele>
        <time>2020-07-11T13:54:28Z</time>
      </trkpt>
      <trkpt lat="45.27363" lon="4.55298">
        <ele>998.47</ele>
        <time>2020-07-11T13:54:42Z</time>
      </trkpt>
      <trkpt lat="45.27346" lon="4.55308">
        <ele>999.43</ele>
        <time>2020-07-11T13:54:57Z</time>
      </trkpt>
      <trkpt lat="45.27345" lon="4.5531">
        <ele>999.43</ele>
        <time>2020-07-11T13:54:58Z</time>
      </trkpt>
      <trkpt lat="45.27328" lon="4.55325">
        <ele>1001.83</ele>
        <time>2020-07-11T13:55:15Z</time>
      </trkpt>
      <trkpt lat="45.27313" lon="4.55346">
        <ele>1003.75</ele>
        <time>2020-07-11T13:55:30Z</time>
      </trkpt>
      <trkpt lat="45.27303" lon="4.55378">
        <ele>999.91</ele>
        <time>2020-07-11T13:55:47Z</time>
      </trkpt>
      <trkpt lat="45.27293" lon="4.55415">
        <ele>992.22</ele>
        <time>2020-07-11T13:56:07Z</time>
      </trkpt>
      <trkpt lat="45.2728" lon="4.55448">
        <ele>987.41</ele>
        <time>2020-07-11T13:56:27Z</time>
      </trkpt>
      <trkpt lat="45.27268" lon="4.55486">
        <ele>982.6</ele>
        <time>2020-07-11T13:56:47Z</time>
      </trkpt>
      <trkpt lat="45.27259" lon="4.55518">
        <ele>980.2</ele>
        <time>2020-07-11T13:57:05Z</time>
      </trkpt>
      <trkpt lat="45.27247" lon="4.5555">
        <ele>978.28</ele>
        <time>2020-07-11T13:57:24Z</time>
      </trkpt>
      <trkpt lat="45.27236" lon="4.55579">
        <ele>976.36</ele>
        <time>2020-07-11T13:57:41Z</time>
      </trkpt>
      <trkpt lat="45.2723" lon="4.556">
        <ele>974.43</ele>
        <time>2020-07-11T13:57:56Z</time>
      </trkpt>
      <trkpt lat="45.2723" lon="4.55601">
        <ele>974.91</ele>
        <time>2020-07-11T13:57:57Z</time>
      </trkpt>
      <trkpt lat="45.27228" lon="4.55606">
        <ele>975.39</ele>
        <time>2020-07-11T13:58:01Z</time>
      </trkpt>
      <trkpt lat="45.27224" lon="4.55608">
        <ele>975.39</ele>
        <time>2020-07-11T13:58:05Z</time>
      </trkpt>
      <trkpt lat="45.27212" lon="4.5559">
        <ele>978.76</ele>
        <time>2020-07-11T13:58:23Z</time>
      </trkpt>
      <trkpt lat="45.27207" lon="4.55583">
        <ele>980.2</ele>
        <time>2020-07-11T13:58:32Z</time>
      </trkpt>
      <trkpt lat="45.27195" lon="4.55572">
        <ele>981.64</ele>
        <time>2020-07-11T13:58:46Z</time>
      </trkpt>
      <trkpt lat="45.27185" lon="4.55557">
        <ele>980.2</ele>
        <time>2020-07-11T13:59:00Z</time>
      </trkpt>
      <trkpt lat="45.2718" lon="4.55545">
        <ele>978.28</ele>
        <time>2020-07-11T13:59:08Z</time>
      </trkpt>
      <trkpt lat="45.27171" lon="4.5553">
        <ele>976.36</ele>
        <time>2020-07-11T13:59:23Z</time>
      </trkpt>
      <trkpt lat="45.27156" lon="4.55509">
        <ele>973.47</ele>
        <time>2020-07-11T13:59:42Z</time>
      </trkpt>
      <trkpt lat="45.27152" lon="4.55504">
        <ele>972.51</ele>
        <time>2020-07-11T13:59:48Z</time>
      </trkpt>
      <trkpt lat="45.27137" lon="4.55484">
        <ele>971.07</ele>
        <time>2020-07-11T14:00:05Z</time>
      </trkpt>
      <trkpt lat="45.27119" lon="4.55464">
        <ele>969.15</ele>
        <time>2020-07-11T14:00:22Z</time>
      </trkpt>
      <trkpt lat="45.27101" lon="4.55445">
        <ele>967.7</ele>
        <time>2020-07-11T14:00:39Z</time>
      </trkpt>
      <trkpt lat="45.27085" lon="4.55427">
        <ele>966.74</ele>
        <time>2020-07-11T14:00:55Z</time>
      </trkpt>
      <trkpt lat="45.27065" lon="4.5541">
        <ele>967.22</ele>
        <time>2020-07-11T14:01:12Z</time>
      </trkpt>
      <trkpt lat="45.27045" lon="4.55401">
        <ele>969.15</ele>
        <time>2020-07-11T14:01:29Z</time>
      </trkpt>
      <trkpt lat="45.27044" lon="4.554">
        <ele>969.15</ele>
        <time>2020-07-11T14:01:30Z</time>
      </trkpt>
      <trkpt lat="45.27033" lon="4.55393">
        <ele>973.95</ele>
        <time>2020-07-11T14:01:44Z</time>
      </trkpt>
      <trkpt lat="45.27012" lon="4.55385">
        <ele>979.24</ele>
        <time>2020-07-11T14:02:00Z</time>
      </trkpt>
      <trkpt lat="45.27007" lon="4.55384">
        <ele>979.72</ele>
        <time>2020-07-11T14:02:04Z</time>
      </trkpt>
      <trkpt lat="45.27002" lon="4.55382">
        <ele>979.72</ele>
        <time>2020-07-11T14:02:08Z</time>
      </trkpt>
      <trkpt lat="45.26995" lon="4.5538">
        <ele>980.68</ele>
        <time>2020-07-11T14:02:13Z</time>
      </trkpt>
      <trkpt lat="45.26981" lon="4.55373">
        <ele>985.01</ele>
        <time>2020-07-11T14:02:27Z</time>
      </trkpt>
      <trkpt lat="45.26967" lon="4.55361">
        <ele>989.81</ele>
        <time>2020-07-11T14:02:41Z</time>
      </trkpt>
      <trkpt lat="45.26949" lon="4.55349">
        <ele>988.85</ele>
        <time>2020-07-11T14:02:59Z</time>
      </trkpt>
      <trkpt lat="45.26927" lon="4.55333">
        <ele>979.72</ele>
        <time>2020-07-11T14:03:16Z</time>
      </trkpt>
      <trkpt lat="45.26911" lon="4.5532">
        <ele>968.67</ele>
        <time>2020-07-11T14:03:31Z</time>
      </trkpt>
      <trkpt lat="45.26907" lon="4.55317">
        <ele>966.74</ele>
        <time>2020-07-11T14:03:44Z</time>
      </trkpt>
      <trkpt lat="45.26903" lon="4.55312">
        <ele>963.38</ele>
        <time>2020-07-11T14:03:57Z</time>
      </trkpt>
      <trkpt lat="45.269" lon="4.55309">
        <ele>960.01</ele>
        <time>2020-07-11T14:04:15Z</time>
      </trkpt>
      <trkpt lat="45.26884" lon="4.55299">
        <ele>959.53</ele>
        <time>2020-07-11T14:04:31Z</time>
      </trkpt>
      <trkpt lat="45.26859" lon="4.5528">
        <ele>955.69</ele>
        <time>2020-07-11T14:04:51Z</time>
      </trkpt>
      <trkpt lat="45.26841" lon="4.55263">
        <ele>953.77</ele>
        <time>2020-07-11T14:05:07Z</time>
      </trkpt>
      <trkpt lat="45.26825" lon="4.5525">
        <ele>954.25</ele>
        <time>2020-07-11T14:05:22Z</time>
      </trkpt>
      <trkpt lat="45.26824" lon="4.5526">
        <ele>953.77</ele>
        <time>2020-07-11T14:05:29Z</time>
      </trkpt>
      <trkpt lat="45.26832" lon="4.5529">
        <ele>953.28</ele>
        <time>2020-07-11T14:05:48Z</time>
      </trkpt>
      <trkpt lat="45.26844" lon="4.5532">
        <ele>951.84</ele>
        <time>2020-07-11T14:06:07Z</time>
      </trkpt>
      <trkpt lat="45.26857" lon="4.5535">
        <ele>949.92</ele>
        <time>2020-07-11T14:06:24Z</time>
      </trkpt>
      <trkpt lat="45.26869" lon="4.55372">
        <ele>950.88</ele>
        <time>2020-07-11T14:06:40Z</time>
      </trkpt>
      <trkpt lat="45.26877" lon="4.55383">
        <ele>951.84</ele>
        <time>2020-07-11T14:06:50Z</time>
      </trkpt>
      <trkpt lat="45.26885" lon="4.55399">
        <ele>953.77</ele>
        <time>2020-07-11T14:07:01Z</time>
      </trkpt>
      <trkpt lat="45.26897" lon="4.5542">
        <ele>953.28</ele>
        <time>2020-07-11T14:07:16Z</time>
      </trkpt>
      <trkpt lat="45.26912" lon="4.55445">
        <ele>953.77</ele>
        <time>2020-07-11T14:07:34Z</time>
      </trkpt>
      <trkpt lat="45.26917" lon="4.55453">
        <ele>954.73</ele>
        <time>2020-07-11T14:07:40Z</time>
      </trkpt>
      <trkpt lat="45.26926" lon="4.55476">
        <ele>954.25</ele>
        <time>2020-07-11T14:07:55Z</time>
      </trkpt>
      <trkpt lat="45.26927" lon="4.55478">
        <ele>954.25</ele>
        <time>2020-07-11T14:07:57Z</time>
      </trkpt>
      <trkpt lat="45.26929" lon="4.5548">
        <ele>954.25</ele>
        <time>2020-07-11T14:07:59Z</time>
      </trkpt>
      <trkpt lat="45.26935" lon="4.55491">
        <ele>954.25</ele>
        <time>2020-07-11T14:08:07Z</time>
      </trkpt>
      <trkpt lat="45.26937" lon="4.55492">
        <ele>954.25</ele>
        <time>2020-07-11T14:08:09Z</time>
      </trkpt>
      <trkpt lat="45.2695" lon="4.5551">
        <ele>954.25</ele>
        <time>2020-07-11T14:08:24Z</time>
      </trkpt>
      <trkpt lat="45.26958" lon="4.55521">
        <ele>954.73</ele>
        <time>2020-07-11T14:08:33Z</time>
      </trkpt>
      <trkpt lat="45.26981" lon="4.55545">
        <ele>953.28</ele>
        <time>2020-07-11T14:08:52Z</time>
      </trkpt>
      <trkpt lat="45.26993" lon="4.5556">
        <ele>947.52</ele>
        <time>2020-07-11T14:09:04Z</time>
      </trkpt>
      <trkpt lat="45.27002" lon="4.55585">
        <ele>945.11</ele>
        <time>2020-07-11T14:09:20Z</time>
      </trkpt>
      <trkpt lat="45.27002" lon="4.5559">
        <ele>943.67</ele>
        <time>2020-07-11T14:09:23Z</time>
      </trkpt>
      <trkpt lat="45.27004" lon="4.55593">
        <ele>942.23</ele>
        <time>2020-07-11T14:09:27Z</time>
      </trkpt>
      <trkpt lat="45.27004" lon="4.55628">
        <ele>937.9</ele>
        <time>2020-07-11T14:09:45Z</time>
      </trkpt>
      <trkpt lat="45.27004" lon="4.55643">
        <ele>935.5</ele>
        <time>2020-07-11T14:09:57Z</time>
      </trkpt>
      <trkpt lat="45.27001" lon="4.55669">
        <ele>933.1</ele>
        <time>2020-07-11T14:10:12Z</time>
      </trkpt>
      <trkpt lat="45.26997" lon="4.55696">
        <ele>930.21</ele>
        <time>2020-07-11T14:10:27Z</time>
      </trkpt>
      <trkpt lat="45.26994" lon="4.55711">
        <ele>929.25</ele>
        <time>2020-07-11T14:10:41Z</time>
      </trkpt>
      <trkpt lat="45.26986" lon="4.5574">
        <ele>925.89</ele>
        <time>2020-07-11T14:10:58Z</time>
      </trkpt>
      <trkpt lat="45.2698" lon="4.55768">
        <ele>923.96</ele>
        <time>2020-07-11T14:11:14Z</time>
      </trkpt>
      <trkpt lat="45.26979" lon="4.55774">
        <ele>923</ele>
        <time>2020-07-11T14:11:18Z</time>
      </trkpt>
      <trkpt lat="45.26977" lon="4.55777">
        <ele>923</ele>
        <time>2020-07-11T14:11:21Z</time>
      </trkpt>
      <trkpt lat="45.26976" lon="4.55791">
        <ele>921.56</ele>
        <time>2020-07-11T14:11:30Z</time>
      </trkpt>
      <trkpt lat="45.26974" lon="4.55807">
        <ele>920.6</ele>
        <time>2020-07-11T14:11:39Z</time>
      </trkpt>
      <trkpt lat="45.26973" lon="4.55813">
        <ele>921.08</ele>
        <time>2020-07-11T14:11:42Z</time>
      </trkpt>
      <trkpt lat="45.26968" lon="4.55852">
        <ele>919.16</ele>
        <time>2020-07-11T14:12:03Z</time>
      </trkpt>
      <trkpt lat="45.26961" lon="4.55884">
        <ele>915.31</ele>
        <time>2020-07-11T14:12:22Z</time>
      </trkpt>
      <trkpt lat="45.26953" lon="4.55916">
        <ele>910.99</ele>
        <time>2020-07-11T14:12:40Z</time>
      </trkpt>
      <trkpt lat="45.2695" lon="4.55947">
        <ele>910.51</ele>
        <time>2020-07-11T14:12:57Z</time>
      </trkpt>
      <trkpt lat="45.26952" lon="4.55977">
        <ele>909.54</ele>
        <time>2020-07-11T14:13:14Z</time>
      </trkpt>
      <trkpt lat="45.26955" lon="4.56009">
        <ele>908.1</ele>
        <time>2020-07-11T14:13:31Z</time>
      </trkpt>
      <trkpt lat="45.2696" lon="4.56047">
        <ele>906.18</ele>
        <time>2020-07-11T14:13:51Z</time>
      </trkpt>
      <trkpt lat="45.26968" lon="4.56086">
        <ele>905.7</ele>
        <time>2020-07-11T14:14:12Z</time>
      </trkpt>
      <trkpt lat="45.26974" lon="4.56119">
        <ele>903.78</ele>
        <time>2020-07-11T14:14:29Z</time>
      </trkpt>
      <trkpt lat="45.2698" lon="4.56154">
        <ele>903.78</ele>
        <time>2020-07-11T14:14:48Z</time>
      </trkpt>
      <trkpt lat="45.26981" lon="4.56176">
        <ele>903.78</ele>
        <time>2020-07-11T14:15:02Z</time>
      </trkpt>
      <trkpt lat="45.2698" lon="4.56186">
        <ele>903.78</ele>
        <time>2020-07-11T14:15:09Z</time>
      </trkpt>
      <trkpt lat="45.26977" lon="4.56208">
        <ele>903.3</ele>
        <time>2020-07-11T14:15:24Z</time>
      </trkpt>
      <trkpt lat="45.26977" lon="4.56225">
        <ele>902.82</ele>
        <time>2020-07-11T14:15:35Z</time>
      </trkpt>
      <trkpt lat="45.26976" lon="4.56255">
        <ele>903.3</ele>
        <time>2020-07-11T14:15:52Z</time>
      </trkpt>
      <trkpt lat="45.26977" lon="4.56297">
        <ele>902.33</ele>
        <time>2020-07-11T14:16:15Z</time>
      </trkpt>
      <trkpt lat="45.26977" lon="4.56323">
        <ele>901.85</ele>
        <time>2020-07-11T14:16:31Z</time>
      </trkpt>
      <trkpt lat="45.26979" lon="4.56333">
        <ele>901.85</ele>
        <time>2020-07-11T14:16:36Z</time>
      </trkpt>
      <trkpt lat="45.26982" lon="4.56354">
        <ele>903.78</ele>
        <time>2020-07-11T14:16:51Z</time>
      </trkpt>
      <trkpt lat="45.26988" lon="4.56389">
        <ele>903.3</ele>
        <time>2020-07-11T14:17:11Z</time>
      </trkpt>
      <trkpt lat="45.2699" lon="4.56412">
        <ele>905.7</ele>
        <time>2020-07-11T14:17:25Z</time>
      </trkpt>
      <trkpt lat="45.26989" lon="4.56441">
        <ele>904.74</ele>
        <time>2020-07-11T14:17:42Z</time>
      </trkpt>
      <trkpt lat="45.26988" lon="4.56453">
        <ele>904.74</ele>
        <time>2020-07-11T14:17:56Z</time>
      </trkpt>
      <trkpt lat="45.26988" lon="4.56453">
        <ele>905.22</ele>
        <time>2020-07-11T14:17:58Z</time>
      </trkpt>
      <trkpt lat="45.26986" lon="4.5646">
        <ele>905.7</ele>
        <time>2020-07-11T14:18:12Z</time>
      </trkpt>
      <trkpt lat="45.26992" lon="4.56462">
        <ele>905.22</ele>
        <time>2020-07-11T14:18:26Z</time>
      </trkpt>
      <trkpt lat="45.26992" lon="4.56461">
        <ele>905.22</ele>
        <time>2020-07-11T14:18:39Z</time>
      </trkpt>
      <trkpt lat="45.2699" lon="4.56459">
        <ele>906.18</ele>
        <time>2020-07-11T14:18:49Z</time>
      </trkpt>
      <trkpt lat="45.26991" lon="4.56457">
        <ele>905.7</ele>
        <time>2020-07-11T14:19:01Z</time>
      </trkpt>
      <trkpt lat="45.26991" lon="4.5646">
        <ele>905.22</ele>
        <time>2020-07-11T14:19:12Z</time>
      </trkpt>
      <trkpt lat="45.26988" lon="4.56464">
        <ele>904.26</ele>
        <time>2020-07-11T14:19:22Z</time>
      </trkpt>
      <trkpt lat="45.26987" lon="4.56463">
        <ele>904.26</ele>
        <time>2020-07-11T14:19:43Z</time>
      </trkpt>
    </trkseg>
  </trk>
</gpx>